<?xml version="1.0" encoding="UTF-8" standalone="no" ?>
<gpx xmlns="http://www.topografix.com/GPX/1/1" xmlns:xsi="http://www.w3.org/2001/XMLSchema-instance" xsi:schemaLocation="http://www.topografix.com/GPX/1/1 http://www.topografix.com/GPX/1/1/gpx.xsd" version="1.1" creator="VisuGPX - https://www.visugpx.com">
  <metadata>
    <name>2020-08-26 Nasbenals - Saint Chely d'Aubrac</name>
    <desc><![CDATA[Cheminement sur les plateaux de l'Aubrac, puis longue descente vers Saint Chely d'Aubrac]]></desc>
  </metadata>
  <trk>
    <name><![CDATA[2020-08-26 SANTIAGO E09]]></name>
    <trkseg>
      <trkpt lat="44.65877" lon="3.05247">
        <ele>1218.13</ele>
        <time>2020-08-26T06:57:33Z</time>
      </trkpt>
      <trkpt lat="44.65877" lon="3.05247">
        <ele>1218.13</ele>
        <time>2020-08-26T06:57:34Z</time>
      </trkpt>
      <trkpt lat="44.65877" lon="3.05247">
        <ele>1218.13</ele>
        <time>2020-08-26T06:57:35Z</time>
      </trkpt>
      <trkpt lat="44.65876" lon="3.05246">
        <ele>1217.65</ele>
        <time>2020-08-26T06:57:59Z</time>
      </trkpt>
      <trkpt lat="44.65876" lon="3.05246">
        <ele>1217.65</ele>
        <time>2020-08-26T06:58:12Z</time>
      </trkpt>
      <trkpt lat="44.65873" lon="3.05246">
        <ele>1217.65</ele>
        <time>2020-08-26T06:58:32Z</time>
      </trkpt>
      <trkpt lat="44.65868" lon="3.05244">
        <ele>1217.17</ele>
        <time>2020-08-26T06:58:51Z</time>
      </trkpt>
      <trkpt lat="44.65867" lon="3.05247">
        <ele>1217.17</ele>
        <time>2020-08-26T06:58:57Z</time>
      </trkpt>
      <trkpt lat="44.65864" lon="3.05253">
        <ele>1217.17</ele>
        <time>2020-08-26T06:59:01Z</time>
      </trkpt>
      <trkpt lat="44.65858" lon="3.05265">
        <ele>1218.61</ele>
        <time>2020-08-26T06:59:09Z</time>
      </trkpt>
      <trkpt lat="44.65847" lon="3.05275">
        <ele>1218.13</ele>
        <time>2020-08-26T06:59:21Z</time>
      </trkpt>
      <trkpt lat="44.65833" lon="3.05287">
        <ele>1218.61</ele>
        <time>2020-08-26T06:59:41Z</time>
      </trkpt>
      <trkpt lat="44.65828" lon="3.05288">
        <ele>1221.49</ele>
        <time>2020-08-26T07:00:02Z</time>
      </trkpt>
      <trkpt lat="44.6583" lon="3.05281">
        <ele>1222.93</ele>
        <time>2020-08-26T07:00:23Z</time>
      </trkpt>
      <trkpt lat="44.65829" lon="3.05279">
        <ele>1222.45</ele>
        <time>2020-08-26T07:00:40Z</time>
      </trkpt>
      <trkpt lat="44.65828" lon="3.05277">
        <ele>1221.01</ele>
        <time>2020-08-26T07:00:45Z</time>
      </trkpt>
      <trkpt lat="44.6583" lon="3.05274">
        <ele>1221.49</ele>
        <time>2020-08-26T07:00:56Z</time>
      </trkpt>
      <trkpt lat="44.65831" lon="3.05276">
        <ele>1221.49</ele>
        <time>2020-08-26T07:01:16Z</time>
      </trkpt>
      <trkpt lat="44.6583" lon="3.05271">
        <ele>1218.61</ele>
        <time>2020-08-26T07:01:32Z</time>
      </trkpt>
      <trkpt lat="44.65839" lon="3.05276">
        <ele>1216.21</ele>
        <time>2020-08-26T07:01:52Z</time>
      </trkpt>
      <trkpt lat="44.65845" lon="3.05278">
        <ele>1215.72</ele>
        <time>2020-08-26T07:01:59Z</time>
      </trkpt>
      <trkpt lat="44.65859" lon="3.05268">
        <ele>1215.24</ele>
        <time>2020-08-26T07:02:13Z</time>
      </trkpt>
      <trkpt lat="44.65865" lon="3.05258">
        <ele>1213.8</ele>
        <time>2020-08-26T07:02:28Z</time>
      </trkpt>
      <trkpt lat="44.65869" lon="3.05238">
        <ele>1213.32</ele>
        <time>2020-08-26T07:02:44Z</time>
      </trkpt>
      <trkpt lat="44.65867" lon="3.05235">
        <ele>1213.32</ele>
        <time>2020-08-26T07:03:06Z</time>
      </trkpt>
      <trkpt lat="44.65866" lon="3.05237">
        <ele>1212.84</ele>
        <time>2020-08-26T07:03:32Z</time>
      </trkpt>
      <trkpt lat="44.65865" lon="3.05235">
        <ele>1212.36</ele>
        <time>2020-08-26T07:04:02Z</time>
      </trkpt>
      <trkpt lat="44.65865" lon="3.05237">
        <ele>1212.36</ele>
        <time>2020-08-26T07:04:38Z</time>
      </trkpt>
      <trkpt lat="44.65873" lon="3.05238">
        <ele>1210.92</ele>
        <time>2020-08-26T07:04:48Z</time>
      </trkpt>
      <trkpt lat="44.65882" lon="3.05237">
        <ele>1210.92</ele>
        <time>2020-08-26T07:04:55Z</time>
      </trkpt>
      <trkpt lat="44.65886" lon="3.05234">
        <ele>1212.36</ele>
        <time>2020-08-26T07:04:59Z</time>
      </trkpt>
      <trkpt lat="44.65888" lon="3.05232">
        <ele>1210.92</ele>
        <time>2020-08-26T07:05:01Z</time>
      </trkpt>
      <trkpt lat="44.65894" lon="3.05227">
        <ele>1210.92</ele>
        <time>2020-08-26T07:05:06Z</time>
      </trkpt>
      <trkpt lat="44.65896" lon="3.05225">
        <ele>1209.96</ele>
        <time>2020-08-26T07:05:08Z</time>
      </trkpt>
      <trkpt lat="44.659" lon="3.05222">
        <ele>1210.44</ele>
        <time>2020-08-26T07:05:12Z</time>
      </trkpt>
      <trkpt lat="44.65916" lon="3.05207">
        <ele>1208.03</ele>
        <time>2020-08-26T07:05:25Z</time>
      </trkpt>
      <trkpt lat="44.65934" lon="3.05188">
        <ele>1208.03</ele>
        <time>2020-08-26T07:05:42Z</time>
      </trkpt>
      <trkpt lat="44.65944" lon="3.05178">
        <ele>1207.07</ele>
        <time>2020-08-26T07:05:52Z</time>
      </trkpt>
      <trkpt lat="44.65964" lon="3.05158">
        <ele>1206.11</ele>
        <time>2020-08-26T07:06:11Z</time>
      </trkpt>
      <trkpt lat="44.65986" lon="3.05138">
        <ele>1205.63</ele>
        <time>2020-08-26T07:06:29Z</time>
      </trkpt>
      <trkpt lat="44.66011" lon="3.05114">
        <ele>1204.67</ele>
        <time>2020-08-26T07:06:50Z</time>
      </trkpt>
      <trkpt lat="44.66025" lon="3.05095">
        <ele>1204.19</ele>
        <time>2020-08-26T07:07:06Z</time>
      </trkpt>
      <trkpt lat="44.66027" lon="3.05089">
        <ele>1204.19</ele>
        <time>2020-08-26T07:07:10Z</time>
      </trkpt>
      <trkpt lat="44.66033" lon="3.0508">
        <ele>1205.15</ele>
        <time>2020-08-26T07:07:21Z</time>
      </trkpt>
      <trkpt lat="44.66041" lon="3.05056">
        <ele>1205.15</ele>
        <time>2020-08-26T07:07:35Z</time>
      </trkpt>
      <trkpt lat="44.66048" lon="3.05027">
        <ele>1204.67</ele>
        <time>2020-08-26T07:07:52Z</time>
      </trkpt>
      <trkpt lat="44.66049" lon="3.05025">
        <ele>1204.67</ele>
        <time>2020-08-26T07:07:54Z</time>
      </trkpt>
      <trkpt lat="44.66056" lon="3.05016">
        <ele>1204.67</ele>
        <time>2020-08-26T07:08:03Z</time>
      </trkpt>
      <trkpt lat="44.6607" lon="3.05007">
        <ele>1204.67</ele>
        <time>2020-08-26T07:08:19Z</time>
      </trkpt>
      <trkpt lat="44.66075" lon="3.05003">
        <ele>1203.23</ele>
        <time>2020-08-26T07:08:25Z</time>
      </trkpt>
      <trkpt lat="44.66085" lon="3.04996">
        <ele>1202.27</ele>
        <time>2020-08-26T07:08:36Z</time>
      </trkpt>
      <trkpt lat="44.661" lon="3.0498">
        <ele>1201.3</ele>
        <time>2020-08-26T07:08:54Z</time>
      </trkpt>
      <trkpt lat="44.66113" lon="3.04965">
        <ele>1199.38</ele>
        <time>2020-08-26T07:09:11Z</time>
      </trkpt>
      <trkpt lat="44.66121" lon="3.04956">
        <ele>1199.38</ele>
        <time>2020-08-26T07:09:28Z</time>
      </trkpt>
      <trkpt lat="44.6613" lon="3.04944">
        <ele>1198.42</ele>
        <time>2020-08-26T07:09:42Z</time>
      </trkpt>
      <trkpt lat="44.66142" lon="3.04926">
        <ele>1196.98</ele>
        <time>2020-08-26T07:09:59Z</time>
      </trkpt>
      <trkpt lat="44.66153" lon="3.04909">
        <ele>1194.58</ele>
        <time>2020-08-26T07:10:16Z</time>
      </trkpt>
      <trkpt lat="44.66159" lon="3.04886">
        <ele>1191.69</ele>
        <time>2020-08-26T07:10:34Z</time>
      </trkpt>
      <trkpt lat="44.66173" lon="3.04875">
        <ele>1189.77</ele>
        <time>2020-08-26T07:10:51Z</time>
      </trkpt>
      <trkpt lat="44.66175" lon="3.04875">
        <ele>1189.77</ele>
        <time>2020-08-26T07:10:53Z</time>
      </trkpt>
      <trkpt lat="44.66181" lon="3.04874">
        <ele>1188.81</ele>
        <time>2020-08-26T07:10:59Z</time>
      </trkpt>
      <trkpt lat="44.66179" lon="3.0486">
        <ele>1188.81</ele>
        <time>2020-08-26T07:11:14Z</time>
      </trkpt>
      <trkpt lat="44.66177" lon="3.04848">
        <ele>1188.81</ele>
        <time>2020-08-26T07:11:24Z</time>
      </trkpt>
      <trkpt lat="44.66183" lon="3.0482">
        <ele>1186.88</ele>
        <time>2020-08-26T07:11:42Z</time>
      </trkpt>
      <trkpt lat="44.66187" lon="3.04793">
        <ele>1185.44</ele>
        <time>2020-08-26T07:12:00Z</time>
      </trkpt>
      <trkpt lat="44.66189" lon="3.04766">
        <ele>1184.96</ele>
        <time>2020-08-26T07:12:17Z</time>
      </trkpt>
      <trkpt lat="44.66191" lon="3.04734">
        <ele>1184</ele>
        <time>2020-08-26T07:12:35Z</time>
      </trkpt>
      <trkpt lat="44.66194" lon="3.0471">
        <ele>1184</ele>
        <time>2020-08-26T07:12:50Z</time>
      </trkpt>
      <trkpt lat="44.662" lon="3.04694">
        <ele>1184.96</ele>
        <time>2020-08-26T07:13:03Z</time>
      </trkpt>
      <trkpt lat="44.66211" lon="3.04685">
        <ele>1185.44</ele>
        <time>2020-08-26T07:13:17Z</time>
      </trkpt>
      <trkpt lat="44.66214" lon="3.04672">
        <ele>1186.4</ele>
        <time>2020-08-26T07:13:34Z</time>
      </trkpt>
      <trkpt lat="44.66215" lon="3.04668">
        <ele>1186.4</ele>
        <time>2020-08-26T07:13:50Z</time>
      </trkpt>
      <trkpt lat="44.66222" lon="3.04655">
        <ele>1187.37</ele>
        <time>2020-08-26T07:14:07Z</time>
      </trkpt>
      <trkpt lat="44.66226" lon="3.04646">
        <ele>1187.85</ele>
        <time>2020-08-26T07:14:22Z</time>
      </trkpt>
      <trkpt lat="44.66237" lon="3.04641">
        <ele>1189.77</ele>
        <time>2020-08-26T07:14:37Z</time>
      </trkpt>
      <trkpt lat="44.66242" lon="3.04638">
        <ele>1189.29</ele>
        <time>2020-08-26T07:14:57Z</time>
      </trkpt>
      <trkpt lat="44.66242" lon="3.04637">
        <ele>1189.29</ele>
        <time>2020-08-26T07:15:58Z</time>
      </trkpt>
      <trkpt lat="44.66227" lon="3.04642">
        <ele>1189.29</ele>
        <time>2020-08-26T07:16:18Z</time>
      </trkpt>
      <trkpt lat="44.66226" lon="3.04639">
        <ele>1189.29</ele>
        <time>2020-08-26T07:16:41Z</time>
      </trkpt>
      <trkpt lat="44.66226" lon="3.04645">
        <ele>1187.85</ele>
        <time>2020-08-26T07:16:55Z</time>
      </trkpt>
      <trkpt lat="44.66238" lon="3.04652">
        <ele>1187.37</ele>
        <time>2020-08-26T07:17:09Z</time>
      </trkpt>
      <trkpt lat="44.66243" lon="3.04652">
        <ele>1187.37</ele>
        <time>2020-08-26T07:17:13Z</time>
      </trkpt>
      <trkpt lat="44.66251" lon="3.04651">
        <ele>1188.81</ele>
        <time>2020-08-26T07:17:29Z</time>
      </trkpt>
      <trkpt lat="44.66258" lon="3.04643">
        <ele>1190.73</ele>
        <time>2020-08-26T07:17:48Z</time>
      </trkpt>
      <trkpt lat="44.66265" lon="3.04618">
        <ele>1191.21</ele>
        <time>2020-08-26T07:18:07Z</time>
      </trkpt>
      <trkpt lat="44.66276" lon="3.04598">
        <ele>1192.17</ele>
        <time>2020-08-26T07:18:25Z</time>
      </trkpt>
      <trkpt lat="44.66273" lon="3.04592">
        <ele>1192.65</ele>
        <time>2020-08-26T07:18:29Z</time>
      </trkpt>
      <trkpt lat="44.66269" lon="3.04578">
        <ele>1193.13</ele>
        <time>2020-08-26T07:18:44Z</time>
      </trkpt>
      <trkpt lat="44.66269" lon="3.04566">
        <ele>1191.69</ele>
        <time>2020-08-26T07:18:59Z</time>
      </trkpt>
      <trkpt lat="44.6627" lon="3.04543">
        <ele>1191.21</ele>
        <time>2020-08-26T07:19:12Z</time>
      </trkpt>
      <trkpt lat="44.66278" lon="3.04536">
        <ele>1191.21</ele>
        <time>2020-08-26T07:19:28Z</time>
      </trkpt>
      <trkpt lat="44.6628" lon="3.04541">
        <ele>1192.17</ele>
        <time>2020-08-26T07:19:48Z</time>
      </trkpt>
      <trkpt lat="44.66284" lon="3.04542">
        <ele>1192.17</ele>
        <time>2020-08-26T07:20:13Z</time>
      </trkpt>
      <trkpt lat="44.66277" lon="3.04546">
        <ele>1191.69</ele>
        <time>2020-08-26T07:20:34Z</time>
      </trkpt>
      <trkpt lat="44.66276" lon="3.04544">
        <ele>1191.69</ele>
        <time>2020-08-26T07:20:54Z</time>
      </trkpt>
      <trkpt lat="44.66278" lon="3.04541">
        <ele>1191.69</ele>
        <time>2020-08-26T07:21:07Z</time>
      </trkpt>
      <trkpt lat="44.6628" lon="3.04538">
        <ele>1191.21</ele>
        <time>2020-08-26T07:21:25Z</time>
      </trkpt>
      <trkpt lat="44.66283" lon="3.04538">
        <ele>1191.21</ele>
        <time>2020-08-26T07:21:42Z</time>
      </trkpt>
      <trkpt lat="44.66282" lon="3.04537">
        <ele>1191.21</ele>
        <time>2020-08-26T07:21:55Z</time>
      </trkpt>
      <trkpt lat="44.66279" lon="3.04539">
        <ele>1190.73</ele>
        <time>2020-08-26T07:22:16Z</time>
      </trkpt>
      <trkpt lat="44.66276" lon="3.04541">
        <ele>1190.73</ele>
        <time>2020-08-26T07:22:37Z</time>
      </trkpt>
      <trkpt lat="44.66279" lon="3.04539">
        <ele>1190.25</ele>
        <time>2020-08-26T07:22:58Z</time>
      </trkpt>
      <trkpt lat="44.66278" lon="3.0454">
        <ele>1190.25</ele>
        <time>2020-08-26T07:23:02Z</time>
      </trkpt>
      <trkpt lat="44.6628" lon="3.0454">
        <ele>1190.25</ele>
        <time>2020-08-26T07:23:21Z</time>
      </trkpt>
      <trkpt lat="44.66278" lon="3.04542">
        <ele>1190.25</ele>
        <time>2020-08-26T07:23:35Z</time>
      </trkpt>
      <trkpt lat="44.66277" lon="3.04542">
        <ele>1189.77</ele>
        <time>2020-08-26T07:24:02Z</time>
      </trkpt>
      <trkpt lat="44.66275" lon="3.04543">
        <ele>1189.77</ele>
        <time>2020-08-26T07:24:24Z</time>
      </trkpt>
      <trkpt lat="44.66273" lon="3.04542">
        <ele>1189.29</ele>
        <time>2020-08-26T07:24:38Z</time>
      </trkpt>
      <trkpt lat="44.66273" lon="3.04541">
        <ele>1189.29</ele>
        <time>2020-08-26T07:24:41Z</time>
      </trkpt>
      <trkpt lat="44.66276" lon="3.04539">
        <ele>1189.29</ele>
        <time>2020-08-26T07:24:54Z</time>
      </trkpt>
      <trkpt lat="44.66288" lon="3.04537">
        <ele>1189.29</ele>
        <time>2020-08-26T07:25:23Z</time>
      </trkpt>
      <trkpt lat="44.6628" lon="3.04523">
        <ele>1187.85</ele>
        <time>2020-08-26T07:25:37Z</time>
      </trkpt>
      <trkpt lat="44.66279" lon="3.04512">
        <ele>1187.85</ele>
        <time>2020-08-26T07:25:45Z</time>
      </trkpt>
      <trkpt lat="44.66278" lon="3.04501">
        <ele>1186.88</ele>
        <time>2020-08-26T07:25:54Z</time>
      </trkpt>
      <trkpt lat="44.66277" lon="3.04483">
        <ele>1186.88</ele>
        <time>2020-08-26T07:26:08Z</time>
      </trkpt>
      <trkpt lat="44.66272" lon="3.04468">
        <ele>1186.4</ele>
        <time>2020-08-26T07:26:19Z</time>
      </trkpt>
      <trkpt lat="44.66267" lon="3.04444">
        <ele>1185.92</ele>
        <time>2020-08-26T07:26:36Z</time>
      </trkpt>
      <trkpt lat="44.66267" lon="3.04423">
        <ele>1184.96</ele>
        <time>2020-08-26T07:26:50Z</time>
      </trkpt>
      <trkpt lat="44.66265" lon="3.04403">
        <ele>1184.96</ele>
        <time>2020-08-26T07:27:05Z</time>
      </trkpt>
      <trkpt lat="44.6626" lon="3.04381">
        <ele>1184.96</ele>
        <time>2020-08-26T07:27:23Z</time>
      </trkpt>
      <trkpt lat="44.66252" lon="3.04355">
        <ele>1184.48</ele>
        <time>2020-08-26T07:27:40Z</time>
      </trkpt>
      <trkpt lat="44.66238" lon="3.04327">
        <ele>1185.92</ele>
        <time>2020-08-26T07:27:58Z</time>
      </trkpt>
      <trkpt lat="44.66226" lon="3.04309">
        <ele>1185.92</ele>
        <time>2020-08-26T07:28:13Z</time>
      </trkpt>
      <trkpt lat="44.66219" lon="3.043">
        <ele>1186.4</ele>
        <time>2020-08-26T07:28:27Z</time>
      </trkpt>
      <trkpt lat="44.66219" lon="3.04299">
        <ele>1186.4</ele>
        <time>2020-08-26T07:28:46Z</time>
      </trkpt>
      <trkpt lat="44.66217" lon="3.04299">
        <ele>1186.4</ele>
        <time>2020-08-26T07:29:10Z</time>
      </trkpt>
      <trkpt lat="44.66216" lon="3.04293">
        <ele>1186.4</ele>
        <time>2020-08-26T07:29:29Z</time>
      </trkpt>
      <trkpt lat="44.66216" lon="3.04292">
        <ele>1186.4</ele>
        <time>2020-08-26T07:29:31Z</time>
      </trkpt>
      <trkpt lat="44.66214" lon="3.04288">
        <ele>1186.4</ele>
        <time>2020-08-26T07:29:34Z</time>
      </trkpt>
      <trkpt lat="44.66201" lon="3.04267">
        <ele>1186.4</ele>
        <time>2020-08-26T07:29:52Z</time>
      </trkpt>
      <trkpt lat="44.66187" lon="3.04243">
        <ele>1186.88</ele>
        <time>2020-08-26T07:30:10Z</time>
      </trkpt>
      <trkpt lat="44.66178" lon="3.04228">
        <ele>1187.37</ele>
        <time>2020-08-26T07:30:22Z</time>
      </trkpt>
      <trkpt lat="44.66168" lon="3.0421">
        <ele>1185.92</ele>
        <time>2020-08-26T07:30:34Z</time>
      </trkpt>
      <trkpt lat="44.66152" lon="3.04187">
        <ele>1185.44</ele>
        <time>2020-08-26T07:30:55Z</time>
      </trkpt>
      <trkpt lat="44.66137" lon="3.04162">
        <ele>1185.44</ele>
        <time>2020-08-26T07:31:16Z</time>
      </trkpt>
      <trkpt lat="44.66122" lon="3.04141">
        <ele>1184.96</ele>
        <time>2020-08-26T07:31:35Z</time>
      </trkpt>
      <trkpt lat="44.66104" lon="3.04117">
        <ele>1184.48</ele>
        <time>2020-08-26T07:31:56Z</time>
      </trkpt>
      <trkpt lat="44.66085" lon="3.04091">
        <ele>1184.48</ele>
        <time>2020-08-26T07:32:19Z</time>
      </trkpt>
      <trkpt lat="44.66066" lon="3.04066">
        <ele>1184</ele>
        <time>2020-08-26T07:32:41Z</time>
      </trkpt>
      <trkpt lat="44.66057" lon="3.04051">
        <ele>1185.44</ele>
        <time>2020-08-26T07:32:54Z</time>
      </trkpt>
      <trkpt lat="44.66048" lon="3.04034">
        <ele>1185.92</ele>
        <time>2020-08-26T07:33:11Z</time>
      </trkpt>
      <trkpt lat="44.66037" lon="3.0401">
        <ele>1186.88</ele>
        <time>2020-08-26T07:33:31Z</time>
      </trkpt>
      <trkpt lat="44.66029" lon="3.03989">
        <ele>1188.33</ele>
        <time>2020-08-26T07:33:50Z</time>
      </trkpt>
      <trkpt lat="44.66033" lon="3.03978">
        <ele>1188.81</ele>
        <time>2020-08-26T07:34:05Z</time>
      </trkpt>
      <trkpt lat="44.66044" lon="3.03959">
        <ele>1190.73</ele>
        <time>2020-08-26T07:34:24Z</time>
      </trkpt>
      <trkpt lat="44.66048" lon="3.03939">
        <ele>1192.17</ele>
        <time>2020-08-26T07:34:42Z</time>
      </trkpt>
      <trkpt lat="44.66055" lon="3.03918">
        <ele>1193.61</ele>
        <time>2020-08-26T07:34:59Z</time>
      </trkpt>
      <trkpt lat="44.66063" lon="3.039">
        <ele>1195.06</ele>
        <time>2020-08-26T07:35:15Z</time>
      </trkpt>
      <trkpt lat="44.66073" lon="3.03886">
        <ele>1196.02</ele>
        <time>2020-08-26T07:35:32Z</time>
      </trkpt>
      <trkpt lat="44.66082" lon="3.0387">
        <ele>1197.46</ele>
        <time>2020-08-26T07:35:51Z</time>
      </trkpt>
      <trkpt lat="44.66097" lon="3.03849">
        <ele>1198.9</ele>
        <time>2020-08-26T07:36:13Z</time>
      </trkpt>
      <trkpt lat="44.66119" lon="3.03838">
        <ele>1199.86</ele>
        <time>2020-08-26T07:36:32Z</time>
      </trkpt>
      <trkpt lat="44.66134" lon="3.03832">
        <ele>1201.3</ele>
        <time>2020-08-26T07:36:53Z</time>
      </trkpt>
      <trkpt lat="44.66129" lon="3.03807">
        <ele>1203.23</ele>
        <time>2020-08-26T07:37:13Z</time>
      </trkpt>
      <trkpt lat="44.66118" lon="3.03788">
        <ele>1204.19</ele>
        <time>2020-08-26T07:37:32Z</time>
      </trkpt>
      <trkpt lat="44.66109" lon="3.03773">
        <ele>1204.67</ele>
        <time>2020-08-26T07:37:54Z</time>
      </trkpt>
      <trkpt lat="44.66102" lon="3.03757">
        <ele>1207.07</ele>
        <time>2020-08-26T07:38:16Z</time>
      </trkpt>
      <trkpt lat="44.66094" lon="3.03734">
        <ele>1208.03</ele>
        <time>2020-08-26T07:38:35Z</time>
      </trkpt>
      <trkpt lat="44.66087" lon="3.03711">
        <ele>1208.51</ele>
        <time>2020-08-26T07:38:53Z</time>
      </trkpt>
      <trkpt lat="44.66069" lon="3.03697">
        <ele>1209.48</ele>
        <time>2020-08-26T07:39:13Z</time>
      </trkpt>
      <trkpt lat="44.66049" lon="3.0369">
        <ele>1209.48</ele>
        <time>2020-08-26T07:39:36Z</time>
      </trkpt>
      <trkpt lat="44.66031" lon="3.03686">
        <ele>1209.96</ele>
        <time>2020-08-26T07:39:52Z</time>
      </trkpt>
      <trkpt lat="44.66009" lon="3.03678">
        <ele>1211.4</ele>
        <time>2020-08-26T07:40:13Z</time>
      </trkpt>
      <trkpt lat="44.65987" lon="3.03674">
        <ele>1211.88</ele>
        <time>2020-08-26T07:40:33Z</time>
      </trkpt>
      <trkpt lat="44.65967" lon="3.0367">
        <ele>1212.36</ele>
        <time>2020-08-26T07:40:53Z</time>
      </trkpt>
      <trkpt lat="44.65948" lon="3.03655">
        <ele>1212.36</ele>
        <time>2020-08-26T07:41:12Z</time>
      </trkpt>
      <trkpt lat="44.6594" lon="3.03634">
        <ele>1212.84</ele>
        <time>2020-08-26T07:41:28Z</time>
      </trkpt>
      <trkpt lat="44.65932" lon="3.03607">
        <ele>1213.32</ele>
        <time>2020-08-26T07:41:48Z</time>
      </trkpt>
      <trkpt lat="44.65923" lon="3.0358">
        <ele>1214.76</ele>
        <time>2020-08-26T07:42:08Z</time>
      </trkpt>
      <trkpt lat="44.65913" lon="3.0355">
        <ele>1215.24</ele>
        <time>2020-08-26T07:42:31Z</time>
      </trkpt>
      <trkpt lat="44.659" lon="3.03523">
        <ele>1215.24</ele>
        <time>2020-08-26T07:42:51Z</time>
      </trkpt>
      <trkpt lat="44.65889" lon="3.03494">
        <ele>1215.24</ele>
        <time>2020-08-26T07:43:11Z</time>
      </trkpt>
      <trkpt lat="44.65878" lon="3.03465">
        <ele>1215.24</ele>
        <time>2020-08-26T07:43:32Z</time>
      </trkpt>
      <trkpt lat="44.65868" lon="3.03435">
        <ele>1215.24</ele>
        <time>2020-08-26T07:43:53Z</time>
      </trkpt>
      <trkpt lat="44.6586" lon="3.03416">
        <ele>1215.24</ele>
        <time>2020-08-26T07:44:12Z</time>
      </trkpt>
      <trkpt lat="44.65862" lon="3.03418">
        <ele>1215.24</ele>
        <time>2020-08-26T07:44:34Z</time>
      </trkpt>
      <trkpt lat="44.65862" lon="3.03416">
        <ele>1215.24</ele>
        <time>2020-08-26T07:44:48Z</time>
      </trkpt>
      <trkpt lat="44.65861" lon="3.03414">
        <ele>1215.24</ele>
        <time>2020-08-26T07:45:12Z</time>
      </trkpt>
      <trkpt lat="44.65861" lon="3.03414">
        <ele>1215.24</ele>
        <time>2020-08-26T07:45:37Z</time>
      </trkpt>
      <trkpt lat="44.65862" lon="3.03414">
        <ele>1215.24</ele>
        <time>2020-08-26T07:46:07Z</time>
      </trkpt>
      <trkpt lat="44.65862" lon="3.03414">
        <ele>1215.24</ele>
        <time>2020-08-26T07:46:42Z</time>
      </trkpt>
      <trkpt lat="44.65864" lon="3.03419">
        <ele>1215.24</ele>
        <time>2020-08-26T07:47:04Z</time>
      </trkpt>
      <trkpt lat="44.65866" lon="3.03424">
        <ele>1215.24</ele>
        <time>2020-08-26T07:47:22Z</time>
      </trkpt>
      <trkpt lat="44.65866" lon="3.03424">
        <ele>1215.24</ele>
        <time>2020-08-26T07:47:47Z</time>
      </trkpt>
      <trkpt lat="44.65863" lon="3.03419">
        <ele>1215.24</ele>
        <time>2020-08-26T07:48:05Z</time>
      </trkpt>
      <trkpt lat="44.65859" lon="3.03405">
        <ele>1215.24</ele>
        <time>2020-08-26T07:48:21Z</time>
      </trkpt>
      <trkpt lat="44.65856" lon="3.03399">
        <ele>1215.24</ele>
        <time>2020-08-26T07:48:34Z</time>
      </trkpt>
      <trkpt lat="44.65854" lon="3.0339">
        <ele>1215.24</ele>
        <time>2020-08-26T07:48:42Z</time>
      </trkpt>
      <trkpt lat="44.65851" lon="3.03373">
        <ele>1216.21</ele>
        <time>2020-08-26T07:48:58Z</time>
      </trkpt>
      <trkpt lat="44.65847" lon="3.03357">
        <ele>1216.21</ele>
        <time>2020-08-26T07:49:15Z</time>
      </trkpt>
      <trkpt lat="44.65847" lon="3.03356">
        <ele>1216.21</ele>
        <time>2020-08-26T07:49:45Z</time>
      </trkpt>
      <trkpt lat="44.65842" lon="3.03342">
        <ele>1216.21</ele>
        <time>2020-08-26T07:50:03Z</time>
      </trkpt>
      <trkpt lat="44.65839" lon="3.03331">
        <ele>1216.69</ele>
        <time>2020-08-26T07:50:23Z</time>
      </trkpt>
      <trkpt lat="44.65832" lon="3.03309">
        <ele>1216.69</ele>
        <time>2020-08-26T07:50:39Z</time>
      </trkpt>
      <trkpt lat="44.65824" lon="3.03281">
        <ele>1216.69</ele>
        <time>2020-08-26T07:50:59Z</time>
      </trkpt>
      <trkpt lat="44.65819" lon="3.03256">
        <ele>1216.69</ele>
        <time>2020-08-26T07:51:19Z</time>
      </trkpt>
      <trkpt lat="44.65818" lon="3.03251">
        <ele>1216.69</ele>
        <time>2020-08-26T07:51:23Z</time>
      </trkpt>
      <trkpt lat="44.65819" lon="3.03248">
        <ele>1215.24</ele>
        <time>2020-08-26T07:51:25Z</time>
      </trkpt>
      <trkpt lat="44.65817" lon="3.03216">
        <ele>1215.24</ele>
        <time>2020-08-26T07:51:46Z</time>
      </trkpt>
      <trkpt lat="44.65817" lon="3.03187">
        <ele>1215.24</ele>
        <time>2020-08-26T07:52:06Z</time>
      </trkpt>
      <trkpt lat="44.6582" lon="3.03157">
        <ele>1213.8</ele>
        <time>2020-08-26T07:52:25Z</time>
      </trkpt>
      <trkpt lat="44.65822" lon="3.03131">
        <ele>1213.32</ele>
        <time>2020-08-26T07:52:42Z</time>
      </trkpt>
      <trkpt lat="44.65824" lon="3.031">
        <ele>1212.84</ele>
        <time>2020-08-26T07:53:02Z</time>
      </trkpt>
      <trkpt lat="44.65822" lon="3.03064">
        <ele>1211.4</ele>
        <time>2020-08-26T07:53:26Z</time>
      </trkpt>
      <trkpt lat="44.65815" lon="3.0303">
        <ele>1211.4</ele>
        <time>2020-08-26T07:53:48Z</time>
      </trkpt>
      <trkpt lat="44.65808" lon="3.02997">
        <ele>1209.48</ele>
        <time>2020-08-26T07:54:10Z</time>
      </trkpt>
      <trkpt lat="44.65804" lon="3.02966">
        <ele>1208.03</ele>
        <time>2020-08-26T07:54:31Z</time>
      </trkpt>
      <trkpt lat="44.65799" lon="3.02951">
        <ele>1207.55</ele>
        <time>2020-08-26T07:54:42Z</time>
      </trkpt>
      <trkpt lat="44.65786" lon="3.02924">
        <ele>1207.55</ele>
        <time>2020-08-26T07:55:03Z</time>
      </trkpt>
      <trkpt lat="44.65774" lon="3.02906">
        <ele>1207.55</ele>
        <time>2020-08-26T07:55:20Z</time>
      </trkpt>
      <trkpt lat="44.6577" lon="3.02902">
        <ele>1209</ele>
        <time>2020-08-26T07:55:25Z</time>
      </trkpt>
      <trkpt lat="44.65762" lon="3.02888">
        <ele>1209.96</ele>
        <time>2020-08-26T07:55:39Z</time>
      </trkpt>
      <trkpt lat="44.65754" lon="3.02877">
        <ele>1210.92</ele>
        <time>2020-08-26T07:55:50Z</time>
      </trkpt>
      <trkpt lat="44.65745" lon="3.02862">
        <ele>1211.4</ele>
        <time>2020-08-26T07:56:04Z</time>
      </trkpt>
      <trkpt lat="44.65739" lon="3.02852">
        <ele>1211.88</ele>
        <time>2020-08-26T07:56:20Z</time>
      </trkpt>
      <trkpt lat="44.65726" lon="3.02831">
        <ele>1211.4</ele>
        <time>2020-08-26T07:56:38Z</time>
      </trkpt>
      <trkpt lat="44.65719" lon="3.02806">
        <ele>1211.88</ele>
        <time>2020-08-26T07:56:57Z</time>
      </trkpt>
      <trkpt lat="44.65717" lon="3.0278">
        <ele>1212.84</ele>
        <time>2020-08-26T07:57:16Z</time>
      </trkpt>
      <trkpt lat="44.65711" lon="3.02758">
        <ele>1213.32</ele>
        <time>2020-08-26T07:57:32Z</time>
      </trkpt>
      <trkpt lat="44.65706" lon="3.02737">
        <ele>1213.32</ele>
        <time>2020-08-26T07:57:48Z</time>
      </trkpt>
      <trkpt lat="44.657" lon="3.02712">
        <ele>1213.32</ele>
        <time>2020-08-26T07:58:06Z</time>
      </trkpt>
      <trkpt lat="44.65699" lon="3.02703">
        <ele>1213.32</ele>
        <time>2020-08-26T07:58:12Z</time>
      </trkpt>
      <trkpt lat="44.65697" lon="3.02678">
        <ele>1213.32</ele>
        <time>2020-08-26T07:58:29Z</time>
      </trkpt>
      <trkpt lat="44.65695" lon="3.02657">
        <ele>1213.8</ele>
        <time>2020-08-26T07:58:45Z</time>
      </trkpt>
      <trkpt lat="44.65688" lon="3.02639">
        <ele>1215.72</ele>
        <time>2020-08-26T07:59:01Z</time>
      </trkpt>
      <trkpt lat="44.65676" lon="3.02625">
        <ele>1217.65</ele>
        <time>2020-08-26T07:59:18Z</time>
      </trkpt>
      <trkpt lat="44.65666" lon="3.02609">
        <ele>1218.61</ele>
        <time>2020-08-26T07:59:34Z</time>
      </trkpt>
      <trkpt lat="44.65658" lon="3.02591">
        <ele>1221.01</ele>
        <time>2020-08-26T07:59:52Z</time>
      </trkpt>
      <trkpt lat="44.65652" lon="3.02571">
        <ele>1221.97</ele>
        <time>2020-08-26T08:00:08Z</time>
      </trkpt>
      <trkpt lat="44.65651" lon="3.02569">
        <ele>1221.97</ele>
        <time>2020-08-26T08:00:10Z</time>
      </trkpt>
      <trkpt lat="44.65643" lon="3.0255">
        <ele>1223.42</ele>
        <time>2020-08-26T08:00:26Z</time>
      </trkpt>
      <trkpt lat="44.65634" lon="3.02534">
        <ele>1225.34</ele>
        <time>2020-08-26T08:00:41Z</time>
      </trkpt>
      <trkpt lat="44.65631" lon="3.02529">
        <ele>1224.86</ele>
        <time>2020-08-26T08:00:46Z</time>
      </trkpt>
      <trkpt lat="44.65624" lon="3.0252">
        <ele>1226.3</ele>
        <time>2020-08-26T08:00:57Z</time>
      </trkpt>
      <trkpt lat="44.65616" lon="3.02501">
        <ele>1228.22</ele>
        <time>2020-08-26T08:01:14Z</time>
      </trkpt>
      <trkpt lat="44.65614" lon="3.0248">
        <ele>1229.18</ele>
        <time>2020-08-26T08:01:31Z</time>
      </trkpt>
      <trkpt lat="44.65612" lon="3.02463">
        <ele>1230.62</ele>
        <time>2020-08-26T08:01:44Z</time>
      </trkpt>
      <trkpt lat="44.6561" lon="3.02441">
        <ele>1231.59</ele>
        <time>2020-08-26T08:02:00Z</time>
      </trkpt>
      <trkpt lat="44.65608" lon="3.02419">
        <ele>1231.59</ele>
        <time>2020-08-26T08:02:16Z</time>
      </trkpt>
      <trkpt lat="44.65608" lon="3.02407">
        <ele>1233.03</ele>
        <time>2020-08-26T08:02:24Z</time>
      </trkpt>
      <trkpt lat="44.65605" lon="3.0239">
        <ele>1233.99</ele>
        <time>2020-08-26T08:02:40Z</time>
      </trkpt>
      <trkpt lat="44.656" lon="3.02384">
        <ele>1233.51</ele>
        <time>2020-08-26T08:02:48Z</time>
      </trkpt>
      <trkpt lat="44.65591" lon="3.02367">
        <ele>1234.47</ele>
        <time>2020-08-26T08:03:05Z</time>
      </trkpt>
      <trkpt lat="44.65581" lon="3.02349">
        <ele>1236.39</ele>
        <time>2020-08-26T08:03:23Z</time>
      </trkpt>
      <trkpt lat="44.65581" lon="3.02347">
        <ele>1236.39</ele>
        <time>2020-08-26T08:03:24Z</time>
      </trkpt>
      <trkpt lat="44.65575" lon="3.02329">
        <ele>1237.83</ele>
        <time>2020-08-26T08:03:40Z</time>
      </trkpt>
      <trkpt lat="44.65574" lon="3.02318">
        <ele>1237.83</ele>
        <time>2020-08-26T08:03:53Z</time>
      </trkpt>
      <trkpt lat="44.65574" lon="3.023">
        <ele>1238.8</ele>
        <time>2020-08-26T08:04:09Z</time>
      </trkpt>
      <trkpt lat="44.65574" lon="3.0228">
        <ele>1239.28</ele>
        <time>2020-08-26T08:04:24Z</time>
      </trkpt>
      <trkpt lat="44.65572" lon="3.02266">
        <ele>1239.28</ele>
        <time>2020-08-26T08:04:37Z</time>
      </trkpt>
      <trkpt lat="44.65571" lon="3.02245">
        <ele>1239.28</ele>
        <time>2020-08-26T08:04:50Z</time>
      </trkpt>
      <trkpt lat="44.65571" lon="3.02221">
        <ele>1237.83</ele>
        <time>2020-08-26T08:05:05Z</time>
      </trkpt>
      <trkpt lat="44.65569" lon="3.02202">
        <ele>1237.83</ele>
        <time>2020-08-26T08:05:18Z</time>
      </trkpt>
      <trkpt lat="44.65565" lon="3.02181">
        <ele>1236.39</ele>
        <time>2020-08-26T08:05:32Z</time>
      </trkpt>
      <trkpt lat="44.65562" lon="3.02157">
        <ele>1235.91</ele>
        <time>2020-08-26T08:05:46Z</time>
      </trkpt>
      <trkpt lat="44.65563" lon="3.02135">
        <ele>1235.43</ele>
        <time>2020-08-26T08:06:01Z</time>
      </trkpt>
      <trkpt lat="44.65568" lon="3.02112">
        <ele>1234.47</ele>
        <time>2020-08-26T08:06:17Z</time>
      </trkpt>
      <trkpt lat="44.65569" lon="3.02107">
        <ele>1234.47</ele>
        <time>2020-08-26T08:06:20Z</time>
      </trkpt>
      <trkpt lat="44.65576" lon="3.02079">
        <ele>1233.51</ele>
        <time>2020-08-26T08:06:39Z</time>
      </trkpt>
      <trkpt lat="44.65584" lon="3.02058">
        <ele>1233.51</ele>
        <time>2020-08-26T08:06:55Z</time>
      </trkpt>
      <trkpt lat="44.65591" lon="3.02033">
        <ele>1232.55</ele>
        <time>2020-08-26T08:07:13Z</time>
      </trkpt>
      <trkpt lat="44.65589" lon="3.02027">
        <ele>1232.55</ele>
        <time>2020-08-26T08:07:29Z</time>
      </trkpt>
      <trkpt lat="44.65588" lon="3.02025">
        <ele>1232.07</ele>
        <time>2020-08-26T08:07:46Z</time>
      </trkpt>
      <trkpt lat="44.6559" lon="3.02026">
        <ele>1232.07</ele>
        <time>2020-08-26T08:08:13Z</time>
      </trkpt>
      <trkpt lat="44.6559" lon="3.0203">
        <ele>1232.07</ele>
        <time>2020-08-26T08:08:49Z</time>
      </trkpt>
      <trkpt lat="44.65597" lon="3.02031">
        <ele>1232.07</ele>
        <time>2020-08-26T08:09:25Z</time>
      </trkpt>
      <trkpt lat="44.65593" lon="3.02029">
        <ele>1232.07</ele>
        <time>2020-08-26T08:09:55Z</time>
      </trkpt>
      <trkpt lat="44.6559" lon="3.02029">
        <ele>1232.55</ele>
        <time>2020-08-26T08:10:25Z</time>
      </trkpt>
      <trkpt lat="44.65592" lon="3.02032">
        <ele>1232.55</ele>
        <time>2020-08-26T08:10:56Z</time>
      </trkpt>
      <trkpt lat="44.65593" lon="3.02032">
        <ele>1232.55</ele>
        <time>2020-08-26T08:11:29Z</time>
      </trkpt>
      <trkpt lat="44.65595" lon="3.0203">
        <ele>1232.07</ele>
        <time>2020-08-26T08:11:57Z</time>
      </trkpt>
      <trkpt lat="44.65589" lon="3.02029">
        <ele>1233.51</ele>
        <time>2020-08-26T08:12:24Z</time>
      </trkpt>
      <trkpt lat="44.65595" lon="3.02029">
        <ele>1233.51</ele>
        <time>2020-08-26T08:12:58Z</time>
      </trkpt>
      <trkpt lat="44.656" lon="3.02029">
        <ele>1232.55</ele>
        <time>2020-08-26T08:13:45Z</time>
      </trkpt>
      <trkpt lat="44.6559" lon="3.0203">
        <ele>1232.55</ele>
        <time>2020-08-26T08:14:31Z</time>
      </trkpt>
      <trkpt lat="44.65586" lon="3.02035">
        <ele>1234.47</ele>
        <time>2020-08-26T08:14:46Z</time>
      </trkpt>
      <trkpt lat="44.65587" lon="3.02031">
        <ele>1234.47</ele>
        <time>2020-08-26T08:15:07Z</time>
      </trkpt>
      <trkpt lat="44.65586" lon="3.02029">
        <ele>1234.47</ele>
        <time>2020-08-26T08:15:32Z</time>
      </trkpt>
      <trkpt lat="44.65587" lon="3.02032">
        <ele>1234.47</ele>
        <time>2020-08-26T08:16:00Z</time>
      </trkpt>
      <trkpt lat="44.65585" lon="3.02035">
        <ele>1234.47</ele>
        <time>2020-08-26T08:16:30Z</time>
      </trkpt>
      <trkpt lat="44.65582" lon="3.02033">
        <ele>1234.47</ele>
        <time>2020-08-26T08:16:58Z</time>
      </trkpt>
      <trkpt lat="44.65586" lon="3.02029">
        <ele>1234.47</ele>
        <time>2020-08-26T08:17:34Z</time>
      </trkpt>
      <trkpt lat="44.65586" lon="3.02035">
        <ele>1234.47</ele>
        <time>2020-08-26T08:17:59Z</time>
      </trkpt>
      <trkpt lat="44.65586" lon="3.02037">
        <ele>1234.47</ele>
        <time>2020-08-26T08:18:26Z</time>
      </trkpt>
      <trkpt lat="44.65585" lon="3.02039">
        <ele>1234.47</ele>
        <time>2020-08-26T08:18:55Z</time>
      </trkpt>
      <trkpt lat="44.65585" lon="3.02037">
        <ele>1234.47</ele>
        <time>2020-08-26T08:19:29Z</time>
      </trkpt>
      <trkpt lat="44.65583" lon="3.02038">
        <ele>1233.51</ele>
        <time>2020-08-26T08:19:57Z</time>
      </trkpt>
      <trkpt lat="44.65585" lon="3.02035">
        <ele>1233.51</ele>
        <time>2020-08-26T08:20:24Z</time>
      </trkpt>
      <trkpt lat="44.65584" lon="3.02035">
        <ele>1233.51</ele>
        <time>2020-08-26T08:20:45Z</time>
      </trkpt>
      <trkpt lat="44.65588" lon="3.02028">
        <ele>1233.03</ele>
        <time>2020-08-26T08:21:10Z</time>
      </trkpt>
      <trkpt lat="44.6559" lon="3.02029">
        <ele>1233.99</ele>
        <time>2020-08-26T08:21:29Z</time>
      </trkpt>
      <trkpt lat="44.6559" lon="3.02028">
        <ele>1233.03</ele>
        <time>2020-08-26T08:21:32Z</time>
      </trkpt>
      <trkpt lat="44.65586" lon="3.02027">
        <ele>1233.03</ele>
        <time>2020-08-26T08:21:53Z</time>
      </trkpt>
      <trkpt lat="44.65584" lon="3.02026">
        <ele>1232.55</ele>
        <time>2020-08-26T08:22:16Z</time>
      </trkpt>
      <trkpt lat="44.65584" lon="3.02027">
        <ele>1233.51</ele>
        <time>2020-08-26T08:22:38Z</time>
      </trkpt>
      <trkpt lat="44.65588" lon="3.02026">
        <ele>1233.51</ele>
        <time>2020-08-26T08:23:03Z</time>
      </trkpt>
      <trkpt lat="44.65588" lon="3.02026">
        <ele>1233.51</ele>
        <time>2020-08-26T08:23:19Z</time>
      </trkpt>
      <trkpt lat="44.65589" lon="3.02031">
        <ele>1233.51</ele>
        <time>2020-08-26T08:23:38Z</time>
      </trkpt>
      <trkpt lat="44.65587" lon="3.02032">
        <ele>1232.07</ele>
        <time>2020-08-26T08:23:46Z</time>
      </trkpt>
      <trkpt lat="44.65587" lon="3.02035">
        <ele>1232.07</ele>
        <time>2020-08-26T08:24:06Z</time>
      </trkpt>
      <trkpt lat="44.65588" lon="3.02035">
        <ele>1232.07</ele>
        <time>2020-08-26T08:24:38Z</time>
      </trkpt>
      <trkpt lat="44.65589" lon="3.02032">
        <ele>1232.07</ele>
        <time>2020-08-26T08:25:03Z</time>
      </trkpt>
      <trkpt lat="44.65591" lon="3.02024">
        <ele>1232.07</ele>
        <time>2020-08-26T08:25:25Z</time>
      </trkpt>
      <trkpt lat="44.65589" lon="3.02008">
        <ele>1232.07</ele>
        <time>2020-08-26T08:25:41Z</time>
      </trkpt>
      <trkpt lat="44.65578" lon="3.01966">
        <ele>1230.62</ele>
        <time>2020-08-26T08:26:06Z</time>
      </trkpt>
      <trkpt lat="44.65568" lon="3.0194">
        <ele>1229.66</ele>
        <time>2020-08-26T08:26:23Z</time>
      </trkpt>
      <trkpt lat="44.65562" lon="3.01924">
        <ele>1228.7</ele>
        <time>2020-08-26T08:26:38Z</time>
      </trkpt>
      <trkpt lat="44.65554" lon="3.01904">
        <ele>1227.26</ele>
        <time>2020-08-26T08:26:53Z</time>
      </trkpt>
      <trkpt lat="44.65551" lon="3.01888">
        <ele>1227.26</ele>
        <time>2020-08-26T08:27:06Z</time>
      </trkpt>
      <trkpt lat="44.6555" lon="3.01868">
        <ele>1226.3</ele>
        <time>2020-08-26T08:27:20Z</time>
      </trkpt>
      <trkpt lat="44.65548" lon="3.01853">
        <ele>1225.34</ele>
        <time>2020-08-26T08:27:28Z</time>
      </trkpt>
      <trkpt lat="44.65541" lon="3.01826">
        <ele>1223.42</ele>
        <time>2020-08-26T08:27:46Z</time>
      </trkpt>
      <trkpt lat="44.65538" lon="3.01796">
        <ele>1222.45</ele>
        <time>2020-08-26T08:28:05Z</time>
      </trkpt>
      <trkpt lat="44.65538" lon="3.0179">
        <ele>1222.45</ele>
        <time>2020-08-26T08:28:08Z</time>
      </trkpt>
      <trkpt lat="44.65536" lon="3.01786">
        <ele>1222.45</ele>
        <time>2020-08-26T08:28:11Z</time>
      </trkpt>
      <trkpt lat="44.65535" lon="3.01753">
        <ele>1221.97</ele>
        <time>2020-08-26T08:28:31Z</time>
      </trkpt>
      <trkpt lat="44.65535" lon="3.01725">
        <ele>1221.01</ele>
        <time>2020-08-26T08:28:49Z</time>
      </trkpt>
      <trkpt lat="44.65535" lon="3.01701">
        <ele>1219.57</ele>
        <time>2020-08-26T08:29:09Z</time>
      </trkpt>
      <trkpt lat="44.65535" lon="3.01673">
        <ele>1219.09</ele>
        <time>2020-08-26T08:29:29Z</time>
      </trkpt>
      <trkpt lat="44.6552" lon="3.01637">
        <ele>1217.65</ele>
        <time>2020-08-26T08:29:50Z</time>
      </trkpt>
      <trkpt lat="44.65502" lon="3.01607">
        <ele>1216.69</ele>
        <time>2020-08-26T08:30:12Z</time>
      </trkpt>
      <trkpt lat="44.65488" lon="3.01584">
        <ele>1216.21</ele>
        <time>2020-08-26T08:30:33Z</time>
      </trkpt>
      <trkpt lat="44.65492" lon="3.01581">
        <ele>1216.21</ele>
        <time>2020-08-26T08:30:58Z</time>
      </trkpt>
      <trkpt lat="44.65486" lon="3.01576">
        <ele>1215.72</ele>
        <time>2020-08-26T08:31:30Z</time>
      </trkpt>
      <trkpt lat="44.65473" lon="3.01551">
        <ele>1213.8</ele>
        <time>2020-08-26T08:31:55Z</time>
      </trkpt>
      <trkpt lat="44.65466" lon="3.01516">
        <ele>1212.84</ele>
        <time>2020-08-26T08:32:16Z</time>
      </trkpt>
      <trkpt lat="44.65457" lon="3.01486">
        <ele>1211.88</ele>
        <time>2020-08-26T08:32:37Z</time>
      </trkpt>
      <trkpt lat="44.65453" lon="3.01474">
        <ele>1212.84</ele>
        <time>2020-08-26T08:32:57Z</time>
      </trkpt>
      <trkpt lat="44.65459" lon="3.01454">
        <ele>1211.88</ele>
        <time>2020-08-26T08:33:21Z</time>
      </trkpt>
      <trkpt lat="44.65469" lon="3.01421">
        <ele>1210.92</ele>
        <time>2020-08-26T08:33:44Z</time>
      </trkpt>
      <trkpt lat="44.65481" lon="3.01403">
        <ele>1210.92</ele>
        <time>2020-08-26T08:34:05Z</time>
      </trkpt>
      <trkpt lat="44.65479" lon="3.01402">
        <ele>1210.92</ele>
        <time>2020-08-26T08:34:26Z</time>
      </trkpt>
      <trkpt lat="44.65481" lon="3.01397">
        <ele>1210.44</ele>
        <time>2020-08-26T08:34:57Z</time>
      </trkpt>
      <trkpt lat="44.65478" lon="3.01373">
        <ele>1210.44</ele>
        <time>2020-08-26T08:35:16Z</time>
      </trkpt>
      <trkpt lat="44.65472" lon="3.01356">
        <ele>1211.88</ele>
        <time>2020-08-26T08:35:31Z</time>
      </trkpt>
      <trkpt lat="44.65464" lon="3.01328">
        <ele>1214.28</ele>
        <time>2020-08-26T08:35:54Z</time>
      </trkpt>
      <trkpt lat="44.65457" lon="3.01305">
        <ele>1216.21</ele>
        <time>2020-08-26T08:36:12Z</time>
      </trkpt>
      <trkpt lat="44.65451" lon="3.01283">
        <ele>1217.65</ele>
        <time>2020-08-26T08:36:31Z</time>
      </trkpt>
      <trkpt lat="44.65444" lon="3.01253">
        <ele>1220.05</ele>
        <time>2020-08-26T08:36:54Z</time>
      </trkpt>
      <trkpt lat="44.65437" lon="3.01228">
        <ele>1221.49</ele>
        <time>2020-08-26T08:37:15Z</time>
      </trkpt>
      <trkpt lat="44.6543" lon="3.01205">
        <ele>1223.42</ele>
        <time>2020-08-26T08:37:37Z</time>
      </trkpt>
      <trkpt lat="44.65421" lon="3.01187">
        <ele>1226.3</ele>
        <time>2020-08-26T08:37:57Z</time>
      </trkpt>
      <trkpt lat="44.65413" lon="3.01169">
        <ele>1227.26</ele>
        <time>2020-08-26T08:38:14Z</time>
      </trkpt>
      <trkpt lat="44.65412" lon="3.01168">
        <ele>1227.26</ele>
        <time>2020-08-26T08:38:15Z</time>
      </trkpt>
      <trkpt lat="44.65411" lon="3.01166">
        <ele>1227.26</ele>
        <time>2020-08-26T08:38:17Z</time>
      </trkpt>
      <trkpt lat="44.65405" lon="3.01155">
        <ele>1228.22</ele>
        <time>2020-08-26T08:38:28Z</time>
      </trkpt>
      <trkpt lat="44.65393" lon="3.01134">
        <ele>1229.18</ele>
        <time>2020-08-26T08:38:48Z</time>
      </trkpt>
      <trkpt lat="44.6539" lon="3.01126">
        <ele>1229.18</ele>
        <time>2020-08-26T08:38:54Z</time>
      </trkpt>
      <trkpt lat="44.65386" lon="3.01116">
        <ele>1229.66</ele>
        <time>2020-08-26T08:39:02Z</time>
      </trkpt>
      <trkpt lat="44.6538" lon="3.0109">
        <ele>1230.14</ele>
        <time>2020-08-26T08:39:22Z</time>
      </trkpt>
      <trkpt lat="44.65376" lon="3.01066">
        <ele>1231.11</ele>
        <time>2020-08-26T08:39:41Z</time>
      </trkpt>
      <trkpt lat="44.65378" lon="3.01051">
        <ele>1232.55</ele>
        <time>2020-08-26T08:39:59Z</time>
      </trkpt>
      <trkpt lat="44.65376" lon="3.01049">
        <ele>1232.55</ele>
        <time>2020-08-26T08:40:14Z</time>
      </trkpt>
      <trkpt lat="44.65379" lon="3.01037">
        <ele>1232.55</ele>
        <time>2020-08-26T08:40:27Z</time>
      </trkpt>
      <trkpt lat="44.65382" lon="3.01017">
        <ele>1234.47</ele>
        <time>2020-08-26T08:40:46Z</time>
      </trkpt>
      <trkpt lat="44.65383" lon="3.00997">
        <ele>1236.39</ele>
        <time>2020-08-26T08:41:03Z</time>
      </trkpt>
      <trkpt lat="44.65386" lon="3.00976">
        <ele>1237.83</ele>
        <time>2020-08-26T08:41:22Z</time>
      </trkpt>
      <trkpt lat="44.65389" lon="3.00954">
        <ele>1240.24</ele>
        <time>2020-08-26T08:41:42Z</time>
      </trkpt>
      <trkpt lat="44.65392" lon="3.0094">
        <ele>1241.2</ele>
        <time>2020-08-26T08:41:56Z</time>
      </trkpt>
      <trkpt lat="44.65396" lon="3.00918">
        <ele>1242.64</ele>
        <time>2020-08-26T08:42:15Z</time>
      </trkpt>
      <trkpt lat="44.65394" lon="3.009">
        <ele>1244.56</ele>
        <time>2020-08-26T08:42:30Z</time>
      </trkpt>
      <trkpt lat="44.65397" lon="3.00881">
        <ele>1246.01</ele>
        <time>2020-08-26T08:42:47Z</time>
      </trkpt>
      <trkpt lat="44.65404" lon="3.00866">
        <ele>1248.41</ele>
        <time>2020-08-26T08:43:06Z</time>
      </trkpt>
      <trkpt lat="44.65407" lon="3.00853">
        <ele>1249.85</ele>
        <time>2020-08-26T08:43:21Z</time>
      </trkpt>
      <trkpt lat="44.65406" lon="3.00836">
        <ele>1253.22</ele>
        <time>2020-08-26T08:43:38Z</time>
      </trkpt>
      <trkpt lat="44.65405" lon="3.0082">
        <ele>1254.18</ele>
        <time>2020-08-26T08:43:54Z</time>
      </trkpt>
      <trkpt lat="44.65402" lon="3.00803">
        <ele>1255.62</ele>
        <time>2020-08-26T08:44:11Z</time>
      </trkpt>
      <trkpt lat="44.65401" lon="3.00788">
        <ele>1258.5</ele>
        <time>2020-08-26T08:44:26Z</time>
      </trkpt>
      <trkpt lat="44.65397" lon="3.00769">
        <ele>1260.43</ele>
        <time>2020-08-26T08:44:42Z</time>
      </trkpt>
      <trkpt lat="44.654" lon="3.0075">
        <ele>1261.87</ele>
        <time>2020-08-26T08:45:00Z</time>
      </trkpt>
      <trkpt lat="44.65399" lon="3.00741">
        <ele>1263.79</ele>
        <time>2020-08-26T08:45:11Z</time>
      </trkpt>
      <trkpt lat="44.654" lon="3.00737">
        <ele>1263.79</ele>
        <time>2020-08-26T08:45:28Z</time>
      </trkpt>
      <trkpt lat="44.65398" lon="3.00738">
        <ele>1263.79</ele>
        <time>2020-08-26T08:45:49Z</time>
      </trkpt>
      <trkpt lat="44.65394" lon="3.00726">
        <ele>1264.27</ele>
        <time>2020-08-26T08:46:04Z</time>
      </trkpt>
      <trkpt lat="44.65393" lon="3.00725">
        <ele>1264.27</ele>
        <time>2020-08-26T08:46:06Z</time>
      </trkpt>
      <trkpt lat="44.65391" lon="3.00721">
        <ele>1264.27</ele>
        <time>2020-08-26T08:46:09Z</time>
      </trkpt>
      <trkpt lat="44.65382" lon="3.00704">
        <ele>1265.23</ele>
        <time>2020-08-26T08:46:26Z</time>
      </trkpt>
      <trkpt lat="44.65373" lon="3.00685">
        <ele>1265.71</ele>
        <time>2020-08-26T08:46:42Z</time>
      </trkpt>
      <trkpt lat="44.65363" lon="3.00668">
        <ele>1265.71</ele>
        <time>2020-08-26T08:46:59Z</time>
      </trkpt>
      <trkpt lat="44.65359" lon="3.00659">
        <ele>1265.71</ele>
        <time>2020-08-26T08:47:19Z</time>
      </trkpt>
      <trkpt lat="44.65349" lon="3.00641">
        <ele>1266.19</ele>
        <time>2020-08-26T08:47:35Z</time>
      </trkpt>
      <trkpt lat="44.65345" lon="3.00632">
        <ele>1266.19</ele>
        <time>2020-08-26T08:47:43Z</time>
      </trkpt>
      <trkpt lat="44.65332" lon="3.00615">
        <ele>1266.19</ele>
        <time>2020-08-26T08:48:01Z</time>
      </trkpt>
      <trkpt lat="44.65324" lon="3.00607">
        <ele>1266.19</ele>
        <time>2020-08-26T08:48:11Z</time>
      </trkpt>
      <trkpt lat="44.65317" lon="3.00602">
        <ele>1264.75</ele>
        <time>2020-08-26T08:48:19Z</time>
      </trkpt>
      <trkpt lat="44.65315" lon="3.006">
        <ele>1264.75</ele>
        <time>2020-08-26T08:48:21Z</time>
      </trkpt>
      <trkpt lat="44.65298" lon="3.0059">
        <ele>1264.75</ele>
        <time>2020-08-26T08:48:39Z</time>
      </trkpt>
      <trkpt lat="44.65279" lon="3.00583">
        <ele>1266.19</ele>
        <time>2020-08-26T08:48:58Z</time>
      </trkpt>
      <trkpt lat="44.6526" lon="3.00581">
        <ele>1266.67</ele>
        <time>2020-08-26T08:49:17Z</time>
      </trkpt>
      <trkpt lat="44.65255" lon="3.0058">
        <ele>1267.16</ele>
        <time>2020-08-26T08:49:35Z</time>
      </trkpt>
      <trkpt lat="44.65253" lon="3.0058">
        <ele>1267.16</ele>
        <time>2020-08-26T08:49:56Z</time>
      </trkpt>
      <trkpt lat="44.65253" lon="3.0058">
        <ele>1267.64</ele>
        <time>2020-08-26T08:50:25Z</time>
      </trkpt>
      <trkpt lat="44.65237" lon="3.00583">
        <ele>1268.6</ele>
        <time>2020-08-26T08:50:42Z</time>
      </trkpt>
      <trkpt lat="44.65234" lon="3.00583">
        <ele>1267.16</ele>
        <time>2020-08-26T08:50:45Z</time>
      </trkpt>
      <trkpt lat="44.65221" lon="3.00589">
        <ele>1267.16</ele>
        <time>2020-08-26T08:51:01Z</time>
      </trkpt>
      <trkpt lat="44.65216" lon="3.00594">
        <ele>1267.16</ele>
        <time>2020-08-26T08:51:17Z</time>
      </trkpt>
      <trkpt lat="44.65213" lon="3.00595">
        <ele>1266.67</ele>
        <time>2020-08-26T08:51:45Z</time>
      </trkpt>
      <trkpt lat="44.65211" lon="3.00594">
        <ele>1266.67</ele>
        <time>2020-08-26T08:52:03Z</time>
      </trkpt>
      <trkpt lat="44.652" lon="3.00587">
        <ele>1268.6</ele>
        <time>2020-08-26T08:52:20Z</time>
      </trkpt>
      <trkpt lat="44.65181" lon="3.0058">
        <ele>1270.04</ele>
        <time>2020-08-26T08:52:41Z</time>
      </trkpt>
      <trkpt lat="44.65166" lon="3.00574">
        <ele>1271</ele>
        <time>2020-08-26T08:52:58Z</time>
      </trkpt>
      <trkpt lat="44.65154" lon="3.00571">
        <ele>1273.4</ele>
        <time>2020-08-26T08:53:14Z</time>
      </trkpt>
      <trkpt lat="44.65139" lon="3.00569">
        <ele>1275.81</ele>
        <time>2020-08-26T08:53:31Z</time>
      </trkpt>
      <trkpt lat="44.65133" lon="3.00566">
        <ele>1276.29</ele>
        <time>2020-08-26T08:53:48Z</time>
      </trkpt>
      <trkpt lat="44.6512" lon="3.00569">
        <ele>1276.77</ele>
        <time>2020-08-26T08:54:03Z</time>
      </trkpt>
      <trkpt lat="44.651" lon="3.00571">
        <ele>1277.25</ele>
        <time>2020-08-26T08:54:22Z</time>
      </trkpt>
      <trkpt lat="44.65081" lon="3.00573">
        <ele>1277.73</ele>
        <time>2020-08-26T08:54:42Z</time>
      </trkpt>
      <trkpt lat="44.65066" lon="3.00574">
        <ele>1279.65</ele>
        <time>2020-08-26T08:54:58Z</time>
      </trkpt>
      <trkpt lat="44.65045" lon="3.00575">
        <ele>1280.61</ele>
        <time>2020-08-26T08:55:19Z</time>
      </trkpt>
      <trkpt lat="44.65028" lon="3.00575">
        <ele>1281.57</ele>
        <time>2020-08-26T08:55:37Z</time>
      </trkpt>
      <trkpt lat="44.65009" lon="3.00571">
        <ele>1282.06</ele>
        <time>2020-08-26T08:55:56Z</time>
      </trkpt>
      <trkpt lat="44.64993" lon="3.0056">
        <ele>1283.02</ele>
        <time>2020-08-26T08:56:15Z</time>
      </trkpt>
      <trkpt lat="44.64982" lon="3.00543">
        <ele>1283.5</ele>
        <time>2020-08-26T08:56:33Z</time>
      </trkpt>
      <trkpt lat="44.6497" lon="3.00528">
        <ele>1284.46</ele>
        <time>2020-08-26T08:56:48Z</time>
      </trkpt>
      <trkpt lat="44.64966" lon="3.00522">
        <ele>1284.46</ele>
        <time>2020-08-26T08:56:54Z</time>
      </trkpt>
      <trkpt lat="44.64954" lon="3.00501">
        <ele>1284.94</ele>
        <time>2020-08-26T08:57:13Z</time>
      </trkpt>
      <trkpt lat="44.64948" lon="3.00487">
        <ele>1284.94</ele>
        <time>2020-08-26T08:57:24Z</time>
      </trkpt>
      <trkpt lat="44.6494" lon="3.00465">
        <ele>1285.42</ele>
        <time>2020-08-26T08:57:42Z</time>
      </trkpt>
      <trkpt lat="44.64936" lon="3.00453">
        <ele>1285.42</ele>
        <time>2020-08-26T08:57:51Z</time>
      </trkpt>
      <trkpt lat="44.64929" lon="3.00427">
        <ele>1285.42</ele>
        <time>2020-08-26T08:58:10Z</time>
      </trkpt>
      <trkpt lat="44.64926" lon="3.00415">
        <ele>1285.42</ele>
        <time>2020-08-26T08:58:18Z</time>
      </trkpt>
      <trkpt lat="44.6492" lon="3.00391">
        <ele>1286.38</ele>
        <time>2020-08-26T08:58:36Z</time>
      </trkpt>
      <trkpt lat="44.64917" lon="3.00377">
        <ele>1286.38</ele>
        <time>2020-08-26T08:58:46Z</time>
      </trkpt>
      <trkpt lat="44.64909" lon="3.0035">
        <ele>1286.86</ele>
        <time>2020-08-26T08:59:05Z</time>
      </trkpt>
      <trkpt lat="44.64909" lon="3.00348">
        <ele>1285.9</ele>
        <time>2020-08-26T08:59:07Z</time>
      </trkpt>
      <trkpt lat="44.64902" lon="3.00319">
        <ele>1285.9</ele>
        <time>2020-08-26T08:59:27Z</time>
      </trkpt>
      <trkpt lat="44.64894" lon="3.00292">
        <ele>1285.9</ele>
        <time>2020-08-26T08:59:47Z</time>
      </trkpt>
      <trkpt lat="44.64893" lon="3.00289">
        <ele>1286.86</ele>
        <time>2020-08-26T08:59:49Z</time>
      </trkpt>
      <trkpt lat="44.64885" lon="3.00264">
        <ele>1287.34</ele>
        <time>2020-08-26T09:00:10Z</time>
      </trkpt>
      <trkpt lat="44.64883" lon="3.00259">
        <ele>1287.34</ele>
        <time>2020-08-26T09:00:25Z</time>
      </trkpt>
      <trkpt lat="44.64882" lon="3.00244">
        <ele>1287.34</ele>
        <time>2020-08-26T09:00:39Z</time>
      </trkpt>
      <trkpt lat="44.64877" lon="3.0022">
        <ele>1287.82</ele>
        <time>2020-08-26T09:00:57Z</time>
      </trkpt>
      <trkpt lat="44.64873" lon="3.00193">
        <ele>1288.3</ele>
        <time>2020-08-26T09:01:16Z</time>
      </trkpt>
      <trkpt lat="44.6487" lon="3.00167">
        <ele>1288.3</ele>
        <time>2020-08-26T09:01:33Z</time>
      </trkpt>
      <trkpt lat="44.64867" lon="3.00142">
        <ele>1288.78</ele>
        <time>2020-08-26T09:01:50Z</time>
      </trkpt>
      <trkpt lat="44.64861" lon="3.00114">
        <ele>1287.34</ele>
        <time>2020-08-26T09:02:09Z</time>
      </trkpt>
      <trkpt lat="44.64858" lon="3.00086">
        <ele>1286.38</ele>
        <time>2020-08-26T09:02:29Z</time>
      </trkpt>
      <trkpt lat="44.64853" lon="3.00061">
        <ele>1284.46</ele>
        <time>2020-08-26T09:02:47Z</time>
      </trkpt>
      <trkpt lat="44.6485" lon="3.0005">
        <ele>1284.46</ele>
        <time>2020-08-26T09:02:56Z</time>
      </trkpt>
      <trkpt lat="44.64849" lon="3.00048">
        <ele>1283.98</ele>
        <time>2020-08-26T09:02:58Z</time>
      </trkpt>
      <trkpt lat="44.64844" lon="3.00017">
        <ele>1283.98</ele>
        <time>2020-08-26T09:03:19Z</time>
      </trkpt>
      <trkpt lat="44.6484" lon="2.99986">
        <ele>1283.98</ele>
        <time>2020-08-26T09:03:39Z</time>
      </trkpt>
      <trkpt lat="44.64842" lon="2.9995">
        <ele>1283.5</ele>
        <time>2020-08-26T09:04:03Z</time>
      </trkpt>
      <trkpt lat="44.64844" lon="2.99914">
        <ele>1284.94</ele>
        <time>2020-08-26T09:04:26Z</time>
      </trkpt>
      <trkpt lat="44.6485" lon="2.99892">
        <ele>1285.42</ele>
        <time>2020-08-26T09:04:44Z</time>
      </trkpt>
      <trkpt lat="44.64848" lon="2.99882">
        <ele>1285.42</ele>
        <time>2020-08-26T09:04:52Z</time>
      </trkpt>
      <trkpt lat="44.64841" lon="2.99859">
        <ele>1286.38</ele>
        <time>2020-08-26T09:05:10Z</time>
      </trkpt>
      <trkpt lat="44.64836" lon="2.99848">
        <ele>1285.42</ele>
        <time>2020-08-26T09:05:18Z</time>
      </trkpt>
      <trkpt lat="44.64833" lon="2.99842">
        <ele>1286.86</ele>
        <time>2020-08-26T09:05:24Z</time>
      </trkpt>
      <trkpt lat="44.64827" lon="2.99814">
        <ele>1286.86</ele>
        <time>2020-08-26T09:05:44Z</time>
      </trkpt>
      <trkpt lat="44.64826" lon="2.99782">
        <ele>1286.86</ele>
        <time>2020-08-26T09:06:06Z</time>
      </trkpt>
      <trkpt lat="44.64829" lon="2.99765">
        <ele>1288.3</ele>
        <time>2020-08-26T09:06:26Z</time>
      </trkpt>
      <trkpt lat="44.64828" lon="2.99757">
        <ele>1287.34</ele>
        <time>2020-08-26T09:06:38Z</time>
      </trkpt>
      <trkpt lat="44.64831" lon="2.99729">
        <ele>1287.34</ele>
        <time>2020-08-26T09:06:58Z</time>
      </trkpt>
      <trkpt lat="44.64833" lon="2.99703">
        <ele>1289.75</ele>
        <time>2020-08-26T09:07:17Z</time>
      </trkpt>
      <trkpt lat="44.64835" lon="2.99683">
        <ele>1290.71</ele>
        <time>2020-08-26T09:07:35Z</time>
      </trkpt>
      <trkpt lat="44.6484" lon="2.99656">
        <ele>1291.19</ele>
        <time>2020-08-26T09:07:57Z</time>
      </trkpt>
      <trkpt lat="44.64841" lon="2.99631">
        <ele>1291.67</ele>
        <time>2020-08-26T09:08:13Z</time>
      </trkpt>
      <trkpt lat="44.64846" lon="2.99602">
        <ele>1291.67</ele>
        <time>2020-08-26T09:08:33Z</time>
      </trkpt>
      <trkpt lat="44.64845" lon="2.99576">
        <ele>1292.63</ele>
        <time>2020-08-26T09:08:53Z</time>
      </trkpt>
      <trkpt lat="44.64847" lon="2.99547">
        <ele>1293.11</ele>
        <time>2020-08-26T09:09:13Z</time>
      </trkpt>
      <trkpt lat="44.64846" lon="2.99516">
        <ele>1292.15</ele>
        <time>2020-08-26T09:09:34Z</time>
      </trkpt>
      <trkpt lat="44.64844" lon="2.99485">
        <ele>1291.67</ele>
        <time>2020-08-26T09:09:54Z</time>
      </trkpt>
      <trkpt lat="44.64844" lon="2.99477">
        <ele>1293.11</ele>
        <time>2020-08-26T09:10:00Z</time>
      </trkpt>
      <trkpt lat="44.64844" lon="2.99452">
        <ele>1295.03</ele>
        <time>2020-08-26T09:10:18Z</time>
      </trkpt>
      <trkpt lat="44.64843" lon="2.9943">
        <ele>1296.48</ele>
        <time>2020-08-26T09:10:35Z</time>
      </trkpt>
      <trkpt lat="44.64841" lon="2.99401">
        <ele>1296.96</ele>
        <time>2020-08-26T09:10:55Z</time>
      </trkpt>
      <trkpt lat="44.64839" lon="2.99372">
        <ele>1297.92</ele>
        <time>2020-08-26T09:11:15Z</time>
      </trkpt>
      <trkpt lat="44.64837" lon="2.99348">
        <ele>1297.92</ele>
        <time>2020-08-26T09:11:32Z</time>
      </trkpt>
      <trkpt lat="44.64836" lon="2.99323">
        <ele>1296.96</ele>
        <time>2020-08-26T09:11:50Z</time>
      </trkpt>
      <trkpt lat="44.64833" lon="2.99298">
        <ele>1298.4</ele>
        <time>2020-08-26T09:12:09Z</time>
      </trkpt>
      <trkpt lat="44.64833" lon="2.99297">
        <ele>1298.4</ele>
        <time>2020-08-26T09:12:10Z</time>
      </trkpt>
      <trkpt lat="44.6483" lon="2.99282">
        <ele>1298.88</ele>
        <time>2020-08-26T09:12:23Z</time>
      </trkpt>
      <trkpt lat="44.64821" lon="2.99255">
        <ele>1298.88</ele>
        <time>2020-08-26T09:12:44Z</time>
      </trkpt>
      <trkpt lat="44.64821" lon="2.99238">
        <ele>1299.36</ele>
        <time>2020-08-26T09:13:00Z</time>
      </trkpt>
      <trkpt lat="44.64823" lon="2.99224">
        <ele>1299.84</ele>
        <time>2020-08-26T09:13:15Z</time>
      </trkpt>
      <trkpt lat="44.64823" lon="2.9922">
        <ele>1300.32</ele>
        <time>2020-08-26T09:13:19Z</time>
      </trkpt>
      <trkpt lat="44.64822" lon="2.99215">
        <ele>1300.8</ele>
        <time>2020-08-26T09:13:22Z</time>
      </trkpt>
      <trkpt lat="44.64819" lon="2.99194">
        <ele>1300.8</ele>
        <time>2020-08-26T09:13:37Z</time>
      </trkpt>
      <trkpt lat="44.64812" lon="2.99169">
        <ele>1300.8</ele>
        <time>2020-08-26T09:13:57Z</time>
      </trkpt>
      <trkpt lat="44.64807" lon="2.99151">
        <ele>1301.76</ele>
        <time>2020-08-26T09:14:13Z</time>
      </trkpt>
      <trkpt lat="44.64799" lon="2.99128">
        <ele>1302.24</ele>
        <time>2020-08-26T09:14:30Z</time>
      </trkpt>
      <trkpt lat="44.64788" lon="2.99103">
        <ele>1302.24</ele>
        <time>2020-08-26T09:14:51Z</time>
      </trkpt>
      <trkpt lat="44.64778" lon="2.99083">
        <ele>1303.69</ele>
        <time>2020-08-26T09:15:09Z</time>
      </trkpt>
      <trkpt lat="44.6477" lon="2.99063">
        <ele>1304.65</ele>
        <time>2020-08-26T09:15:27Z</time>
      </trkpt>
      <trkpt lat="44.64765" lon="2.99052">
        <ele>1305.61</ele>
        <time>2020-08-26T09:15:37Z</time>
      </trkpt>
      <trkpt lat="44.64754" lon="2.99037">
        <ele>1306.09</ele>
        <time>2020-08-26T09:15:54Z</time>
      </trkpt>
      <trkpt lat="44.64752" lon="2.99032">
        <ele>1306.09</ele>
        <time>2020-08-26T09:16:09Z</time>
      </trkpt>
      <trkpt lat="44.64753" lon="2.99031">
        <ele>1306.09</ele>
        <time>2020-08-26T09:16:30Z</time>
      </trkpt>
      <trkpt lat="44.64752" lon="2.99032">
        <ele>1306.09</ele>
        <time>2020-08-26T09:16:58Z</time>
      </trkpt>
      <trkpt lat="44.64752" lon="2.99032">
        <ele>1306.09</ele>
        <time>2020-08-26T09:17:28Z</time>
      </trkpt>
      <trkpt lat="44.64752" lon="2.99033">
        <ele>1306.57</ele>
        <time>2020-08-26T09:17:58Z</time>
      </trkpt>
      <trkpt lat="44.64752" lon="2.99031">
        <ele>1306.57</ele>
        <time>2020-08-26T09:18:17Z</time>
      </trkpt>
      <trkpt lat="44.64752" lon="2.99032">
        <ele>1306.57</ele>
        <time>2020-08-26T09:18:36Z</time>
      </trkpt>
      <trkpt lat="44.64752" lon="2.99032">
        <ele>1306.57</ele>
        <time>2020-08-26T09:18:55Z</time>
      </trkpt>
      <trkpt lat="44.64752" lon="2.99033">
        <ele>1306.57</ele>
        <time>2020-08-26T09:19:15Z</time>
      </trkpt>
      <trkpt lat="44.64752" lon="2.99033">
        <ele>1306.57</ele>
        <time>2020-08-26T09:19:35Z</time>
      </trkpt>
      <trkpt lat="44.64751" lon="2.99033">
        <ele>1307.05</ele>
        <time>2020-08-26T09:20:00Z</time>
      </trkpt>
      <trkpt lat="44.64751" lon="2.99033">
        <ele>1307.05</ele>
        <time>2020-08-26T09:20:32Z</time>
      </trkpt>
      <trkpt lat="44.64751" lon="2.99031">
        <ele>1307.05</ele>
        <time>2020-08-26T09:20:48Z</time>
      </trkpt>
      <trkpt lat="44.64752" lon="2.99032">
        <ele>1307.05</ele>
        <time>2020-08-26T09:21:09Z</time>
      </trkpt>
      <trkpt lat="44.64751" lon="2.99035">
        <ele>1307.05</ele>
        <time>2020-08-26T09:21:37Z</time>
      </trkpt>
      <trkpt lat="44.6475" lon="2.99034">
        <ele>1307.05</ele>
        <time>2020-08-26T09:21:58Z</time>
      </trkpt>
      <trkpt lat="44.64749" lon="2.99035">
        <ele>1307.05</ele>
        <time>2020-08-26T09:22:29Z</time>
      </trkpt>
      <trkpt lat="44.6475" lon="2.99035">
        <ele>1307.53</ele>
        <time>2020-08-26T09:23:13Z</time>
      </trkpt>
      <trkpt lat="44.64749" lon="2.99034">
        <ele>1307.53</ele>
        <time>2020-08-26T09:23:34Z</time>
      </trkpt>
      <trkpt lat="44.64749" lon="2.99034">
        <ele>1306.09</ele>
        <time>2020-08-26T09:23:47Z</time>
      </trkpt>
      <trkpt lat="44.64751" lon="2.99035">
        <ele>1306.09</ele>
        <time>2020-08-26T09:24:14Z</time>
      </trkpt>
      <trkpt lat="44.64749" lon="2.99038">
        <ele>1306.57</ele>
        <time>2020-08-26T09:24:41Z</time>
      </trkpt>
      <trkpt lat="44.6475" lon="2.99038">
        <ele>1306.57</ele>
        <time>2020-08-26T09:25:18Z</time>
      </trkpt>
      <trkpt lat="44.6475" lon="2.99034">
        <ele>1306.57</ele>
        <time>2020-08-26T09:25:54Z</time>
      </trkpt>
      <trkpt lat="44.64752" lon="2.99034">
        <ele>1306.57</ele>
        <time>2020-08-26T09:26:23Z</time>
      </trkpt>
      <trkpt lat="44.64751" lon="2.99036">
        <ele>1307.05</ele>
        <time>2020-08-26T09:27:01Z</time>
      </trkpt>
      <trkpt lat="44.64753" lon="2.99036">
        <ele>1307.05</ele>
        <time>2020-08-26T09:27:44Z</time>
      </trkpt>
      <trkpt lat="44.64751" lon="2.99036">
        <ele>1307.05</ele>
        <time>2020-08-26T09:28:24Z</time>
      </trkpt>
      <trkpt lat="44.64751" lon="2.99034">
        <ele>1308.49</ele>
        <time>2020-08-26T09:28:50Z</time>
      </trkpt>
      <trkpt lat="44.64752" lon="2.99033">
        <ele>1308.49</ele>
        <time>2020-08-26T09:29:30Z</time>
      </trkpt>
      <trkpt lat="44.64752" lon="2.99033">
        <ele>1308.49</ele>
        <time>2020-08-26T09:30:13Z</time>
      </trkpt>
      <trkpt lat="44.64752" lon="2.99033">
        <ele>1308.49</ele>
        <time>2020-08-26T09:30:39Z</time>
      </trkpt>
      <trkpt lat="44.64753" lon="2.99035">
        <ele>1308.49</ele>
        <time>2020-08-26T09:31:10Z</time>
      </trkpt>
      <trkpt lat="44.64752" lon="2.99036">
        <ele>1308.49</ele>
        <time>2020-08-26T09:31:37Z</time>
      </trkpt>
      <trkpt lat="44.6475" lon="2.99035">
        <ele>1308.49</ele>
        <time>2020-08-26T09:32:16Z</time>
      </trkpt>
      <trkpt lat="44.64751" lon="2.99036">
        <ele>1308.49</ele>
        <time>2020-08-26T09:32:52Z</time>
      </trkpt>
      <trkpt lat="44.64751" lon="2.99035">
        <ele>1308.97</ele>
        <time>2020-08-26T09:33:26Z</time>
      </trkpt>
      <trkpt lat="44.64752" lon="2.99034">
        <ele>1308.97</ele>
        <time>2020-08-26T09:34:14Z</time>
      </trkpt>
      <trkpt lat="44.64753" lon="2.99033">
        <ele>1308.97</ele>
        <time>2020-08-26T09:34:54Z</time>
      </trkpt>
      <trkpt lat="44.64751" lon="2.99032">
        <ele>1308.97</ele>
        <time>2020-08-26T09:35:23Z</time>
      </trkpt>
      <trkpt lat="44.6475" lon="2.99039">
        <ele>1308.97</ele>
        <time>2020-08-26T09:35:52Z</time>
      </trkpt>
      <trkpt lat="44.6475" lon="2.99039">
        <ele>1308.01</ele>
        <time>2020-08-26T09:36:21Z</time>
      </trkpt>
      <trkpt lat="44.64751" lon="2.99035">
        <ele>1308.01</ele>
        <time>2020-08-26T09:36:50Z</time>
      </trkpt>
      <trkpt lat="44.64752" lon="2.99032">
        <ele>1308.01</ele>
        <time>2020-08-26T09:37:20Z</time>
      </trkpt>
      <trkpt lat="44.64751" lon="2.99032">
        <ele>1308.97</ele>
        <time>2020-08-26T09:37:56Z</time>
      </trkpt>
      <trkpt lat="44.64751" lon="2.99035">
        <ele>1309.45</ele>
        <time>2020-08-26T09:38:26Z</time>
      </trkpt>
      <trkpt lat="44.64748" lon="2.99037">
        <ele>1309.45</ele>
        <time>2020-08-26T09:39:01Z</time>
      </trkpt>
      <trkpt lat="44.64752" lon="2.99033">
        <ele>1309.45</ele>
        <time>2020-08-26T09:39:41Z</time>
      </trkpt>
      <trkpt lat="44.64751" lon="2.99034">
        <ele>1309.45</ele>
        <time>2020-08-26T09:40:02Z</time>
      </trkpt>
      <trkpt lat="44.6475" lon="2.99035">
        <ele>1309.45</ele>
        <time>2020-08-26T09:40:26Z</time>
      </trkpt>
      <trkpt lat="44.64751" lon="2.99035">
        <ele>1309.45</ele>
        <time>2020-08-26T09:40:52Z</time>
      </trkpt>
      <trkpt lat="44.64751" lon="2.99034">
        <ele>1309.45</ele>
        <time>2020-08-26T09:41:26Z</time>
      </trkpt>
      <trkpt lat="44.64752" lon="2.99034">
        <ele>1308.49</ele>
        <time>2020-08-26T09:41:49Z</time>
      </trkpt>
      <trkpt lat="44.64751" lon="2.99033">
        <ele>1308.49</ele>
        <time>2020-08-26T09:42:11Z</time>
      </trkpt>
      <trkpt lat="44.64748" lon="2.99033">
        <ele>1308.01</ele>
        <time>2020-08-26T09:42:30Z</time>
      </trkpt>
      <trkpt lat="44.64745" lon="2.99031">
        <ele>1307.53</ele>
        <time>2020-08-26T09:42:46Z</time>
      </trkpt>
      <trkpt lat="44.64738" lon="2.99026">
        <ele>1307.53</ele>
        <time>2020-08-26T09:43:06Z</time>
      </trkpt>
      <trkpt lat="44.64728" lon="2.99018">
        <ele>1306.57</ele>
        <time>2020-08-26T09:43:21Z</time>
      </trkpt>
      <trkpt lat="44.64721" lon="2.99014">
        <ele>1306.09</ele>
        <time>2020-08-26T09:43:39Z</time>
      </trkpt>
      <trkpt lat="44.64719" lon="2.9901">
        <ele>1306.09</ele>
        <time>2020-08-26T09:43:57Z</time>
      </trkpt>
      <trkpt lat="44.64719" lon="2.99012">
        <ele>1306.09</ele>
        <time>2020-08-26T09:44:26Z</time>
      </trkpt>
      <trkpt lat="44.64717" lon="2.99008">
        <ele>1306.09</ele>
        <time>2020-08-26T09:44:49Z</time>
      </trkpt>
      <trkpt lat="44.64708" lon="2.98999">
        <ele>1305.61</ele>
        <time>2020-08-26T09:45:06Z</time>
      </trkpt>
      <trkpt lat="44.64698" lon="2.98995">
        <ele>1304.65</ele>
        <time>2020-08-26T09:45:23Z</time>
      </trkpt>
      <trkpt lat="44.64691" lon="2.9899">
        <ele>1304.65</ele>
        <time>2020-08-26T09:45:40Z</time>
      </trkpt>
      <trkpt lat="44.64686" lon="2.98982">
        <ele>1306.57</ele>
        <time>2020-08-26T09:45:56Z</time>
      </trkpt>
      <trkpt lat="44.64681" lon="2.98976">
        <ele>1308.01</ele>
        <time>2020-08-26T09:46:14Z</time>
      </trkpt>
      <trkpt lat="44.64676" lon="2.9897">
        <ele>1308.49</ele>
        <time>2020-08-26T09:46:30Z</time>
      </trkpt>
      <trkpt lat="44.64676" lon="2.98971">
        <ele>1309.45</ele>
        <time>2020-08-26T09:46:57Z</time>
      </trkpt>
      <trkpt lat="44.6467" lon="2.98976">
        <ele>1309.45</ele>
        <time>2020-08-26T09:47:25Z</time>
      </trkpt>
      <trkpt lat="44.64664" lon="2.98971">
        <ele>1308.49</ele>
        <time>2020-08-26T09:47:37Z</time>
      </trkpt>
      <trkpt lat="44.6465" lon="2.98964">
        <ele>1308.49</ele>
        <time>2020-08-26T09:47:58Z</time>
      </trkpt>
      <trkpt lat="44.64636" lon="2.98951">
        <ele>1307.53</ele>
        <time>2020-08-26T09:48:17Z</time>
      </trkpt>
      <trkpt lat="44.64623" lon="2.98943">
        <ele>1307.53</ele>
        <time>2020-08-26T09:48:35Z</time>
      </trkpt>
      <trkpt lat="44.64613" lon="2.98931">
        <ele>1308.01</ele>
        <time>2020-08-26T09:48:53Z</time>
      </trkpt>
      <trkpt lat="44.64608" lon="2.98919">
        <ele>1308.01</ele>
        <time>2020-08-26T09:49:10Z</time>
      </trkpt>
      <trkpt lat="44.64596" lon="2.98918">
        <ele>1308.01</ele>
        <time>2020-08-26T09:49:25Z</time>
      </trkpt>
      <trkpt lat="44.64592" lon="2.98918">
        <ele>1306.57</ele>
        <time>2020-08-26T09:49:30Z</time>
      </trkpt>
      <trkpt lat="44.64588" lon="2.98917">
        <ele>1306.09</ele>
        <time>2020-08-26T09:49:47Z</time>
      </trkpt>
      <trkpt lat="44.6459" lon="2.98917">
        <ele>1306.09</ele>
        <time>2020-08-26T09:50:15Z</time>
      </trkpt>
      <trkpt lat="44.64586" lon="2.9892">
        <ele>1306.09</ele>
        <time>2020-08-26T09:50:36Z</time>
      </trkpt>
      <trkpt lat="44.64578" lon="2.98916">
        <ele>1305.13</ele>
        <time>2020-08-26T09:50:53Z</time>
      </trkpt>
      <trkpt lat="44.64571" lon="2.98906">
        <ele>1304.65</ele>
        <time>2020-08-26T09:51:10Z</time>
      </trkpt>
      <trkpt lat="44.64568" lon="2.98904">
        <ele>1304.65</ele>
        <time>2020-08-26T09:51:13Z</time>
      </trkpt>
      <trkpt lat="44.64554" lon="2.98898">
        <ele>1303.2</ele>
        <time>2020-08-26T09:51:31Z</time>
      </trkpt>
      <trkpt lat="44.6455" lon="2.98894">
        <ele>1303.2</ele>
        <time>2020-08-26T09:51:45Z</time>
      </trkpt>
      <trkpt lat="44.64548" lon="2.9888">
        <ele>1302.72</ele>
        <time>2020-08-26T09:52:07Z</time>
      </trkpt>
      <trkpt lat="44.64548" lon="2.98877">
        <ele>1303.69</ele>
        <time>2020-08-26T09:52:12Z</time>
      </trkpt>
      <trkpt lat="44.6455" lon="2.98871">
        <ele>1305.13</ele>
        <time>2020-08-26T09:52:32Z</time>
      </trkpt>
      <trkpt lat="44.64549" lon="2.98872">
        <ele>1305.13</ele>
        <time>2020-08-26T09:53:04Z</time>
      </trkpt>
      <trkpt lat="44.64549" lon="2.98871">
        <ele>1305.61</ele>
        <time>2020-08-26T09:53:38Z</time>
      </trkpt>
      <trkpt lat="44.64541" lon="2.98878">
        <ele>1304.17</ele>
        <time>2020-08-26T09:53:56Z</time>
      </trkpt>
      <trkpt lat="44.64529" lon="2.98873">
        <ele>1302.72</ele>
        <time>2020-08-26T09:54:12Z</time>
      </trkpt>
      <trkpt lat="44.64524" lon="2.98874">
        <ele>1302.72</ele>
        <time>2020-08-26T09:54:17Z</time>
      </trkpt>
      <trkpt lat="44.64513" lon="2.9887">
        <ele>1302.72</ele>
        <time>2020-08-26T09:54:33Z</time>
      </trkpt>
      <trkpt lat="44.64502" lon="2.9887">
        <ele>1302.24</ele>
        <time>2020-08-26T09:54:47Z</time>
      </trkpt>
      <trkpt lat="44.64491" lon="2.9887">
        <ele>1302.24</ele>
        <time>2020-08-26T09:55:00Z</time>
      </trkpt>
      <trkpt lat="44.64475" lon="2.98872">
        <ele>1302.24</ele>
        <time>2020-08-26T09:55:18Z</time>
      </trkpt>
      <trkpt lat="44.64474" lon="2.98873">
        <ele>1302.24</ele>
        <time>2020-08-26T09:55:20Z</time>
      </trkpt>
      <trkpt lat="44.6446" lon="2.98873">
        <ele>1302.24</ele>
        <time>2020-08-26T09:55:36Z</time>
      </trkpt>
      <trkpt lat="44.6445" lon="2.98867">
        <ele>1302.24</ele>
        <time>2020-08-26T09:55:50Z</time>
      </trkpt>
      <trkpt lat="44.64438" lon="2.98859">
        <ele>1302.24</ele>
        <time>2020-08-26T09:56:06Z</time>
      </trkpt>
      <trkpt lat="44.64427" lon="2.98842">
        <ele>1304.17</ele>
        <time>2020-08-26T09:56:24Z</time>
      </trkpt>
      <trkpt lat="44.64427" lon="2.98824">
        <ele>1306.57</ele>
        <time>2020-08-26T09:56:42Z</time>
      </trkpt>
      <trkpt lat="44.64425" lon="2.98807">
        <ele>1308.49</ele>
        <time>2020-08-26T09:56:59Z</time>
      </trkpt>
      <trkpt lat="44.64427" lon="2.98787">
        <ele>1309.93</ele>
        <time>2020-08-26T09:57:16Z</time>
      </trkpt>
      <trkpt lat="44.64436" lon="2.98765">
        <ele>1312.82</ele>
        <time>2020-08-26T09:57:41Z</time>
      </trkpt>
      <trkpt lat="44.64437" lon="2.98744">
        <ele>1314.26</ele>
        <time>2020-08-26T09:58:00Z</time>
      </trkpt>
      <trkpt lat="44.64437" lon="2.98719">
        <ele>1315.7</ele>
        <time>2020-08-26T09:58:22Z</time>
      </trkpt>
      <trkpt lat="44.64438" lon="2.98715">
        <ele>1315.7</ele>
        <time>2020-08-26T09:58:25Z</time>
      </trkpt>
      <trkpt lat="44.64431" lon="2.98687">
        <ele>1315.7</ele>
        <time>2020-08-26T09:58:49Z</time>
      </trkpt>
      <trkpt lat="44.64426" lon="2.98676">
        <ele>1314.26</ele>
        <time>2020-08-26T09:59:00Z</time>
      </trkpt>
      <trkpt lat="44.64418" lon="2.98651">
        <ele>1312.34</ele>
        <time>2020-08-26T09:59:22Z</time>
      </trkpt>
      <trkpt lat="44.64413" lon="2.98638">
        <ele>1311.86</ele>
        <time>2020-08-26T09:59:39Z</time>
      </trkpt>
      <trkpt lat="44.64415" lon="2.9864">
        <ele>1311.86</ele>
        <time>2020-08-26T10:00:01Z</time>
      </trkpt>
      <trkpt lat="44.64402" lon="2.98642">
        <ele>1311.86</ele>
        <time>2020-08-26T10:00:19Z</time>
      </trkpt>
      <trkpt lat="44.64389" lon="2.98647">
        <ele>1311.86</ele>
        <time>2020-08-26T10:00:36Z</time>
      </trkpt>
      <trkpt lat="44.64373" lon="2.98653">
        <ele>1311.86</ele>
        <time>2020-08-26T10:00:54Z</time>
      </trkpt>
      <trkpt lat="44.64355" lon="2.98659">
        <ele>1311.86</ele>
        <time>2020-08-26T10:01:14Z</time>
      </trkpt>
      <trkpt lat="44.6435" lon="2.98661">
        <ele>1311.38</ele>
        <time>2020-08-26T10:01:20Z</time>
      </trkpt>
      <trkpt lat="44.64343" lon="2.98663">
        <ele>1311.38</ele>
        <time>2020-08-26T10:01:26Z</time>
      </trkpt>
      <trkpt lat="44.64328" lon="2.98671">
        <ele>1310.9</ele>
        <time>2020-08-26T10:01:45Z</time>
      </trkpt>
      <trkpt lat="44.64319" lon="2.98675">
        <ele>1310.9</ele>
        <time>2020-08-26T10:02:03Z</time>
      </trkpt>
      <trkpt lat="44.64319" lon="2.98674">
        <ele>1310.9</ele>
        <time>2020-08-26T10:02:36Z</time>
      </trkpt>
      <trkpt lat="44.64319" lon="2.98674">
        <ele>1310.9</ele>
        <time>2020-08-26T10:03:08Z</time>
      </trkpt>
      <trkpt lat="44.6432" lon="2.98672">
        <ele>1310.9</ele>
        <time>2020-08-26T10:03:38Z</time>
      </trkpt>
      <trkpt lat="44.64319" lon="2.98675">
        <ele>1310.9</ele>
        <time>2020-08-26T10:04:20Z</time>
      </trkpt>
      <trkpt lat="44.6432" lon="2.98676">
        <ele>1310.9</ele>
        <time>2020-08-26T10:04:42Z</time>
      </trkpt>
      <trkpt lat="44.64313" lon="2.98676">
        <ele>1310.9</ele>
        <time>2020-08-26T10:05:02Z</time>
      </trkpt>
      <trkpt lat="44.6431" lon="2.98682">
        <ele>1310.9</ele>
        <time>2020-08-26T10:05:15Z</time>
      </trkpt>
      <trkpt lat="44.64311" lon="2.98683">
        <ele>1311.38</ele>
        <time>2020-08-26T10:05:37Z</time>
      </trkpt>
      <trkpt lat="44.64309" lon="2.98681">
        <ele>1311.38</ele>
        <time>2020-08-26T10:06:16Z</time>
      </trkpt>
      <trkpt lat="44.64309" lon="2.98683">
        <ele>1311.38</ele>
        <time>2020-08-26T10:06:54Z</time>
      </trkpt>
      <trkpt lat="44.64311" lon="2.98683">
        <ele>1311.38</ele>
        <time>2020-08-26T10:07:24Z</time>
      </trkpt>
      <trkpt lat="44.64312" lon="2.98679">
        <ele>1311.38</ele>
        <time>2020-08-26T10:07:47Z</time>
      </trkpt>
      <trkpt lat="44.64311" lon="2.98679">
        <ele>1310.41</ele>
        <time>2020-08-26T10:07:54Z</time>
      </trkpt>
      <trkpt lat="44.6431" lon="2.9868">
        <ele>1310.41</ele>
        <time>2020-08-26T10:08:24Z</time>
      </trkpt>
      <trkpt lat="44.6431" lon="2.98682">
        <ele>1310.41</ele>
        <time>2020-08-26T10:08:59Z</time>
      </trkpt>
      <trkpt lat="44.64309" lon="2.98683">
        <ele>1310.41</ele>
        <time>2020-08-26T10:09:31Z</time>
      </trkpt>
      <trkpt lat="44.64294" lon="2.98686">
        <ele>1309.93</ele>
        <time>2020-08-26T10:09:48Z</time>
      </trkpt>
      <trkpt lat="44.64279" lon="2.98693">
        <ele>1309.93</ele>
        <time>2020-08-26T10:10:05Z</time>
      </trkpt>
      <trkpt lat="44.64271" lon="2.98698">
        <ele>1309.93</ele>
        <time>2020-08-26T10:10:17Z</time>
      </trkpt>
      <trkpt lat="44.64253" lon="2.98708">
        <ele>1308.97</ele>
        <time>2020-08-26T10:10:35Z</time>
      </trkpt>
      <trkpt lat="44.64235" lon="2.98718">
        <ele>1307.53</ele>
        <time>2020-08-26T10:10:54Z</time>
      </trkpt>
      <trkpt lat="44.64219" lon="2.98727">
        <ele>1306.09</ele>
        <time>2020-08-26T10:11:11Z</time>
      </trkpt>
      <trkpt lat="44.64204" lon="2.98735">
        <ele>1305.13</ele>
        <time>2020-08-26T10:11:30Z</time>
      </trkpt>
      <trkpt lat="44.64185" lon="2.98742">
        <ele>1305.13</ele>
        <time>2020-08-26T10:11:48Z</time>
      </trkpt>
      <trkpt lat="44.64165" lon="2.98743">
        <ele>1304.65</ele>
        <time>2020-08-26T10:12:08Z</time>
      </trkpt>
      <trkpt lat="44.64146" lon="2.9875">
        <ele>1302.72</ele>
        <time>2020-08-26T10:12:28Z</time>
      </trkpt>
      <trkpt lat="44.64131" lon="2.98757">
        <ele>1302.24</ele>
        <time>2020-08-26T10:12:48Z</time>
      </trkpt>
      <trkpt lat="44.64131" lon="2.98756">
        <ele>1302.24</ele>
        <time>2020-08-26T10:13:09Z</time>
      </trkpt>
      <trkpt lat="44.6413" lon="2.98756">
        <ele>1302.24</ele>
        <time>2020-08-26T10:13:46Z</time>
      </trkpt>
      <trkpt lat="44.6413" lon="2.9876">
        <ele>1303.2</ele>
        <time>2020-08-26T10:14:09Z</time>
      </trkpt>
      <trkpt lat="44.64119" lon="2.98778">
        <ele>1304.17</ele>
        <time>2020-08-26T10:14:28Z</time>
      </trkpt>
      <trkpt lat="44.64107" lon="2.98788">
        <ele>1305.61</ele>
        <time>2020-08-26T10:14:44Z</time>
      </trkpt>
      <trkpt lat="44.64094" lon="2.98803">
        <ele>1307.53</ele>
        <time>2020-08-26T10:15:02Z</time>
      </trkpt>
      <trkpt lat="44.64082" lon="2.98817">
        <ele>1308.97</ele>
        <time>2020-08-26T10:15:21Z</time>
      </trkpt>
      <trkpt lat="44.64065" lon="2.98834">
        <ele>1309.93</ele>
        <time>2020-08-26T10:15:43Z</time>
      </trkpt>
      <trkpt lat="44.64052" lon="2.98845">
        <ele>1310.41</ele>
        <time>2020-08-26T10:15:58Z</time>
      </trkpt>
      <trkpt lat="44.64036" lon="2.98858">
        <ele>1311.86</ele>
        <time>2020-08-26T10:16:18Z</time>
      </trkpt>
      <trkpt lat="44.64019" lon="2.98872">
        <ele>1312.34</ele>
        <time>2020-08-26T10:16:38Z</time>
      </trkpt>
      <trkpt lat="44.64002" lon="2.98884">
        <ele>1313.3</ele>
        <time>2020-08-26T10:16:57Z</time>
      </trkpt>
      <trkpt lat="44.63987" lon="2.98895">
        <ele>1314.74</ele>
        <time>2020-08-26T10:17:15Z</time>
      </trkpt>
      <trkpt lat="44.63971" lon="2.98906">
        <ele>1315.22</ele>
        <time>2020-08-26T10:17:33Z</time>
      </trkpt>
      <trkpt lat="44.63951" lon="2.98922">
        <ele>1316.18</ele>
        <time>2020-08-26T10:17:55Z</time>
      </trkpt>
      <trkpt lat="44.63934" lon="2.98935">
        <ele>1317.14</ele>
        <time>2020-08-26T10:18:15Z</time>
      </trkpt>
      <trkpt lat="44.63919" lon="2.98947">
        <ele>1318.1</ele>
        <time>2020-08-26T10:18:33Z</time>
      </trkpt>
      <trkpt lat="44.63904" lon="2.98962">
        <ele>1319.55</ele>
        <time>2020-08-26T10:18:52Z</time>
      </trkpt>
      <trkpt lat="44.63889" lon="2.98979">
        <ele>1320.03</ele>
        <time>2020-08-26T10:19:13Z</time>
      </trkpt>
      <trkpt lat="44.6387" lon="2.98997">
        <ele>1320.99</ele>
        <time>2020-08-26T10:19:36Z</time>
      </trkpt>
      <trkpt lat="44.63858" lon="2.99007">
        <ele>1323.39</ele>
        <time>2020-08-26T10:19:53Z</time>
      </trkpt>
      <trkpt lat="44.63844" lon="2.99018">
        <ele>1324.83</ele>
        <time>2020-08-26T10:20:11Z</time>
      </trkpt>
      <trkpt lat="44.63843" lon="2.99019">
        <ele>1324.83</ele>
        <time>2020-08-26T10:20:12Z</time>
      </trkpt>
      <trkpt lat="44.63829" lon="2.99032">
        <ele>1326.28</ele>
        <time>2020-08-26T10:20:31Z</time>
      </trkpt>
      <trkpt lat="44.63814" lon="2.99044">
        <ele>1326.76</ele>
        <time>2020-08-26T10:20:48Z</time>
      </trkpt>
      <trkpt lat="44.63798" lon="2.99057">
        <ele>1328.2</ele>
        <time>2020-08-26T10:21:08Z</time>
      </trkpt>
      <trkpt lat="44.63786" lon="2.99067">
        <ele>1330.12</ele>
        <time>2020-08-26T10:21:25Z</time>
      </trkpt>
      <trkpt lat="44.63771" lon="2.99078">
        <ele>1332.04</ele>
        <time>2020-08-26T10:21:45Z</time>
      </trkpt>
      <trkpt lat="44.63761" lon="2.99088">
        <ele>1334.45</ele>
        <time>2020-08-26T10:22:01Z</time>
      </trkpt>
      <trkpt lat="44.63749" lon="2.99093">
        <ele>1336.37</ele>
        <time>2020-08-26T10:22:20Z</time>
      </trkpt>
      <trkpt lat="44.63739" lon="2.99108">
        <ele>1338.29</ele>
        <time>2020-08-26T10:22:37Z</time>
      </trkpt>
      <trkpt lat="44.63732" lon="2.99114">
        <ele>1339.73</ele>
        <time>2020-08-26T10:22:46Z</time>
      </trkpt>
      <trkpt lat="44.63727" lon="2.99119">
        <ele>1340.22</ele>
        <time>2020-08-26T10:23:00Z</time>
      </trkpt>
      <trkpt lat="44.6371" lon="2.99133">
        <ele>1341.66</ele>
        <time>2020-08-26T10:23:20Z</time>
      </trkpt>
      <trkpt lat="44.63703" lon="2.99141">
        <ele>1341.66</ele>
        <time>2020-08-26T10:23:30Z</time>
      </trkpt>
      <trkpt lat="44.63693" lon="2.99152">
        <ele>1343.1</ele>
        <time>2020-08-26T10:23:49Z</time>
      </trkpt>
      <trkpt lat="44.63696" lon="2.99154">
        <ele>1343.58</ele>
        <time>2020-08-26T10:24:05Z</time>
      </trkpt>
      <trkpt lat="44.63694" lon="2.9916">
        <ele>1344.06</ele>
        <time>2020-08-26T10:24:26Z</time>
      </trkpt>
      <trkpt lat="44.6369" lon="2.99165">
        <ele>1344.06</ele>
        <time>2020-08-26T10:24:32Z</time>
      </trkpt>
      <trkpt lat="44.63675" lon="2.9918">
        <ele>1345.5</ele>
        <time>2020-08-26T10:24:50Z</time>
      </trkpt>
      <trkpt lat="44.63663" lon="2.99188">
        <ele>1347.43</ele>
        <time>2020-08-26T10:25:07Z</time>
      </trkpt>
      <trkpt lat="44.63645" lon="2.99207">
        <ele>1348.39</ele>
        <time>2020-08-26T10:25:28Z</time>
      </trkpt>
      <trkpt lat="44.63638" lon="2.99216">
        <ele>1348.87</ele>
        <time>2020-08-26T10:25:38Z</time>
      </trkpt>
      <trkpt lat="44.63621" lon="2.99236">
        <ele>1349.83</ele>
        <time>2020-08-26T10:25:57Z</time>
      </trkpt>
      <trkpt lat="44.63607" lon="2.99255">
        <ele>1350.79</ele>
        <time>2020-08-26T10:26:16Z</time>
      </trkpt>
      <trkpt lat="44.63593" lon="2.99272">
        <ele>1351.27</ele>
        <time>2020-08-26T10:26:35Z</time>
      </trkpt>
      <trkpt lat="44.63577" lon="2.99291">
        <ele>1352.23</ele>
        <time>2020-08-26T10:26:55Z</time>
      </trkpt>
      <trkpt lat="44.63562" lon="2.99309">
        <ele>1352.71</ele>
        <time>2020-08-26T10:27:14Z</time>
      </trkpt>
      <trkpt lat="44.63549" lon="2.99326">
        <ele>1353.19</ele>
        <time>2020-08-26T10:27:30Z</time>
      </trkpt>
      <trkpt lat="44.63531" lon="2.99341">
        <ele>1354.63</ele>
        <time>2020-08-26T10:27:52Z</time>
      </trkpt>
      <trkpt lat="44.6352" lon="2.9935">
        <ele>1354.63</ele>
        <time>2020-08-26T10:28:10Z</time>
      </trkpt>
      <trkpt lat="44.63503" lon="2.99366">
        <ele>1356.08</ele>
        <time>2020-08-26T10:28:29Z</time>
      </trkpt>
      <trkpt lat="44.63485" lon="2.99384">
        <ele>1357.04</ele>
        <time>2020-08-26T10:28:51Z</time>
      </trkpt>
      <trkpt lat="44.63468" lon="2.99393">
        <ele>1358</ele>
        <time>2020-08-26T10:29:13Z</time>
      </trkpt>
      <trkpt lat="44.63467" lon="2.99393">
        <ele>1358</ele>
        <time>2020-08-26T10:29:31Z</time>
      </trkpt>
      <trkpt lat="44.63461" lon="2.99396">
        <ele>1358.48</ele>
        <time>2020-08-26T10:29:50Z</time>
      </trkpt>
      <trkpt lat="44.63442" lon="2.99404">
        <ele>1358.96</ele>
        <time>2020-08-26T10:30:09Z</time>
      </trkpt>
      <trkpt lat="44.63421" lon="2.99412">
        <ele>1359.92</ele>
        <time>2020-08-26T10:30:28Z</time>
      </trkpt>
      <trkpt lat="44.63401" lon="2.9942">
        <ele>1360.88</ele>
        <time>2020-08-26T10:30:47Z</time>
      </trkpt>
      <trkpt lat="44.63386" lon="2.99428">
        <ele>1362.81</ele>
        <time>2020-08-26T10:31:05Z</time>
      </trkpt>
      <trkpt lat="44.63368" lon="2.9943">
        <ele>1363.29</ele>
        <time>2020-08-26T10:31:24Z</time>
      </trkpt>
      <trkpt lat="44.6336" lon="2.99427">
        <ele>1363.29</ele>
        <time>2020-08-26T10:31:36Z</time>
      </trkpt>
      <trkpt lat="44.63339" lon="2.99416">
        <ele>1360.88</ele>
        <time>2020-08-26T10:31:58Z</time>
      </trkpt>
      <trkpt lat="44.63321" lon="2.99401">
        <ele>1359.92</ele>
        <time>2020-08-26T10:32:18Z</time>
      </trkpt>
      <trkpt lat="44.63301" lon="2.99385">
        <ele>1359.44</ele>
        <time>2020-08-26T10:32:40Z</time>
      </trkpt>
      <trkpt lat="44.6328" lon="2.99376">
        <ele>1358.48</ele>
        <time>2020-08-26T10:32:59Z</time>
      </trkpt>
      <trkpt lat="44.63259" lon="2.99365">
        <ele>1358</ele>
        <time>2020-08-26T10:33:21Z</time>
      </trkpt>
      <trkpt lat="44.6324" lon="2.99349">
        <ele>1357.52</ele>
        <time>2020-08-26T10:33:41Z</time>
      </trkpt>
      <trkpt lat="44.63226" lon="2.99332">
        <ele>1357.04</ele>
        <time>2020-08-26T10:33:59Z</time>
      </trkpt>
      <trkpt lat="44.63206" lon="2.99322">
        <ele>1357.04</ele>
        <time>2020-08-26T10:34:18Z</time>
      </trkpt>
      <trkpt lat="44.63191" lon="2.99308">
        <ele>1355.6</ele>
        <time>2020-08-26T10:34:35Z</time>
      </trkpt>
      <trkpt lat="44.63173" lon="2.99291">
        <ele>1354.15</ele>
        <time>2020-08-26T10:34:54Z</time>
      </trkpt>
      <trkpt lat="44.63156" lon="2.99279">
        <ele>1353.67</ele>
        <time>2020-08-26T10:35:11Z</time>
      </trkpt>
      <trkpt lat="44.63139" lon="2.99266">
        <ele>1353.67</ele>
        <time>2020-08-26T10:35:31Z</time>
      </trkpt>
      <trkpt lat="44.63128" lon="2.99255">
        <ele>1355.12</ele>
        <time>2020-08-26T10:35:47Z</time>
      </trkpt>
      <trkpt lat="44.63114" lon="2.99245">
        <ele>1355.6</ele>
        <time>2020-08-26T10:36:02Z</time>
      </trkpt>
      <trkpt lat="44.63099" lon="2.99235">
        <ele>1355.6</ele>
        <time>2020-08-26T10:36:18Z</time>
      </trkpt>
      <trkpt lat="44.63085" lon="2.99218">
        <ele>1356.08</ele>
        <time>2020-08-26T10:36:35Z</time>
      </trkpt>
      <trkpt lat="44.63072" lon="2.99201">
        <ele>1356.56</ele>
        <time>2020-08-26T10:36:52Z</time>
      </trkpt>
      <trkpt lat="44.63058" lon="2.99182">
        <ele>1356.56</ele>
        <time>2020-08-26T10:37:10Z</time>
      </trkpt>
      <trkpt lat="44.63051" lon="2.9917">
        <ele>1355.12</ele>
        <time>2020-08-26T10:37:21Z</time>
      </trkpt>
      <trkpt lat="44.63045" lon="2.99162">
        <ele>1355.12</ele>
        <time>2020-08-26T10:37:36Z</time>
      </trkpt>
      <trkpt lat="44.63036" lon="2.99144">
        <ele>1354.63</ele>
        <time>2020-08-26T10:37:55Z</time>
      </trkpt>
      <trkpt lat="44.63034" lon="2.99136">
        <ele>1353.67</ele>
        <time>2020-08-26T10:38:10Z</time>
      </trkpt>
      <trkpt lat="44.63039" lon="2.99131">
        <ele>1353.67</ele>
        <time>2020-08-26T10:38:26Z</time>
      </trkpt>
      <trkpt lat="44.6304" lon="2.99129">
        <ele>1354.63</ele>
        <time>2020-08-26T10:38:30Z</time>
      </trkpt>
      <trkpt lat="44.63041" lon="2.99126">
        <ele>1355.12</ele>
        <time>2020-08-26T10:38:44Z</time>
      </trkpt>
      <trkpt lat="44.6304" lon="2.99127">
        <ele>1355.12</ele>
        <time>2020-08-26T10:39:09Z</time>
      </trkpt>
      <trkpt lat="44.63039" lon="2.99127">
        <ele>1355.12</ele>
        <time>2020-08-26T10:39:44Z</time>
      </trkpt>
      <trkpt lat="44.63038" lon="2.99127">
        <ele>1355.6</ele>
        <time>2020-08-26T10:40:19Z</time>
      </trkpt>
      <trkpt lat="44.6304" lon="2.99126">
        <ele>1355.6</ele>
        <time>2020-08-26T10:40:50Z</time>
      </trkpt>
      <trkpt lat="44.6304" lon="2.99127">
        <ele>1354.15</ele>
        <time>2020-08-26T10:41:07Z</time>
      </trkpt>
      <trkpt lat="44.63041" lon="2.99125">
        <ele>1354.15</ele>
        <time>2020-08-26T10:41:37Z</time>
      </trkpt>
      <trkpt lat="44.63041" lon="2.99125">
        <ele>1355.12</ele>
        <time>2020-08-26T10:42:09Z</time>
      </trkpt>
      <trkpt lat="44.63038" lon="2.99126">
        <ele>1354.63</ele>
        <time>2020-08-26T10:42:36Z</time>
      </trkpt>
      <trkpt lat="44.63041" lon="2.99126">
        <ele>1354.63</ele>
        <time>2020-08-26T10:43:09Z</time>
      </trkpt>
      <trkpt lat="44.6304" lon="2.99125">
        <ele>1354.63</ele>
        <time>2020-08-26T10:43:39Z</time>
      </trkpt>
      <trkpt lat="44.6304" lon="2.99125">
        <ele>1354.63</ele>
        <time>2020-08-26T10:44:03Z</time>
      </trkpt>
      <trkpt lat="44.6304" lon="2.99125">
        <ele>1354.63</ele>
        <time>2020-08-26T10:44:36Z</time>
      </trkpt>
      <trkpt lat="44.6304" lon="2.99127">
        <ele>1354.63</ele>
        <time>2020-08-26T10:45:13Z</time>
      </trkpt>
      <trkpt lat="44.6304" lon="2.99128">
        <ele>1353.67</ele>
        <time>2020-08-26T10:45:37Z</time>
      </trkpt>
      <trkpt lat="44.63039" lon="2.99128">
        <ele>1354.63</ele>
        <time>2020-08-26T10:46:03Z</time>
      </trkpt>
      <trkpt lat="44.63039" lon="2.99127">
        <ele>1355.6</ele>
        <time>2020-08-26T10:46:19Z</time>
      </trkpt>
      <trkpt lat="44.6304" lon="2.99127">
        <ele>1356.08</ele>
        <time>2020-08-26T10:46:48Z</time>
      </trkpt>
      <trkpt lat="44.6304" lon="2.99127">
        <ele>1356.08</ele>
        <time>2020-08-26T10:47:24Z</time>
      </trkpt>
      <trkpt lat="44.63039" lon="2.99127">
        <ele>1356.08</ele>
        <time>2020-08-26T10:47:49Z</time>
      </trkpt>
      <trkpt lat="44.63041" lon="2.99128">
        <ele>1356.08</ele>
        <time>2020-08-26T10:48:26Z</time>
      </trkpt>
      <trkpt lat="44.63041" lon="2.99127">
        <ele>1356.08</ele>
        <time>2020-08-26T10:49:04Z</time>
      </trkpt>
      <trkpt lat="44.6304" lon="2.99127">
        <ele>1354.63</ele>
        <time>2020-08-26T10:49:26Z</time>
      </trkpt>
      <trkpt lat="44.6304" lon="2.99128">
        <ele>1354.63</ele>
        <time>2020-08-26T10:49:55Z</time>
      </trkpt>
      <trkpt lat="44.63035" lon="2.9912">
        <ele>1354.63</ele>
        <time>2020-08-26T10:50:08Z</time>
      </trkpt>
      <trkpt lat="44.63027" lon="2.99099">
        <ele>1353.19</ele>
        <time>2020-08-26T10:50:25Z</time>
      </trkpt>
      <trkpt lat="44.63016" lon="2.99076">
        <ele>1351.75</ele>
        <time>2020-08-26T10:50:44Z</time>
      </trkpt>
      <trkpt lat="44.63012" lon="2.99063">
        <ele>1350.31</ele>
        <time>2020-08-26T10:50:53Z</time>
      </trkpt>
      <trkpt lat="44.62999" lon="2.99045">
        <ele>1350.31</ele>
        <time>2020-08-26T10:51:10Z</time>
      </trkpt>
      <trkpt lat="44.62982" lon="2.99025">
        <ele>1348.39</ele>
        <time>2020-08-26T10:51:30Z</time>
      </trkpt>
      <trkpt lat="44.62966" lon="2.99001">
        <ele>1347.43</ele>
        <time>2020-08-26T10:51:52Z</time>
      </trkpt>
      <trkpt lat="44.62947" lon="2.98972">
        <ele>1345.5</ele>
        <time>2020-08-26T10:52:16Z</time>
      </trkpt>
      <trkpt lat="44.6293" lon="2.98955">
        <ele>1345.02</ele>
        <time>2020-08-26T10:52:33Z</time>
      </trkpt>
      <trkpt lat="44.62913" lon="2.98937">
        <ele>1345.02</ele>
        <time>2020-08-26T10:52:52Z</time>
      </trkpt>
      <trkpt lat="44.62899" lon="2.98917">
        <ele>1344.06</ele>
        <time>2020-08-26T10:53:10Z</time>
      </trkpt>
      <trkpt lat="44.62883" lon="2.98904">
        <ele>1344.06</ele>
        <time>2020-08-26T10:53:27Z</time>
      </trkpt>
      <trkpt lat="44.62866" lon="2.98887">
        <ele>1345.02</ele>
        <time>2020-08-26T10:53:46Z</time>
      </trkpt>
      <trkpt lat="44.62849" lon="2.98875">
        <ele>1344.06</ele>
        <time>2020-08-26T10:54:04Z</time>
      </trkpt>
      <trkpt lat="44.62833" lon="2.98864">
        <ele>1343.58</ele>
        <time>2020-08-26T10:54:20Z</time>
      </trkpt>
      <trkpt lat="44.62828" lon="2.98861">
        <ele>1343.58</ele>
        <time>2020-08-26T10:54:25Z</time>
      </trkpt>
      <trkpt lat="44.62819" lon="2.98857">
        <ele>1343.1</ele>
        <time>2020-08-26T10:54:41Z</time>
      </trkpt>
      <trkpt lat="44.62806" lon="2.98848">
        <ele>1342.14</ele>
        <time>2020-08-26T10:54:56Z</time>
      </trkpt>
      <trkpt lat="44.62788" lon="2.98838">
        <ele>1340.7</ele>
        <time>2020-08-26T10:55:14Z</time>
      </trkpt>
      <trkpt lat="44.62777" lon="2.98832">
        <ele>1340.22</ele>
        <time>2020-08-26T10:55:26Z</time>
      </trkpt>
      <trkpt lat="44.62763" lon="2.98827">
        <ele>1338.77</ele>
        <time>2020-08-26T10:55:41Z</time>
      </trkpt>
      <trkpt lat="44.62754" lon="2.98824">
        <ele>1337.33</ele>
        <time>2020-08-26T10:55:52Z</time>
      </trkpt>
      <trkpt lat="44.62746" lon="2.98826">
        <ele>1335.89</ele>
        <time>2020-08-26T10:56:09Z</time>
      </trkpt>
      <trkpt lat="44.62746" lon="2.98823">
        <ele>1335.89</ele>
        <time>2020-08-26T10:56:40Z</time>
      </trkpt>
      <trkpt lat="44.62735" lon="2.98819">
        <ele>1334.93</ele>
        <time>2020-08-26T10:56:54Z</time>
      </trkpt>
      <trkpt lat="44.62721" lon="2.98815">
        <ele>1332.52</ele>
        <time>2020-08-26T10:57:10Z</time>
      </trkpt>
      <trkpt lat="44.62703" lon="2.98808">
        <ele>1329.16</ele>
        <time>2020-08-26T10:57:30Z</time>
      </trkpt>
      <trkpt lat="44.62696" lon="2.98805">
        <ele>1327.72</ele>
        <time>2020-08-26T10:57:39Z</time>
      </trkpt>
      <trkpt lat="44.62679" lon="2.988">
        <ele>1324.35</ele>
        <time>2020-08-26T10:57:57Z</time>
      </trkpt>
      <trkpt lat="44.62664" lon="2.98794">
        <ele>1320.99</ele>
        <time>2020-08-26T10:58:15Z</time>
      </trkpt>
      <trkpt lat="44.62648" lon="2.98792">
        <ele>1318.59</ele>
        <time>2020-08-26T10:58:33Z</time>
      </trkpt>
      <trkpt lat="44.62633" lon="2.98789">
        <ele>1316.18</ele>
        <time>2020-08-26T10:58:52Z</time>
      </trkpt>
      <trkpt lat="44.6262" lon="2.98788">
        <ele>1314.26</ele>
        <time>2020-08-26T10:59:09Z</time>
      </trkpt>
      <trkpt lat="44.62619" lon="2.98786">
        <ele>1313.78</ele>
        <time>2020-08-26T10:59:22Z</time>
      </trkpt>
      <trkpt lat="44.6261" lon="2.98763">
        <ele>1313.3</ele>
        <time>2020-08-26T10:59:42Z</time>
      </trkpt>
      <trkpt lat="44.62609" lon="2.98762">
        <ele>1313.3</ele>
        <time>2020-08-26T10:59:44Z</time>
      </trkpt>
      <trkpt lat="44.62599" lon="2.98752">
        <ele>1312.34</ele>
        <time>2020-08-26T11:00:07Z</time>
      </trkpt>
      <trkpt lat="44.626" lon="2.98751">
        <ele>1312.34</ele>
        <time>2020-08-26T11:00:32Z</time>
      </trkpt>
      <trkpt lat="44.62599" lon="2.98753">
        <ele>1311.86</ele>
        <time>2020-08-26T11:00:59Z</time>
      </trkpt>
      <trkpt lat="44.62597" lon="2.98749">
        <ele>1311.86</ele>
        <time>2020-08-26T11:01:21Z</time>
      </trkpt>
      <trkpt lat="44.62598" lon="2.98749">
        <ele>1311.86</ele>
        <time>2020-08-26T11:01:52Z</time>
      </trkpt>
      <trkpt lat="44.62595" lon="2.98749">
        <ele>1311.86</ele>
        <time>2020-08-26T11:02:23Z</time>
      </trkpt>
      <trkpt lat="44.62592" lon="2.98751">
        <ele>1310.41</ele>
        <time>2020-08-26T11:02:42Z</time>
      </trkpt>
      <trkpt lat="44.62581" lon="2.98749">
        <ele>1308.97</ele>
        <time>2020-08-26T11:02:58Z</time>
      </trkpt>
      <trkpt lat="44.62561" lon="2.98748">
        <ele>1306.57</ele>
        <time>2020-08-26T11:03:21Z</time>
      </trkpt>
      <trkpt lat="44.62541" lon="2.98749">
        <ele>1304.65</ele>
        <time>2020-08-26T11:03:45Z</time>
      </trkpt>
      <trkpt lat="44.62537" lon="2.9875">
        <ele>1304.65</ele>
        <time>2020-08-26T11:04:06Z</time>
      </trkpt>
      <trkpt lat="44.62538" lon="2.98749">
        <ele>1304.65</ele>
        <time>2020-08-26T11:04:33Z</time>
      </trkpt>
      <trkpt lat="44.62538" lon="2.98752">
        <ele>1304.65</ele>
        <time>2020-08-26T11:05:00Z</time>
      </trkpt>
      <trkpt lat="44.62534" lon="2.98752">
        <ele>1304.65</ele>
        <time>2020-08-26T11:05:27Z</time>
      </trkpt>
      <trkpt lat="44.62534" lon="2.98748">
        <ele>1304.65</ele>
        <time>2020-08-26T11:05:54Z</time>
      </trkpt>
      <trkpt lat="44.6253" lon="2.98745">
        <ele>1304.17</ele>
        <time>2020-08-26T11:06:16Z</time>
      </trkpt>
      <trkpt lat="44.62521" lon="2.98741">
        <ele>1302.72</ele>
        <time>2020-08-26T11:06:28Z</time>
      </trkpt>
      <trkpt lat="44.62514" lon="2.98738">
        <ele>1302.72</ele>
        <time>2020-08-26T11:06:45Z</time>
      </trkpt>
      <trkpt lat="44.62502" lon="2.98734">
        <ele>1302.24</ele>
        <time>2020-08-26T11:07:04Z</time>
      </trkpt>
      <trkpt lat="44.62479" lon="2.9873">
        <ele>1301.76</ele>
        <time>2020-08-26T11:07:26Z</time>
      </trkpt>
      <trkpt lat="44.6246" lon="2.98728">
        <ele>1301.28</ele>
        <time>2020-08-26T11:07:46Z</time>
      </trkpt>
      <trkpt lat="44.6244" lon="2.98724">
        <ele>1301.28</ele>
        <time>2020-08-26T11:08:06Z</time>
      </trkpt>
      <trkpt lat="44.62424" lon="2.98723">
        <ele>1302.24</ele>
        <time>2020-08-26T11:08:22Z</time>
      </trkpt>
      <trkpt lat="44.62405" lon="2.98719">
        <ele>1302.72</ele>
        <time>2020-08-26T11:08:42Z</time>
      </trkpt>
      <trkpt lat="44.62388" lon="2.9871">
        <ele>1303.69</ele>
        <time>2020-08-26T11:09:01Z</time>
      </trkpt>
      <trkpt lat="44.6237" lon="2.98702">
        <ele>1302.24</ele>
        <time>2020-08-26T11:09:20Z</time>
      </trkpt>
      <trkpt lat="44.62357" lon="2.98701">
        <ele>1300.8</ele>
        <time>2020-08-26T11:09:40Z</time>
      </trkpt>
      <trkpt lat="44.62356" lon="2.98701">
        <ele>1300.32</ele>
        <time>2020-08-26T11:10:09Z</time>
      </trkpt>
      <trkpt lat="44.62339" lon="2.98712">
        <ele>1298.88</ele>
        <time>2020-08-26T11:10:30Z</time>
      </trkpt>
      <trkpt lat="44.62329" lon="2.98722">
        <ele>1298.4</ele>
        <time>2020-08-26T11:10:41Z</time>
      </trkpt>
      <trkpt lat="44.62314" lon="2.98744">
        <ele>1295.99</ele>
        <time>2020-08-26T11:11:03Z</time>
      </trkpt>
      <trkpt lat="44.62308" lon="2.98754">
        <ele>1295.51</ele>
        <time>2020-08-26T11:11:12Z</time>
      </trkpt>
      <trkpt lat="44.62298" lon="2.98766">
        <ele>1294.55</ele>
        <time>2020-08-26T11:11:25Z</time>
      </trkpt>
      <trkpt lat="44.62279" lon="2.98775">
        <ele>1294.07</ele>
        <time>2020-08-26T11:11:44Z</time>
      </trkpt>
      <trkpt lat="44.6226" lon="2.98788">
        <ele>1294.07</ele>
        <time>2020-08-26T11:12:03Z</time>
      </trkpt>
      <trkpt lat="44.62245" lon="2.98801">
        <ele>1293.59</ele>
        <time>2020-08-26T11:12:20Z</time>
      </trkpt>
      <trkpt lat="44.62241" lon="2.98803">
        <ele>1293.59</ele>
        <time>2020-08-26T11:12:24Z</time>
      </trkpt>
      <trkpt lat="44.6223" lon="2.98812">
        <ele>1293.59</ele>
        <time>2020-08-26T11:12:37Z</time>
      </trkpt>
      <trkpt lat="44.62216" lon="2.98815">
        <ele>1295.03</ele>
        <time>2020-08-26T11:12:52Z</time>
      </trkpt>
      <trkpt lat="44.62204" lon="2.98813">
        <ele>1296.48</ele>
        <time>2020-08-26T11:13:06Z</time>
      </trkpt>
      <trkpt lat="44.62195" lon="2.98804">
        <ele>1297.92</ele>
        <time>2020-08-26T11:13:22Z</time>
      </trkpt>
      <trkpt lat="44.62192" lon="2.98794">
        <ele>1298.4</ele>
        <time>2020-08-26T11:13:41Z</time>
      </trkpt>
      <trkpt lat="44.62195" lon="2.98791">
        <ele>1298.4</ele>
        <time>2020-08-26T11:14:02Z</time>
      </trkpt>
      <trkpt lat="44.62198" lon="2.98792">
        <ele>1298.88</ele>
        <time>2020-08-26T11:14:30Z</time>
      </trkpt>
      <trkpt lat="44.62197" lon="2.98795">
        <ele>1298.88</ele>
        <time>2020-08-26T11:15:00Z</time>
      </trkpt>
      <trkpt lat="44.62197" lon="2.98792">
        <ele>1297.44</ele>
        <time>2020-08-26T11:15:08Z</time>
      </trkpt>
      <trkpt lat="44.62199" lon="2.98789">
        <ele>1297.92</ele>
        <time>2020-08-26T11:15:32Z</time>
      </trkpt>
      <trkpt lat="44.62195" lon="2.98784">
        <ele>1297.92</ele>
        <time>2020-08-26T11:15:49Z</time>
      </trkpt>
      <trkpt lat="44.62194" lon="2.98774">
        <ele>1298.88</ele>
        <time>2020-08-26T11:15:58Z</time>
      </trkpt>
      <trkpt lat="44.62196" lon="2.98773">
        <ele>1298.88</ele>
        <time>2020-08-26T11:16:16Z</time>
      </trkpt>
      <trkpt lat="44.62197" lon="2.98775">
        <ele>1298.88</ele>
        <time>2020-08-26T11:16:34Z</time>
      </trkpt>
      <trkpt lat="44.62194" lon="2.98775">
        <ele>1298.88</ele>
        <time>2020-08-26T11:16:52Z</time>
      </trkpt>
      <trkpt lat="44.62201" lon="2.98779">
        <ele>1298.88</ele>
        <time>2020-08-26T11:17:07Z</time>
      </trkpt>
      <trkpt lat="44.62211" lon="2.98786">
        <ele>1298.88</ele>
        <time>2020-08-26T11:17:22Z</time>
      </trkpt>
      <trkpt lat="44.62215" lon="2.98786">
        <ele>1298.88</ele>
        <time>2020-08-26T11:17:37Z</time>
      </trkpt>
      <trkpt lat="44.62215" lon="2.98785">
        <ele>1298.88</ele>
        <time>2020-08-26T11:17:57Z</time>
      </trkpt>
      <trkpt lat="44.62212" lon="2.98789">
        <ele>1298.88</ele>
        <time>2020-08-26T11:18:21Z</time>
      </trkpt>
      <trkpt lat="44.62218" lon="2.98773">
        <ele>1298.88</ele>
        <time>2020-08-26T11:18:45Z</time>
      </trkpt>
      <trkpt lat="44.62219" lon="2.98769">
        <ele>1296.48</ele>
        <time>2020-08-26T11:18:50Z</time>
      </trkpt>
      <trkpt lat="44.6222" lon="2.98776">
        <ele>1299.36</ele>
        <time>2020-08-26T11:20:02Z</time>
      </trkpt>
      <trkpt lat="44.62207" lon="2.9879">
        <ele>1297.92</ele>
        <time>2020-08-26T11:20:13Z</time>
      </trkpt>
      <trkpt lat="44.62199" lon="2.98781">
        <ele>1299.36</ele>
        <time>2020-08-26T11:20:25Z</time>
      </trkpt>
      <trkpt lat="44.62195" lon="2.98776">
        <ele>1299.84</ele>
        <time>2020-08-26T11:20:38Z</time>
      </trkpt>
      <trkpt lat="44.62193" lon="2.98776">
        <ele>1299.84</ele>
        <time>2020-08-26T11:21:03Z</time>
      </trkpt>
      <trkpt lat="44.62191" lon="2.98775">
        <ele>1298.4</ele>
        <time>2020-08-26T11:21:24Z</time>
      </trkpt>
      <trkpt lat="44.62193" lon="2.98776">
        <ele>1298.4</ele>
        <time>2020-08-26T11:21:43Z</time>
      </trkpt>
      <trkpt lat="44.62192" lon="2.98777">
        <ele>1298.4</ele>
        <time>2020-08-26T11:22:04Z</time>
      </trkpt>
      <trkpt lat="44.62194" lon="2.98778">
        <ele>1298.4</ele>
        <time>2020-08-26T11:22:23Z</time>
      </trkpt>
      <trkpt lat="44.62193" lon="2.98776">
        <ele>1298.4</ele>
        <time>2020-08-26T11:22:49Z</time>
      </trkpt>
      <trkpt lat="44.62194" lon="2.98773">
        <ele>1298.4</ele>
        <time>2020-08-26T11:23:17Z</time>
      </trkpt>
      <trkpt lat="44.62194" lon="2.98776">
        <ele>1298.4</ele>
        <time>2020-08-26T11:23:43Z</time>
      </trkpt>
      <trkpt lat="44.62192" lon="2.98776">
        <ele>1297.92</ele>
        <time>2020-08-26T11:24:14Z</time>
      </trkpt>
      <trkpt lat="44.62193" lon="2.98774">
        <ele>1297.92</ele>
        <time>2020-08-26T11:24:46Z</time>
      </trkpt>
      <trkpt lat="44.62195" lon="2.98774">
        <ele>1297.92</ele>
        <time>2020-08-26T11:25:13Z</time>
      </trkpt>
      <trkpt lat="44.62193" lon="2.98775">
        <ele>1297.92</ele>
        <time>2020-08-26T11:25:45Z</time>
      </trkpt>
      <trkpt lat="44.62192" lon="2.98779">
        <ele>1297.92</ele>
        <time>2020-08-26T11:26:18Z</time>
      </trkpt>
      <trkpt lat="44.62197" lon="2.98776">
        <ele>1298.4</ele>
        <time>2020-08-26T11:26:47Z</time>
      </trkpt>
      <trkpt lat="44.62197" lon="2.98774">
        <ele>1298.4</ele>
        <time>2020-08-26T11:27:27Z</time>
      </trkpt>
      <trkpt lat="44.62197" lon="2.98778">
        <ele>1298.4</ele>
        <time>2020-08-26T11:28:01Z</time>
      </trkpt>
      <trkpt lat="44.62193" lon="2.98776">
        <ele>1298.4</ele>
        <time>2020-08-26T11:28:32Z</time>
      </trkpt>
      <trkpt lat="44.62194" lon="2.98775">
        <ele>1297.92</ele>
        <time>2020-08-26T11:29:07Z</time>
      </trkpt>
      <trkpt lat="44.62193" lon="2.98776">
        <ele>1297.92</ele>
        <time>2020-08-26T11:29:36Z</time>
      </trkpt>
      <trkpt lat="44.62195" lon="2.98776">
        <ele>1298.4</ele>
        <time>2020-08-26T11:30:03Z</time>
      </trkpt>
      <trkpt lat="44.62196" lon="2.98774">
        <ele>1299.36</ele>
        <time>2020-08-26T11:30:35Z</time>
      </trkpt>
      <trkpt lat="44.62192" lon="2.98782">
        <ele>1298.4</ele>
        <time>2020-08-26T11:31:13Z</time>
      </trkpt>
      <trkpt lat="44.62194" lon="2.98778">
        <ele>1298.4</ele>
        <time>2020-08-26T11:31:45Z</time>
      </trkpt>
      <trkpt lat="44.62193" lon="2.98779">
        <ele>1298.4</ele>
        <time>2020-08-26T11:32:16Z</time>
      </trkpt>
      <trkpt lat="44.62195" lon="2.98778">
        <ele>1298.88</ele>
        <time>2020-08-26T11:32:47Z</time>
      </trkpt>
      <trkpt lat="44.62194" lon="2.98778">
        <ele>1298.88</ele>
        <time>2020-08-26T11:33:17Z</time>
      </trkpt>
      <trkpt lat="44.62192" lon="2.98778">
        <ele>1298.88</ele>
        <time>2020-08-26T11:33:45Z</time>
      </trkpt>
      <trkpt lat="44.62193" lon="2.98777">
        <ele>1298.88</ele>
        <time>2020-08-26T11:34:13Z</time>
      </trkpt>
      <trkpt lat="44.62188" lon="2.98784">
        <ele>1298.88</ele>
        <time>2020-08-26T11:34:35Z</time>
      </trkpt>
      <trkpt lat="44.62193" lon="2.98779">
        <ele>1300.32</ele>
        <time>2020-08-26T11:34:56Z</time>
      </trkpt>
      <trkpt lat="44.62192" lon="2.98781">
        <ele>1299.36</ele>
        <time>2020-08-26T11:35:05Z</time>
      </trkpt>
      <trkpt lat="44.62194" lon="2.98772">
        <ele>1299.36</ele>
        <time>2020-08-26T11:35:26Z</time>
      </trkpt>
      <trkpt lat="44.62196" lon="2.98772">
        <ele>1299.36</ele>
        <time>2020-08-26T11:35:55Z</time>
      </trkpt>
      <trkpt lat="44.62196" lon="2.98773">
        <ele>1299.36</ele>
        <time>2020-08-26T11:36:25Z</time>
      </trkpt>
      <trkpt lat="44.62198" lon="2.98773">
        <ele>1299.36</ele>
        <time>2020-08-26T11:36:59Z</time>
      </trkpt>
      <trkpt lat="44.62195" lon="2.98775">
        <ele>1299.36</ele>
        <time>2020-08-26T11:37:30Z</time>
      </trkpt>
      <trkpt lat="44.62197" lon="2.98772">
        <ele>1299.36</ele>
        <time>2020-08-26T11:38:04Z</time>
      </trkpt>
      <trkpt lat="44.62195" lon="2.98777">
        <ele>1298.88</ele>
        <time>2020-08-26T11:38:32Z</time>
      </trkpt>
      <trkpt lat="44.62193" lon="2.98779">
        <ele>1298.88</ele>
        <time>2020-08-26T11:39:02Z</time>
      </trkpt>
      <trkpt lat="44.6219" lon="2.9878">
        <ele>1298.88</ele>
        <time>2020-08-26T11:39:34Z</time>
      </trkpt>
      <trkpt lat="44.62196" lon="2.98774">
        <ele>1298.88</ele>
        <time>2020-08-26T11:40:00Z</time>
      </trkpt>
      <trkpt lat="44.622" lon="2.98774">
        <ele>1298.88</ele>
        <time>2020-08-26T11:40:25Z</time>
      </trkpt>
      <trkpt lat="44.62194" lon="2.98776">
        <ele>1298.88</ele>
        <time>2020-08-26T11:40:49Z</time>
      </trkpt>
      <trkpt lat="44.62196" lon="2.98768">
        <ele>1298.88</ele>
        <time>2020-08-26T11:41:16Z</time>
      </trkpt>
      <trkpt lat="44.62196" lon="2.98775">
        <ele>1298.88</ele>
        <time>2020-08-26T11:41:47Z</time>
      </trkpt>
      <trkpt lat="44.62193" lon="2.98777">
        <ele>1299.84</ele>
        <time>2020-08-26T11:42:18Z</time>
      </trkpt>
      <trkpt lat="44.62193" lon="2.98777">
        <ele>1299.84</ele>
        <time>2020-08-26T11:42:40Z</time>
      </trkpt>
      <trkpt lat="44.62192" lon="2.98779">
        <ele>1299.84</ele>
        <time>2020-08-26T11:43:09Z</time>
      </trkpt>
      <trkpt lat="44.62192" lon="2.98778">
        <ele>1299.84</ele>
        <time>2020-08-26T11:43:31Z</time>
      </trkpt>
      <trkpt lat="44.62195" lon="2.98776">
        <ele>1299.84</ele>
        <time>2020-08-26T11:44:07Z</time>
      </trkpt>
      <trkpt lat="44.62192" lon="2.98777">
        <ele>1299.84</ele>
        <time>2020-08-26T11:44:40Z</time>
      </trkpt>
      <trkpt lat="44.62194" lon="2.98776">
        <ele>1299.84</ele>
        <time>2020-08-26T11:45:16Z</time>
      </trkpt>
      <trkpt lat="44.62197" lon="2.98775">
        <ele>1299.84</ele>
        <time>2020-08-26T11:45:48Z</time>
      </trkpt>
      <trkpt lat="44.62193" lon="2.9877">
        <ele>1299.84</ele>
        <time>2020-08-26T11:46:20Z</time>
      </trkpt>
      <trkpt lat="44.62192" lon="2.98772">
        <ele>1299.84</ele>
        <time>2020-08-26T11:46:53Z</time>
      </trkpt>
      <trkpt lat="44.62196" lon="2.9877">
        <ele>1299.36</ele>
        <time>2020-08-26T11:47:25Z</time>
      </trkpt>
      <trkpt lat="44.62196" lon="2.98774">
        <ele>1299.84</ele>
        <time>2020-08-26T11:47:55Z</time>
      </trkpt>
      <trkpt lat="44.62197" lon="2.98772">
        <ele>1299.36</ele>
        <time>2020-08-26T11:48:32Z</time>
      </trkpt>
      <trkpt lat="44.62197" lon="2.98774">
        <ele>1299.36</ele>
        <time>2020-08-26T11:49:06Z</time>
      </trkpt>
      <trkpt lat="44.62197" lon="2.98771">
        <ele>1299.36</ele>
        <time>2020-08-26T11:49:36Z</time>
      </trkpt>
      <trkpt lat="44.62199" lon="2.98774">
        <ele>1299.36</ele>
        <time>2020-08-26T11:49:59Z</time>
      </trkpt>
      <trkpt lat="44.62201" lon="2.98768">
        <ele>1299.36</ele>
        <time>2020-08-26T11:50:22Z</time>
      </trkpt>
      <trkpt lat="44.622" lon="2.98772">
        <ele>1299.36</ele>
        <time>2020-08-26T11:50:43Z</time>
      </trkpt>
      <trkpt lat="44.62205" lon="2.98769">
        <ele>1298.88</ele>
        <time>2020-08-26T11:51:08Z</time>
      </trkpt>
      <trkpt lat="44.62199" lon="2.98767">
        <ele>1299.36</ele>
        <time>2020-08-26T11:51:32Z</time>
      </trkpt>
      <trkpt lat="44.622" lon="2.98757">
        <ele>1298.88</ele>
        <time>2020-08-26T11:51:55Z</time>
      </trkpt>
      <trkpt lat="44.62198" lon="2.9876">
        <ele>1298.88</ele>
        <time>2020-08-26T11:52:23Z</time>
      </trkpt>
      <trkpt lat="44.62199" lon="2.98764">
        <ele>1298.4</ele>
        <time>2020-08-26T11:52:54Z</time>
      </trkpt>
      <trkpt lat="44.62199" lon="2.98765">
        <ele>1298.4</ele>
        <time>2020-08-26T11:53:20Z</time>
      </trkpt>
      <trkpt lat="44.62196" lon="2.98765">
        <ele>1297.92</ele>
        <time>2020-08-26T11:53:44Z</time>
      </trkpt>
      <trkpt lat="44.62199" lon="2.98766">
        <ele>1297.92</ele>
        <time>2020-08-26T11:54:14Z</time>
      </trkpt>
      <trkpt lat="44.62199" lon="2.98769">
        <ele>1297.92</ele>
        <time>2020-08-26T11:54:34Z</time>
      </trkpt>
      <trkpt lat="44.62194" lon="2.98779">
        <ele>1297.92</ele>
        <time>2020-08-26T11:55:01Z</time>
      </trkpt>
      <trkpt lat="44.62196" lon="2.98777">
        <ele>1297.92</ele>
        <time>2020-08-26T11:55:28Z</time>
      </trkpt>
      <trkpt lat="44.62203" lon="2.98779">
        <ele>1297.92</ele>
        <time>2020-08-26T11:55:42Z</time>
      </trkpt>
      <trkpt lat="44.62212" lon="2.98787">
        <ele>1297.92</ele>
        <time>2020-08-26T11:56:00Z</time>
      </trkpt>
      <trkpt lat="44.62218" lon="2.98787">
        <ele>1296.96</ele>
        <time>2020-08-26T11:56:13Z</time>
      </trkpt>
      <trkpt lat="44.62217" lon="2.98784">
        <ele>1296.96</ele>
        <time>2020-08-26T11:56:31Z</time>
      </trkpt>
      <trkpt lat="44.62213" lon="2.98791">
        <ele>1296.96</ele>
        <time>2020-08-26T11:56:49Z</time>
      </trkpt>
      <trkpt lat="44.62207" lon="2.98793">
        <ele>1296.96</ele>
        <time>2020-08-26T11:57:05Z</time>
      </trkpt>
      <trkpt lat="44.62213" lon="2.98791">
        <ele>1296.96</ele>
        <time>2020-08-26T11:57:18Z</time>
      </trkpt>
      <trkpt lat="44.62214" lon="2.98789">
        <ele>1296.96</ele>
        <time>2020-08-26T11:57:34Z</time>
      </trkpt>
      <trkpt lat="44.62211" lon="2.98788">
        <ele>1296.96</ele>
        <time>2020-08-26T11:57:43Z</time>
      </trkpt>
      <trkpt lat="44.6221" lon="2.9879">
        <ele>1296.96</ele>
        <time>2020-08-26T11:58:08Z</time>
      </trkpt>
      <trkpt lat="44.62204" lon="2.98785">
        <ele>1297.92</ele>
        <time>2020-08-26T11:58:17Z</time>
      </trkpt>
      <trkpt lat="44.62197" lon="2.98774">
        <ele>1297.92</ele>
        <time>2020-08-26T11:58:30Z</time>
      </trkpt>
      <trkpt lat="44.62194" lon="2.98774">
        <ele>1298.4</ele>
        <time>2020-08-26T11:58:43Z</time>
      </trkpt>
      <trkpt lat="44.62193" lon="2.98778">
        <ele>1298.4</ele>
        <time>2020-08-26T11:59:13Z</time>
      </trkpt>
      <trkpt lat="44.62194" lon="2.98778">
        <ele>1298.4</ele>
        <time>2020-08-26T11:59:47Z</time>
      </trkpt>
      <trkpt lat="44.62194" lon="2.98777">
        <ele>1297.44</ele>
        <time>2020-08-26T12:00:05Z</time>
      </trkpt>
      <trkpt lat="44.62196" lon="2.98775">
        <ele>1297.44</ele>
        <time>2020-08-26T12:00:22Z</time>
      </trkpt>
      <trkpt lat="44.62202" lon="2.98772">
        <ele>1300.32</ele>
        <time>2020-08-26T12:00:36Z</time>
      </trkpt>
      <trkpt lat="44.62204" lon="2.98772">
        <ele>1298.4</ele>
        <time>2020-08-26T12:00:38Z</time>
      </trkpt>
      <trkpt lat="44.62198" lon="2.98775">
        <ele>1297.92</ele>
        <time>2020-08-26T12:00:55Z</time>
      </trkpt>
      <trkpt lat="44.62194" lon="2.98776">
        <ele>1297.44</ele>
        <time>2020-08-26T12:01:02Z</time>
      </trkpt>
      <trkpt lat="44.62194" lon="2.98779">
        <ele>1297.92</ele>
        <time>2020-08-26T12:01:13Z</time>
      </trkpt>
      <trkpt lat="44.62204" lon="2.98774">
        <ele>1298.4</ele>
        <time>2020-08-26T12:01:23Z</time>
      </trkpt>
      <trkpt lat="44.62212" lon="2.98769">
        <ele>1298.4</ele>
        <time>2020-08-26T12:01:33Z</time>
      </trkpt>
      <trkpt lat="44.62214" lon="2.98759">
        <ele>1298.88</ele>
        <time>2020-08-26T12:01:42Z</time>
      </trkpt>
      <trkpt lat="44.62215" lon="2.98755">
        <ele>1298.88</ele>
        <time>2020-08-26T12:01:45Z</time>
      </trkpt>
      <trkpt lat="44.62216" lon="2.98752">
        <ele>1298.88</ele>
        <time>2020-08-26T12:01:47Z</time>
      </trkpt>
      <trkpt lat="44.62219" lon="2.98745">
        <ele>1299.84</ele>
        <time>2020-08-26T12:01:54Z</time>
      </trkpt>
      <trkpt lat="44.62224" lon="2.98734">
        <ele>1300.32</ele>
        <time>2020-08-26T12:02:06Z</time>
      </trkpt>
      <trkpt lat="44.62225" lon="2.98725">
        <ele>1299.36</ele>
        <time>2020-08-26T12:02:23Z</time>
      </trkpt>
      <trkpt lat="44.62228" lon="2.9873">
        <ele>1299.36</ele>
        <time>2020-08-26T12:04:55Z</time>
      </trkpt>
      <trkpt lat="44.62218" lon="2.98742">
        <ele>1299.36</ele>
        <time>2020-08-26T12:05:07Z</time>
      </trkpt>
      <trkpt lat="44.62218" lon="2.98744">
        <ele>1299.36</ele>
        <time>2020-08-26T12:05:09Z</time>
      </trkpt>
      <trkpt lat="44.62212" lon="2.98756">
        <ele>1299.36</ele>
        <time>2020-08-26T12:05:24Z</time>
      </trkpt>
      <trkpt lat="44.62209" lon="2.98756">
        <ele>1298.88</ele>
        <time>2020-08-26T12:05:28Z</time>
      </trkpt>
      <trkpt lat="44.62201" lon="2.9875">
        <ele>1298.88</ele>
        <time>2020-08-26T12:05:42Z</time>
      </trkpt>
      <trkpt lat="44.62199" lon="2.98748">
        <ele>1298.88</ele>
        <time>2020-08-26T12:05:57Z</time>
      </trkpt>
      <trkpt lat="44.62202" lon="2.98747">
        <ele>1298.88</ele>
        <time>2020-08-26T12:06:26Z</time>
      </trkpt>
      <trkpt lat="44.62206" lon="2.98746">
        <ele>1299.84</ele>
        <time>2020-08-26T12:06:55Z</time>
      </trkpt>
      <trkpt lat="44.62214" lon="2.98758">
        <ele>1299.84</ele>
        <time>2020-08-26T12:07:14Z</time>
      </trkpt>
      <trkpt lat="44.62209" lon="2.9877">
        <ele>1298.4</ele>
        <time>2020-08-26T12:07:28Z</time>
      </trkpt>
      <trkpt lat="44.62201" lon="2.98771">
        <ele>1297.92</ele>
        <time>2020-08-26T12:07:41Z</time>
      </trkpt>
      <trkpt lat="44.62196" lon="2.98768">
        <ele>1297.92</ele>
        <time>2020-08-26T12:07:55Z</time>
      </trkpt>
      <trkpt lat="44.62194" lon="2.98772">
        <ele>1297.92</ele>
        <time>2020-08-26T12:08:17Z</time>
      </trkpt>
      <trkpt lat="44.62195" lon="2.98775">
        <ele>1297.92</ele>
        <time>2020-08-26T12:08:35Z</time>
      </trkpt>
      <trkpt lat="44.62196" lon="2.98777">
        <ele>1297.92</ele>
        <time>2020-08-26T12:08:53Z</time>
      </trkpt>
      <trkpt lat="44.62194" lon="2.98778">
        <ele>1297.92</ele>
        <time>2020-08-26T12:09:13Z</time>
      </trkpt>
      <trkpt lat="44.62194" lon="2.98777">
        <ele>1297.92</ele>
        <time>2020-08-26T12:09:33Z</time>
      </trkpt>
      <trkpt lat="44.62191" lon="2.98776">
        <ele>1297.92</ele>
        <time>2020-08-26T12:09:52Z</time>
      </trkpt>
      <trkpt lat="44.62178" lon="2.98778">
        <ele>1297.92</ele>
        <time>2020-08-26T12:10:08Z</time>
      </trkpt>
      <trkpt lat="44.62164" lon="2.98771">
        <ele>1296.96</ele>
        <time>2020-08-26T12:10:24Z</time>
      </trkpt>
      <trkpt lat="44.6216" lon="2.98765">
        <ele>1298.4</ele>
        <time>2020-08-26T12:10:32Z</time>
      </trkpt>
      <trkpt lat="44.62153" lon="2.98749">
        <ele>1298.88</ele>
        <time>2020-08-26T12:10:45Z</time>
      </trkpt>
      <trkpt lat="44.62153" lon="2.98743">
        <ele>1299.36</ele>
        <time>2020-08-26T12:10:50Z</time>
      </trkpt>
      <trkpt lat="44.62154" lon="2.9873">
        <ele>1300.32</ele>
        <time>2020-08-26T12:11:01Z</time>
      </trkpt>
      <trkpt lat="44.62155" lon="2.98715">
        <ele>1300.8</ele>
        <time>2020-08-26T12:11:14Z</time>
      </trkpt>
      <trkpt lat="44.62156" lon="2.98701">
        <ele>1301.28</ele>
        <time>2020-08-26T12:11:28Z</time>
      </trkpt>
      <trkpt lat="44.6216" lon="2.98686">
        <ele>1302.72</ele>
        <time>2020-08-26T12:11:42Z</time>
      </trkpt>
      <trkpt lat="44.62165" lon="2.98675">
        <ele>1303.69</ele>
        <time>2020-08-26T12:11:55Z</time>
      </trkpt>
      <trkpt lat="44.62168" lon="2.98665">
        <ele>1304.17</ele>
        <time>2020-08-26T12:12:09Z</time>
      </trkpt>
      <trkpt lat="44.62169" lon="2.98662">
        <ele>1304.65</ele>
        <time>2020-08-26T12:12:38Z</time>
      </trkpt>
      <trkpt lat="44.62169" lon="2.98661">
        <ele>1304.65</ele>
        <time>2020-08-26T12:12:59Z</time>
      </trkpt>
      <trkpt lat="44.62172" lon="2.98659">
        <ele>1304.65</ele>
        <time>2020-08-26T12:13:16Z</time>
      </trkpt>
      <trkpt lat="44.62174" lon="2.98658">
        <ele>1304.65</ele>
        <time>2020-08-26T12:13:43Z</time>
      </trkpt>
      <trkpt lat="44.62177" lon="2.98654">
        <ele>1304.65</ele>
        <time>2020-08-26T12:14:09Z</time>
      </trkpt>
      <trkpt lat="44.62177" lon="2.98638">
        <ele>1304.65</ele>
        <time>2020-08-26T12:14:21Z</time>
      </trkpt>
      <trkpt lat="44.6218" lon="2.98625">
        <ele>1305.13</ele>
        <time>2020-08-26T12:14:33Z</time>
      </trkpt>
      <trkpt lat="44.62179" lon="2.98611">
        <ele>1306.09</ele>
        <time>2020-08-26T12:14:47Z</time>
      </trkpt>
      <trkpt lat="44.62174" lon="2.98598">
        <ele>1307.05</ele>
        <time>2020-08-26T12:15:02Z</time>
      </trkpt>
      <trkpt lat="44.62171" lon="2.98585">
        <ele>1307.05</ele>
        <time>2020-08-26T12:15:18Z</time>
      </trkpt>
      <trkpt lat="44.62168" lon="2.98575">
        <ele>1306.57</ele>
        <time>2020-08-26T12:15:37Z</time>
      </trkpt>
      <trkpt lat="44.62166" lon="2.98557">
        <ele>1306.57</ele>
        <time>2020-08-26T12:15:50Z</time>
      </trkpt>
      <trkpt lat="44.62166" lon="2.98554">
        <ele>1306.57</ele>
        <time>2020-08-26T12:15:52Z</time>
      </trkpt>
      <trkpt lat="44.62164" lon="2.98551">
        <ele>1306.57</ele>
        <time>2020-08-26T12:15:54Z</time>
      </trkpt>
      <trkpt lat="44.62161" lon="2.98532">
        <ele>1307.53</ele>
        <time>2020-08-26T12:16:07Z</time>
      </trkpt>
      <trkpt lat="44.6216" lon="2.98522">
        <ele>1308.01</ele>
        <time>2020-08-26T12:16:13Z</time>
      </trkpt>
      <trkpt lat="44.62156" lon="2.985">
        <ele>1308.49</ele>
        <time>2020-08-26T12:16:27Z</time>
      </trkpt>
      <trkpt lat="44.62151" lon="2.98477">
        <ele>1309.45</ele>
        <time>2020-08-26T12:16:43Z</time>
      </trkpt>
      <trkpt lat="44.62146" lon="2.98453">
        <ele>1309.93</ele>
        <time>2020-08-26T12:17:01Z</time>
      </trkpt>
      <trkpt lat="44.62139" lon="2.98429">
        <ele>1309.93</ele>
        <time>2020-08-26T12:17:19Z</time>
      </trkpt>
      <trkpt lat="44.62136" lon="2.98422">
        <ele>1310.41</ele>
        <time>2020-08-26T12:17:25Z</time>
      </trkpt>
      <trkpt lat="44.62131" lon="2.9841">
        <ele>1311.38</ele>
        <time>2020-08-26T12:17:39Z</time>
      </trkpt>
      <trkpt lat="44.62131" lon="2.9841">
        <ele>1311.38</ele>
        <time>2020-08-26T12:17:57Z</time>
      </trkpt>
      <trkpt lat="44.62131" lon="2.98409">
        <ele>1311.38</ele>
        <time>2020-08-26T12:18:19Z</time>
      </trkpt>
      <trkpt lat="44.62132" lon="2.98409">
        <ele>1311.38</ele>
        <time>2020-08-26T12:18:49Z</time>
      </trkpt>
      <trkpt lat="44.62128" lon="2.98404">
        <ele>1311.38</ele>
        <time>2020-08-26T12:19:06Z</time>
      </trkpt>
      <trkpt lat="44.62116" lon="2.98388">
        <ele>1311.86</ele>
        <time>2020-08-26T12:19:23Z</time>
      </trkpt>
      <trkpt lat="44.62104" lon="2.98373">
        <ele>1313.3</ele>
        <time>2020-08-26T12:19:39Z</time>
      </trkpt>
      <trkpt lat="44.62098" lon="2.98365">
        <ele>1312.82</ele>
        <time>2020-08-26T12:19:48Z</time>
      </trkpt>
      <trkpt lat="44.6209" lon="2.98347">
        <ele>1312.82</ele>
        <time>2020-08-26T12:20:04Z</time>
      </trkpt>
      <trkpt lat="44.62085" lon="2.98334">
        <ele>1314.26</ele>
        <time>2020-08-26T12:20:14Z</time>
      </trkpt>
      <trkpt lat="44.62079" lon="2.98313">
        <ele>1314.74</ele>
        <time>2020-08-26T12:20:30Z</time>
      </trkpt>
      <trkpt lat="44.62073" lon="2.98293">
        <ele>1315.22</ele>
        <time>2020-08-26T12:20:46Z</time>
      </trkpt>
      <trkpt lat="44.62066" lon="2.98271">
        <ele>1316.18</ele>
        <time>2020-08-26T12:21:03Z</time>
      </trkpt>
      <trkpt lat="44.62059" lon="2.98253">
        <ele>1316.18</ele>
        <time>2020-08-26T12:21:17Z</time>
      </trkpt>
      <trkpt lat="44.62046" lon="2.98236">
        <ele>1316.18</ele>
        <time>2020-08-26T12:21:33Z</time>
      </trkpt>
      <trkpt lat="44.62042" lon="2.98232">
        <ele>1314.74</ele>
        <time>2020-08-26T12:21:38Z</time>
      </trkpt>
      <trkpt lat="44.62027" lon="2.98214">
        <ele>1314.74</ele>
        <time>2020-08-26T12:21:57Z</time>
      </trkpt>
      <trkpt lat="44.62013" lon="2.98198">
        <ele>1314.26</ele>
        <time>2020-08-26T12:22:15Z</time>
      </trkpt>
      <trkpt lat="44.6201" lon="2.98195">
        <ele>1315.22</ele>
        <time>2020-08-26T12:22:19Z</time>
      </trkpt>
      <trkpt lat="44.62008" lon="2.98193">
        <ele>1313.78</ele>
        <time>2020-08-26T12:22:22Z</time>
      </trkpt>
      <trkpt lat="44.61992" lon="2.98175">
        <ele>1313.78</ele>
        <time>2020-08-26T12:22:41Z</time>
      </trkpt>
      <trkpt lat="44.61991" lon="2.98173">
        <ele>1313.78</ele>
        <time>2020-08-26T12:22:43Z</time>
      </trkpt>
      <trkpt lat="44.61984" lon="2.98158">
        <ele>1313.3</ele>
        <time>2020-08-26T12:23:00Z</time>
      </trkpt>
      <trkpt lat="44.61977" lon="2.98135">
        <ele>1312.34</ele>
        <time>2020-08-26T12:23:18Z</time>
      </trkpt>
      <trkpt lat="44.61969" lon="2.98106">
        <ele>1312.34</ele>
        <time>2020-08-26T12:23:39Z</time>
      </trkpt>
      <trkpt lat="44.61962" lon="2.98079">
        <ele>1312.34</ele>
        <time>2020-08-26T12:23:58Z</time>
      </trkpt>
      <trkpt lat="44.61955" lon="2.98053">
        <ele>1311.86</ele>
        <time>2020-08-26T12:24:16Z</time>
      </trkpt>
      <trkpt lat="44.61953" lon="2.98049">
        <ele>1311.86</ele>
        <time>2020-08-26T12:24:19Z</time>
      </trkpt>
      <trkpt lat="44.61946" lon="2.98017">
        <ele>1310.9</ele>
        <time>2020-08-26T12:24:40Z</time>
      </trkpt>
      <trkpt lat="44.6194" lon="2.97994">
        <ele>1310.9</ele>
        <time>2020-08-26T12:24:56Z</time>
      </trkpt>
      <trkpt lat="44.61936" lon="2.97977">
        <ele>1310.41</ele>
        <time>2020-08-26T12:25:08Z</time>
      </trkpt>
      <trkpt lat="44.61935" lon="2.97972">
        <ele>1310.41</ele>
        <time>2020-08-26T12:25:23Z</time>
      </trkpt>
      <trkpt lat="44.61934" lon="2.97971">
        <ele>1310.41</ele>
        <time>2020-08-26T12:25:53Z</time>
      </trkpt>
      <trkpt lat="44.61934" lon="2.97967">
        <ele>1309.93</ele>
        <time>2020-08-26T12:26:10Z</time>
      </trkpt>
      <trkpt lat="44.61927" lon="2.97941">
        <ele>1309.93</ele>
        <time>2020-08-26T12:26:30Z</time>
      </trkpt>
      <trkpt lat="44.61921" lon="2.9791">
        <ele>1309.45</ele>
        <time>2020-08-26T12:26:52Z</time>
      </trkpt>
      <trkpt lat="44.61917" lon="2.97885">
        <ele>1308.97</ele>
        <time>2020-08-26T12:27:12Z</time>
      </trkpt>
      <trkpt lat="44.61912" lon="2.97867">
        <ele>1307.05</ele>
        <time>2020-08-26T12:27:28Z</time>
      </trkpt>
      <trkpt lat="44.61907" lon="2.97847">
        <ele>1305.13</ele>
        <time>2020-08-26T12:27:43Z</time>
      </trkpt>
      <trkpt lat="44.61898" lon="2.9782">
        <ele>1304.17</ele>
        <time>2020-08-26T12:28:03Z</time>
      </trkpt>
      <trkpt lat="44.61894" lon="2.97809">
        <ele>1304.17</ele>
        <time>2020-08-26T12:28:11Z</time>
      </trkpt>
      <trkpt lat="44.61892" lon="2.97795">
        <ele>1303.69</ele>
        <time>2020-08-26T12:28:21Z</time>
      </trkpt>
      <trkpt lat="44.61887" lon="2.97776">
        <ele>1303.2</ele>
        <time>2020-08-26T12:28:35Z</time>
      </trkpt>
      <trkpt lat="44.6188" lon="2.97758">
        <ele>1301.28</ele>
        <time>2020-08-26T12:28:50Z</time>
      </trkpt>
      <trkpt lat="44.61877" lon="2.97749">
        <ele>1300.8</ele>
        <time>2020-08-26T12:28:59Z</time>
      </trkpt>
      <trkpt lat="44.61875" lon="2.97739">
        <ele>1299.36</ele>
        <time>2020-08-26T12:29:08Z</time>
      </trkpt>
      <trkpt lat="44.61874" lon="2.97737">
        <ele>1299.36</ele>
        <time>2020-08-26T12:29:10Z</time>
      </trkpt>
      <trkpt lat="44.61868" lon="2.97712">
        <ele>1296.96</ele>
        <time>2020-08-26T12:29:28Z</time>
      </trkpt>
      <trkpt lat="44.61867" lon="2.97706">
        <ele>1295.99</ele>
        <time>2020-08-26T12:29:34Z</time>
      </trkpt>
      <trkpt lat="44.61863" lon="2.9769">
        <ele>1294.55</ele>
        <time>2020-08-26T12:29:45Z</time>
      </trkpt>
      <trkpt lat="44.61852" lon="2.97655">
        <ele>1294.55</ele>
        <time>2020-08-26T12:30:05Z</time>
      </trkpt>
      <trkpt lat="44.61842" lon="2.97626">
        <ele>1294.55</ele>
        <time>2020-08-26T12:30:26Z</time>
      </trkpt>
      <trkpt lat="44.61833" lon="2.97604">
        <ele>1294.55</ele>
        <time>2020-08-26T12:30:43Z</time>
      </trkpt>
      <trkpt lat="44.61831" lon="2.97597">
        <ele>1294.55</ele>
        <time>2020-08-26T12:30:48Z</time>
      </trkpt>
      <trkpt lat="44.61819" lon="2.9757">
        <ele>1294.55</ele>
        <time>2020-08-26T12:31:07Z</time>
      </trkpt>
      <trkpt lat="44.61816" lon="2.97564">
        <ele>1294.55</ele>
        <time>2020-08-26T12:31:11Z</time>
      </trkpt>
      <trkpt lat="44.61807" lon="2.97537">
        <ele>1294.07</ele>
        <time>2020-08-26T12:31:30Z</time>
      </trkpt>
      <trkpt lat="44.61806" lon="2.97533">
        <ele>1293.59</ele>
        <time>2020-08-26T12:31:33Z</time>
      </trkpt>
      <trkpt lat="44.61797" lon="2.97515">
        <ele>1293.11</ele>
        <time>2020-08-26T12:31:49Z</time>
      </trkpt>
      <trkpt lat="44.61795" lon="2.97509">
        <ele>1293.11</ele>
        <time>2020-08-26T12:32:02Z</time>
      </trkpt>
      <trkpt lat="44.61793" lon="2.9751">
        <ele>1293.11</ele>
        <time>2020-08-26T12:32:31Z</time>
      </trkpt>
      <trkpt lat="44.61796" lon="2.9751">
        <ele>1293.11</ele>
        <time>2020-08-26T12:33:15Z</time>
      </trkpt>
      <trkpt lat="44.61793" lon="2.97513">
        <ele>1293.59</ele>
        <time>2020-08-26T12:33:52Z</time>
      </trkpt>
      <trkpt lat="44.61794" lon="2.97516">
        <ele>1294.07</ele>
        <time>2020-08-26T12:34:32Z</time>
      </trkpt>
      <trkpt lat="44.61794" lon="2.97515">
        <ele>1295.51</ele>
        <time>2020-08-26T12:35:10Z</time>
      </trkpt>
      <trkpt lat="44.61794" lon="2.97515">
        <ele>1295.51</ele>
        <time>2020-08-26T12:35:11Z</time>
      </trkpt>
      <trkpt lat="44.6179" lon="2.97516">
        <ele>1292.63</ele>
        <time>2020-08-26T12:35:25Z</time>
      </trkpt>
      <trkpt lat="44.61781" lon="2.97507">
        <ele>1291.67</ele>
        <time>2020-08-26T12:35:40Z</time>
      </trkpt>
      <trkpt lat="44.61778" lon="2.97489">
        <ele>1290.23</ele>
        <time>2020-08-26T12:35:55Z</time>
      </trkpt>
      <trkpt lat="44.61777" lon="2.97487">
        <ele>1289.75</ele>
        <time>2020-08-26T12:36:12Z</time>
      </trkpt>
      <trkpt lat="44.61777" lon="2.97473">
        <ele>1288.78</ele>
        <time>2020-08-26T12:36:25Z</time>
      </trkpt>
      <trkpt lat="44.61779" lon="2.97458">
        <ele>1287.34</ele>
        <time>2020-08-26T12:36:39Z</time>
      </trkpt>
      <trkpt lat="44.61782" lon="2.97442">
        <ele>1284.94</ele>
        <time>2020-08-26T12:36:53Z</time>
      </trkpt>
      <trkpt lat="44.61784" lon="2.97426">
        <ele>1283.02</ele>
        <time>2020-08-26T12:37:08Z</time>
      </trkpt>
      <trkpt lat="44.6179" lon="2.97409">
        <ele>1281.57</ele>
        <time>2020-08-26T12:37:23Z</time>
      </trkpt>
      <trkpt lat="44.61796" lon="2.97395">
        <ele>1279.65</ele>
        <time>2020-08-26T12:37:37Z</time>
      </trkpt>
      <trkpt lat="44.61801" lon="2.97385">
        <ele>1277.73</ele>
        <time>2020-08-26T12:37:49Z</time>
      </trkpt>
      <trkpt lat="44.61806" lon="2.97369">
        <ele>1275.33</ele>
        <time>2020-08-26T12:38:03Z</time>
      </trkpt>
      <trkpt lat="44.6181" lon="2.97356">
        <ele>1272.92</ele>
        <time>2020-08-26T12:38:17Z</time>
      </trkpt>
      <trkpt lat="44.61817" lon="2.97342">
        <ele>1271.48</ele>
        <time>2020-08-26T12:38:29Z</time>
      </trkpt>
      <trkpt lat="44.61826" lon="2.97325">
        <ele>1270.04</ele>
        <time>2020-08-26T12:38:44Z</time>
      </trkpt>
      <trkpt lat="44.61834" lon="2.97307">
        <ele>1267.16</ele>
        <time>2020-08-26T12:39:01Z</time>
      </trkpt>
      <trkpt lat="44.61834" lon="2.97306">
        <ele>1267.16</ele>
        <time>2020-08-26T12:39:02Z</time>
      </trkpt>
      <trkpt lat="44.6184" lon="2.97285">
        <ele>1265.23</ele>
        <time>2020-08-26T12:39:19Z</time>
      </trkpt>
      <trkpt lat="44.61847" lon="2.97269">
        <ele>1262.83</ele>
        <time>2020-08-26T12:39:34Z</time>
      </trkpt>
      <trkpt lat="44.61851" lon="2.97256">
        <ele>1260.91</ele>
        <time>2020-08-26T12:39:49Z</time>
      </trkpt>
      <trkpt lat="44.61853" lon="2.97232">
        <ele>1258.98</ele>
        <time>2020-08-26T12:40:04Z</time>
      </trkpt>
      <trkpt lat="44.6185" lon="2.97222">
        <ele>1258.02</ele>
        <time>2020-08-26T12:40:10Z</time>
      </trkpt>
      <trkpt lat="44.61844" lon="2.97201">
        <ele>1256.58</ele>
        <time>2020-08-26T12:40:25Z</time>
      </trkpt>
      <trkpt lat="44.61835" lon="2.97178">
        <ele>1255.62</ele>
        <time>2020-08-26T12:40:42Z</time>
      </trkpt>
      <trkpt lat="44.61829" lon="2.97158">
        <ele>1255.14</ele>
        <time>2020-08-26T12:40:58Z</time>
      </trkpt>
      <trkpt lat="44.61828" lon="2.9715">
        <ele>1255.14</ele>
        <time>2020-08-26T12:41:12Z</time>
      </trkpt>
      <trkpt lat="44.61825" lon="2.97141">
        <ele>1255.14</ele>
        <time>2020-08-26T12:41:38Z</time>
      </trkpt>
      <trkpt lat="44.61822" lon="2.97133">
        <ele>1255.14</ele>
        <time>2020-08-26T12:41:55Z</time>
      </trkpt>
      <trkpt lat="44.61821" lon="2.97122">
        <ele>1254.66</ele>
        <time>2020-08-26T12:42:10Z</time>
      </trkpt>
      <trkpt lat="44.61824" lon="2.97118">
        <ele>1254.18</ele>
        <time>2020-08-26T12:42:30Z</time>
      </trkpt>
      <trkpt lat="44.61826" lon="2.97122">
        <ele>1254.18</ele>
        <time>2020-08-26T12:43:05Z</time>
      </trkpt>
      <trkpt lat="44.61822" lon="2.97105">
        <ele>1254.18</ele>
        <time>2020-08-26T12:43:24Z</time>
      </trkpt>
      <trkpt lat="44.61815" lon="2.97077">
        <ele>1253.7</ele>
        <time>2020-08-26T12:43:43Z</time>
      </trkpt>
      <trkpt lat="44.61813" lon="2.97066">
        <ele>1252.74</ele>
        <time>2020-08-26T12:43:49Z</time>
      </trkpt>
      <trkpt lat="44.61808" lon="2.97041">
        <ele>1251.77</ele>
        <time>2020-08-26T12:44:07Z</time>
      </trkpt>
      <trkpt lat="44.61804" lon="2.97018">
        <ele>1249.37</ele>
        <time>2020-08-26T12:44:25Z</time>
      </trkpt>
      <trkpt lat="44.61802" lon="2.96998">
        <ele>1248.41</ele>
        <time>2020-08-26T12:44:40Z</time>
      </trkpt>
      <trkpt lat="44.61798" lon="2.96978">
        <ele>1246.49</ele>
        <time>2020-08-26T12:44:56Z</time>
      </trkpt>
      <trkpt lat="44.6179" lon="2.96955">
        <ele>1244.08</ele>
        <time>2020-08-26T12:45:14Z</time>
      </trkpt>
      <trkpt lat="44.61782" lon="2.96938">
        <ele>1242.64</ele>
        <time>2020-08-26T12:45:30Z</time>
      </trkpt>
      <trkpt lat="44.61777" lon="2.96919">
        <ele>1241.2</ele>
        <time>2020-08-26T12:45:45Z</time>
      </trkpt>
      <trkpt lat="44.61771" lon="2.96901">
        <ele>1239.28</ele>
        <time>2020-08-26T12:46:02Z</time>
      </trkpt>
      <trkpt lat="44.61776" lon="2.96882">
        <ele>1237.83</ele>
        <time>2020-08-26T12:46:18Z</time>
      </trkpt>
      <trkpt lat="44.61776" lon="2.96871">
        <ele>1237.83</ele>
        <time>2020-08-26T12:46:30Z</time>
      </trkpt>
      <trkpt lat="44.61768" lon="2.96858">
        <ele>1238.8</ele>
        <time>2020-08-26T12:46:44Z</time>
      </trkpt>
      <trkpt lat="44.61755" lon="2.96844">
        <ele>1238.8</ele>
        <time>2020-08-26T12:47:00Z</time>
      </trkpt>
      <trkpt lat="44.61753" lon="2.96843">
        <ele>1239.28</ele>
        <time>2020-08-26T12:47:02Z</time>
      </trkpt>
      <trkpt lat="44.61738" lon="2.96832">
        <ele>1239.76</ele>
        <time>2020-08-26T12:47:19Z</time>
      </trkpt>
      <trkpt lat="44.61723" lon="2.96821">
        <ele>1239.76</ele>
        <time>2020-08-26T12:47:35Z</time>
      </trkpt>
      <trkpt lat="44.61712" lon="2.96811">
        <ele>1239.76</ele>
        <time>2020-08-26T12:47:51Z</time>
      </trkpt>
      <trkpt lat="44.61702" lon="2.96804">
        <ele>1239.76</ele>
        <time>2020-08-26T12:48:04Z</time>
      </trkpt>
      <trkpt lat="44.61693" lon="2.96794">
        <ele>1238.32</ele>
        <time>2020-08-26T12:48:14Z</time>
      </trkpt>
      <trkpt lat="44.61677" lon="2.96784">
        <ele>1237.83</ele>
        <time>2020-08-26T12:48:30Z</time>
      </trkpt>
      <trkpt lat="44.61663" lon="2.96773">
        <ele>1236.87</ele>
        <time>2020-08-26T12:48:44Z</time>
      </trkpt>
      <trkpt lat="44.61651" lon="2.96765">
        <ele>1236.39</ele>
        <time>2020-08-26T12:48:58Z</time>
      </trkpt>
      <trkpt lat="44.6164" lon="2.96754">
        <ele>1235.43</ele>
        <time>2020-08-26T12:49:13Z</time>
      </trkpt>
      <trkpt lat="44.6163" lon="2.96743">
        <ele>1233.99</ele>
        <time>2020-08-26T12:49:26Z</time>
      </trkpt>
      <trkpt lat="44.61617" lon="2.96726">
        <ele>1232.55</ele>
        <time>2020-08-26T12:49:41Z</time>
      </trkpt>
      <trkpt lat="44.61604" lon="2.9671">
        <ele>1231.11</ele>
        <time>2020-08-26T12:49:56Z</time>
      </trkpt>
      <trkpt lat="44.61596" lon="2.96703">
        <ele>1230.14</ele>
        <time>2020-08-26T12:50:09Z</time>
      </trkpt>
      <trkpt lat="44.61582" lon="2.96688">
        <ele>1228.22</ele>
        <time>2020-08-26T12:50:25Z</time>
      </trkpt>
      <trkpt lat="44.61569" lon="2.96677">
        <ele>1226.78</ele>
        <time>2020-08-26T12:50:41Z</time>
      </trkpt>
      <trkpt lat="44.61552" lon="2.96667">
        <ele>1223.9</ele>
        <time>2020-08-26T12:50:59Z</time>
      </trkpt>
      <trkpt lat="44.61534" lon="2.96654">
        <ele>1221.97</ele>
        <time>2020-08-26T12:51:16Z</time>
      </trkpt>
      <trkpt lat="44.61516" lon="2.96643">
        <ele>1220.05</ele>
        <time>2020-08-26T12:51:34Z</time>
      </trkpt>
      <trkpt lat="44.61503" lon="2.96635">
        <ele>1218.13</ele>
        <time>2020-08-26T12:51:49Z</time>
      </trkpt>
      <trkpt lat="44.61494" lon="2.96627">
        <ele>1216.69</ele>
        <time>2020-08-26T12:52:01Z</time>
      </trkpt>
      <trkpt lat="44.61484" lon="2.96615">
        <ele>1214.76</ele>
        <time>2020-08-26T12:52:17Z</time>
      </trkpt>
      <trkpt lat="44.61468" lon="2.96601">
        <ele>1213.8</ele>
        <time>2020-08-26T12:52:33Z</time>
      </trkpt>
      <trkpt lat="44.61455" lon="2.96585">
        <ele>1212.36</ele>
        <time>2020-08-26T12:52:49Z</time>
      </trkpt>
      <trkpt lat="44.61443" lon="2.9657">
        <ele>1210.92</ele>
        <time>2020-08-26T12:53:05Z</time>
      </trkpt>
      <trkpt lat="44.61431" lon="2.96553">
        <ele>1209.48</ele>
        <time>2020-08-26T12:53:22Z</time>
      </trkpt>
      <trkpt lat="44.61417" lon="2.96543">
        <ele>1208.51</ele>
        <time>2020-08-26T12:53:36Z</time>
      </trkpt>
      <trkpt lat="44.61403" lon="2.96536">
        <ele>1207.55</ele>
        <time>2020-08-26T12:53:49Z</time>
      </trkpt>
      <trkpt lat="44.61387" lon="2.9653">
        <ele>1207.07</ele>
        <time>2020-08-26T12:54:04Z</time>
      </trkpt>
      <trkpt lat="44.61373" lon="2.96529">
        <ele>1205.63</ele>
        <time>2020-08-26T12:54:19Z</time>
      </trkpt>
      <trkpt lat="44.61352" lon="2.96522">
        <ele>1204.67</ele>
        <time>2020-08-26T12:54:38Z</time>
      </trkpt>
      <trkpt lat="44.61338" lon="2.96518">
        <ele>1203.71</ele>
        <time>2020-08-26T12:54:52Z</time>
      </trkpt>
      <trkpt lat="44.61324" lon="2.96515">
        <ele>1202.75</ele>
        <time>2020-08-26T12:55:05Z</time>
      </trkpt>
      <trkpt lat="44.61308" lon="2.96512">
        <ele>1200.34</ele>
        <time>2020-08-26T12:55:20Z</time>
      </trkpt>
      <trkpt lat="44.61289" lon="2.96504">
        <ele>1199.38</ele>
        <time>2020-08-26T12:55:37Z</time>
      </trkpt>
      <trkpt lat="44.61275" lon="2.96498">
        <ele>1197.94</ele>
        <time>2020-08-26T12:55:52Z</time>
      </trkpt>
      <trkpt lat="44.61265" lon="2.96497">
        <ele>1196.98</ele>
        <time>2020-08-26T12:56:06Z</time>
      </trkpt>
      <trkpt lat="44.61252" lon="2.96495">
        <ele>1196.5</ele>
        <time>2020-08-26T12:56:20Z</time>
      </trkpt>
      <trkpt lat="44.61245" lon="2.96494">
        <ele>1196.5</ele>
        <time>2020-08-26T12:56:25Z</time>
      </trkpt>
      <trkpt lat="44.61238" lon="2.96491">
        <ele>1196.02</ele>
        <time>2020-08-26T12:56:31Z</time>
      </trkpt>
      <trkpt lat="44.61218" lon="2.96481">
        <ele>1195.06</ele>
        <time>2020-08-26T12:56:49Z</time>
      </trkpt>
      <trkpt lat="44.61205" lon="2.96475">
        <ele>1194.58</ele>
        <time>2020-08-26T12:57:03Z</time>
      </trkpt>
      <trkpt lat="44.61185" lon="2.96468">
        <ele>1194.09</ele>
        <time>2020-08-26T12:57:17Z</time>
      </trkpt>
      <trkpt lat="44.61171" lon="2.96465">
        <ele>1193.13</ele>
        <time>2020-08-26T12:57:32Z</time>
      </trkpt>
      <trkpt lat="44.61158" lon="2.96461">
        <ele>1191.69</ele>
        <time>2020-08-26T12:57:47Z</time>
      </trkpt>
      <trkpt lat="44.61135" lon="2.96453">
        <ele>1191.69</ele>
        <time>2020-08-26T12:58:03Z</time>
      </trkpt>
      <trkpt lat="44.61118" lon="2.96451">
        <ele>1191.21</ele>
        <time>2020-08-26T12:58:20Z</time>
      </trkpt>
      <trkpt lat="44.61104" lon="2.96445">
        <ele>1191.21</ele>
        <time>2020-08-26T12:58:35Z</time>
      </trkpt>
      <trkpt lat="44.6109" lon="2.96441">
        <ele>1190.73</ele>
        <time>2020-08-26T12:58:48Z</time>
      </trkpt>
      <trkpt lat="44.61074" lon="2.96435">
        <ele>1190.73</ele>
        <time>2020-08-26T12:59:03Z</time>
      </trkpt>
      <trkpt lat="44.61056" lon="2.96429">
        <ele>1190.73</ele>
        <time>2020-08-26T12:59:18Z</time>
      </trkpt>
      <trkpt lat="44.61042" lon="2.96422">
        <ele>1190.25</ele>
        <time>2020-08-26T12:59:32Z</time>
      </trkpt>
      <trkpt lat="44.61028" lon="2.96412">
        <ele>1190.25</ele>
        <time>2020-08-26T12:59:51Z</time>
      </trkpt>
      <trkpt lat="44.61026" lon="2.96407">
        <ele>1189.77</ele>
        <time>2020-08-26T13:00:08Z</time>
      </trkpt>
      <trkpt lat="44.61024" lon="2.96409">
        <ele>1189.77</ele>
        <time>2020-08-26T13:00:36Z</time>
      </trkpt>
      <trkpt lat="44.6103" lon="2.96417">
        <ele>1189.77</ele>
        <time>2020-08-26T13:01:06Z</time>
      </trkpt>
      <trkpt lat="44.61028" lon="2.96415">
        <ele>1189.77</ele>
        <time>2020-08-26T13:01:35Z</time>
      </trkpt>
      <trkpt lat="44.61028" lon="2.96412">
        <ele>1189.77</ele>
        <time>2020-08-26T13:01:58Z</time>
      </trkpt>
      <trkpt lat="44.61025" lon="2.96407">
        <ele>1189.77</ele>
        <time>2020-08-26T13:02:29Z</time>
      </trkpt>
      <trkpt lat="44.61022" lon="2.96401">
        <ele>1189.77</ele>
        <time>2020-08-26T13:02:55Z</time>
      </trkpt>
      <trkpt lat="44.61032" lon="2.96407">
        <ele>1189.77</ele>
        <time>2020-08-26T13:03:20Z</time>
      </trkpt>
      <trkpt lat="44.61031" lon="2.96407">
        <ele>1189.77</ele>
        <time>2020-08-26T13:03:49Z</time>
      </trkpt>
      <trkpt lat="44.61032" lon="2.96405">
        <ele>1189.77</ele>
        <time>2020-08-26T13:04:18Z</time>
      </trkpt>
      <trkpt lat="44.6103" lon="2.96403">
        <ele>1189.77</ele>
        <time>2020-08-26T13:04:45Z</time>
      </trkpt>
      <trkpt lat="44.61032" lon="2.96405">
        <ele>1189.77</ele>
        <time>2020-08-26T13:05:17Z</time>
      </trkpt>
      <trkpt lat="44.6103" lon="2.9641">
        <ele>1189.77</ele>
        <time>2020-08-26T13:05:44Z</time>
      </trkpt>
      <trkpt lat="44.61024" lon="2.96408">
        <ele>1189.77</ele>
        <time>2020-08-26T13:06:09Z</time>
      </trkpt>
      <trkpt lat="44.6102" lon="2.96409">
        <ele>1189.29</ele>
        <time>2020-08-26T13:06:36Z</time>
      </trkpt>
      <trkpt lat="44.61027" lon="2.96407">
        <ele>1189.29</ele>
        <time>2020-08-26T13:07:01Z</time>
      </trkpt>
      <trkpt lat="44.61028" lon="2.96404">
        <ele>1189.29</ele>
        <time>2020-08-26T13:07:25Z</time>
      </trkpt>
      <trkpt lat="44.61027" lon="2.96406">
        <ele>1189.77</ele>
        <time>2020-08-26T13:07:54Z</time>
      </trkpt>
      <trkpt lat="44.61028" lon="2.96412">
        <ele>1189.77</ele>
        <time>2020-08-26T13:08:20Z</time>
      </trkpt>
      <trkpt lat="44.61031" lon="2.96397">
        <ele>1189.77</ele>
        <time>2020-08-26T13:08:48Z</time>
      </trkpt>
      <trkpt lat="44.61025" lon="2.96407">
        <ele>1189.77</ele>
        <time>2020-08-26T13:09:10Z</time>
      </trkpt>
      <trkpt lat="44.61022" lon="2.9641">
        <ele>1189.77</ele>
        <time>2020-08-26T13:09:31Z</time>
      </trkpt>
      <trkpt lat="44.61026" lon="2.96406">
        <ele>1189.77</ele>
        <time>2020-08-26T13:09:58Z</time>
      </trkpt>
      <trkpt lat="44.61032" lon="2.96404">
        <ele>1189.77</ele>
        <time>2020-08-26T13:10:20Z</time>
      </trkpt>
      <trkpt lat="44.6103" lon="2.96409">
        <ele>1189.77</ele>
        <time>2020-08-26T13:10:46Z</time>
      </trkpt>
      <trkpt lat="44.61033" lon="2.96409">
        <ele>1189.77</ele>
        <time>2020-08-26T13:10:54Z</time>
      </trkpt>
      <trkpt lat="44.6104" lon="2.96411">
        <ele>1189.77</ele>
        <time>2020-08-26T13:11:16Z</time>
      </trkpt>
      <trkpt lat="44.61034" lon="2.96404">
        <ele>1189.77</ele>
        <time>2020-08-26T13:11:35Z</time>
      </trkpt>
      <trkpt lat="44.61023" lon="2.96398">
        <ele>1189.77</ele>
        <time>2020-08-26T13:11:58Z</time>
      </trkpt>
      <trkpt lat="44.61018" lon="2.96402">
        <ele>1189.77</ele>
        <time>2020-08-26T13:12:23Z</time>
      </trkpt>
      <trkpt lat="44.61023" lon="2.96408">
        <ele>1190.25</ele>
        <time>2020-08-26T13:12:49Z</time>
      </trkpt>
      <trkpt lat="44.61026" lon="2.96408">
        <ele>1190.25</ele>
        <time>2020-08-26T13:13:16Z</time>
      </trkpt>
      <trkpt lat="44.61031" lon="2.96411">
        <ele>1190.25</ele>
        <time>2020-08-26T13:13:48Z</time>
      </trkpt>
      <trkpt lat="44.61027" lon="2.96407">
        <ele>1190.25</ele>
        <time>2020-08-26T13:14:20Z</time>
      </trkpt>
      <trkpt lat="44.61027" lon="2.96402">
        <ele>1190.25</ele>
        <time>2020-08-26T13:14:42Z</time>
      </trkpt>
      <trkpt lat="44.61027" lon="2.96401">
        <ele>1191.69</ele>
        <time>2020-08-26T13:14:44Z</time>
      </trkpt>
      <trkpt lat="44.61026" lon="2.96388">
        <ele>1192.17</ele>
        <time>2020-08-26T13:14:57Z</time>
      </trkpt>
      <trkpt lat="44.61023" lon="2.96373">
        <ele>1193.13</ele>
        <time>2020-08-26T13:15:11Z</time>
      </trkpt>
      <trkpt lat="44.61021" lon="2.96358">
        <ele>1193.61</ele>
        <time>2020-08-26T13:15:23Z</time>
      </trkpt>
      <trkpt lat="44.61021" lon="2.96352">
        <ele>1194.09</ele>
        <time>2020-08-26T13:15:27Z</time>
      </trkpt>
      <trkpt lat="44.61019" lon="2.96323">
        <ele>1193.61</ele>
        <time>2020-08-26T13:15:45Z</time>
      </trkpt>
      <trkpt lat="44.61016" lon="2.96299">
        <ele>1193.61</ele>
        <time>2020-08-26T13:16:02Z</time>
      </trkpt>
      <trkpt lat="44.6101" lon="2.96278">
        <ele>1192.17</ele>
        <time>2020-08-26T13:16:18Z</time>
      </trkpt>
      <trkpt lat="44.61" lon="2.96251">
        <ele>1190.73</ele>
        <time>2020-08-26T13:16:38Z</time>
      </trkpt>
      <trkpt lat="44.60994" lon="2.96226">
        <ele>1190.73</ele>
        <time>2020-08-26T13:16:56Z</time>
      </trkpt>
      <trkpt lat="44.60987" lon="2.962">
        <ele>1190.73</ele>
        <time>2020-08-26T13:17:14Z</time>
      </trkpt>
      <trkpt lat="44.6098" lon="2.9617">
        <ele>1190.25</ele>
        <time>2020-08-26T13:17:34Z</time>
      </trkpt>
      <trkpt lat="44.60972" lon="2.96139">
        <ele>1190.25</ele>
        <time>2020-08-26T13:17:56Z</time>
      </trkpt>
      <trkpt lat="44.60959" lon="2.96115">
        <ele>1190.25</ele>
        <time>2020-08-26T13:18:15Z</time>
      </trkpt>
      <trkpt lat="44.60941" lon="2.96097">
        <ele>1190.25</ele>
        <time>2020-08-26T13:18:36Z</time>
      </trkpt>
      <trkpt lat="44.60923" lon="2.96089">
        <ele>1189.77</ele>
        <time>2020-08-26T13:18:53Z</time>
      </trkpt>
      <trkpt lat="44.60899" lon="2.96086">
        <ele>1191.21</ele>
        <time>2020-08-26T13:19:15Z</time>
      </trkpt>
      <trkpt lat="44.60888" lon="2.96082">
        <ele>1191.21</ele>
        <time>2020-08-26T13:19:30Z</time>
      </trkpt>
      <trkpt lat="44.60875" lon="2.96074">
        <ele>1191.21</ele>
        <time>2020-08-26T13:19:45Z</time>
      </trkpt>
      <trkpt lat="44.60862" lon="2.9606">
        <ele>1191.21</ele>
        <time>2020-08-26T13:20:01Z</time>
      </trkpt>
      <trkpt lat="44.60852" lon="2.96045">
        <ele>1192.65</ele>
        <time>2020-08-26T13:20:15Z</time>
      </trkpt>
      <trkpt lat="44.60843" lon="2.96024">
        <ele>1194.09</ele>
        <time>2020-08-26T13:20:32Z</time>
      </trkpt>
      <trkpt lat="44.60841" lon="2.96019">
        <ele>1194.58</ele>
        <time>2020-08-26T13:20:36Z</time>
      </trkpt>
      <trkpt lat="44.6084" lon="2.96014">
        <ele>1195.54</ele>
        <time>2020-08-26T13:20:39Z</time>
      </trkpt>
      <trkpt lat="44.60839" lon="2.95992">
        <ele>1195.54</ele>
        <time>2020-08-26T13:20:55Z</time>
      </trkpt>
      <trkpt lat="44.60841" lon="2.95965">
        <ele>1196.98</ele>
        <time>2020-08-26T13:21:12Z</time>
      </trkpt>
      <trkpt lat="44.60839" lon="2.95944">
        <ele>1196.98</ele>
        <time>2020-08-26T13:21:28Z</time>
      </trkpt>
      <trkpt lat="44.60835" lon="2.95921">
        <ele>1196.98</ele>
        <time>2020-08-26T13:21:44Z</time>
      </trkpt>
      <trkpt lat="44.60833" lon="2.9591">
        <ele>1195.54</ele>
        <time>2020-08-26T13:21:52Z</time>
      </trkpt>
      <trkpt lat="44.60825" lon="2.95884">
        <ele>1195.54</ele>
        <time>2020-08-26T13:22:13Z</time>
      </trkpt>
      <trkpt lat="44.6082" lon="2.95871">
        <ele>1194.09</ele>
        <time>2020-08-26T13:22:28Z</time>
      </trkpt>
      <trkpt lat="44.60818" lon="2.95866">
        <ele>1196.02</ele>
        <time>2020-08-26T13:22:51Z</time>
      </trkpt>
      <trkpt lat="44.6082" lon="2.95866">
        <ele>1196.02</ele>
        <time>2020-08-26T13:23:13Z</time>
      </trkpt>
      <trkpt lat="44.60819" lon="2.95866">
        <ele>1195.06</ele>
        <time>2020-08-26T13:23:39Z</time>
      </trkpt>
      <trkpt lat="44.6082" lon="2.95868">
        <ele>1195.54</ele>
        <time>2020-08-26T13:24:04Z</time>
      </trkpt>
      <trkpt lat="44.6082" lon="2.95872">
        <ele>1194.58</ele>
        <time>2020-08-26T13:24:17Z</time>
      </trkpt>
      <trkpt lat="44.60807" lon="2.95853">
        <ele>1192.65</ele>
        <time>2020-08-26T13:24:35Z</time>
      </trkpt>
      <trkpt lat="44.60787" lon="2.95828">
        <ele>1190.73</ele>
        <time>2020-08-26T13:24:59Z</time>
      </trkpt>
      <trkpt lat="44.60777" lon="2.95801">
        <ele>1189.77</ele>
        <time>2020-08-26T13:25:19Z</time>
      </trkpt>
      <trkpt lat="44.60766" lon="2.95768">
        <ele>1188.81</ele>
        <time>2020-08-26T13:25:42Z</time>
      </trkpt>
      <trkpt lat="44.60755" lon="2.95746">
        <ele>1186.88</ele>
        <time>2020-08-26T13:26:02Z</time>
      </trkpt>
      <trkpt lat="44.60751" lon="2.95738">
        <ele>1186.88</ele>
        <time>2020-08-26T13:26:15Z</time>
      </trkpt>
      <trkpt lat="44.6075" lon="2.95737">
        <ele>1186.88</ele>
        <time>2020-08-26T13:26:56Z</time>
      </trkpt>
      <trkpt lat="44.60745" lon="2.95735">
        <ele>1186.88</ele>
        <time>2020-08-26T13:27:12Z</time>
      </trkpt>
      <trkpt lat="44.6074" lon="2.95736">
        <ele>1186.4</ele>
        <time>2020-08-26T13:27:37Z</time>
      </trkpt>
      <trkpt lat="44.60737" lon="2.95734">
        <ele>1185.92</ele>
        <time>2020-08-26T13:27:53Z</time>
      </trkpt>
      <trkpt lat="44.60736" lon="2.95734">
        <ele>1187.37</ele>
        <time>2020-08-26T13:27:55Z</time>
      </trkpt>
      <trkpt lat="44.60735" lon="2.95734">
        <ele>1187.37</ele>
        <time>2020-08-26T13:27:56Z</time>
      </trkpt>
      <trkpt lat="44.6073" lon="2.95733">
        <ele>1185.92</ele>
        <time>2020-08-26T13:28:01Z</time>
      </trkpt>
      <trkpt lat="44.60717" lon="2.95728">
        <ele>1184.48</ele>
        <time>2020-08-26T13:28:16Z</time>
      </trkpt>
      <trkpt lat="44.60698" lon="2.95724">
        <ele>1182.08</ele>
        <time>2020-08-26T13:28:34Z</time>
      </trkpt>
      <trkpt lat="44.60682" lon="2.95721">
        <ele>1181.12</ele>
        <time>2020-08-26T13:28:50Z</time>
      </trkpt>
      <trkpt lat="44.60663" lon="2.95713">
        <ele>1180.16</ele>
        <time>2020-08-26T13:29:09Z</time>
      </trkpt>
      <trkpt lat="44.60646" lon="2.95701">
        <ele>1177.75</ele>
        <time>2020-08-26T13:29:27Z</time>
      </trkpt>
      <trkpt lat="44.60629" lon="2.95689">
        <ele>1175.83</ele>
        <time>2020-08-26T13:29:46Z</time>
      </trkpt>
      <trkpt lat="44.6061" lon="2.95678">
        <ele>1174.39</ele>
        <time>2020-08-26T13:30:06Z</time>
      </trkpt>
      <trkpt lat="44.60607" lon="2.95677">
        <ele>1173.43</ele>
        <time>2020-08-26T13:30:09Z</time>
      </trkpt>
      <trkpt lat="44.60594" lon="2.95665">
        <ele>1171.5</ele>
        <time>2020-08-26T13:30:25Z</time>
      </trkpt>
      <trkpt lat="44.6058" lon="2.95653">
        <ele>1170.06</ele>
        <time>2020-08-26T13:30:41Z</time>
      </trkpt>
      <trkpt lat="44.60569" lon="2.95638">
        <ele>1167.66</ele>
        <time>2020-08-26T13:30:57Z</time>
      </trkpt>
      <trkpt lat="44.60557" lon="2.95627">
        <ele>1165.74</ele>
        <time>2020-08-26T13:31:11Z</time>
      </trkpt>
      <trkpt lat="44.60554" lon="2.95617">
        <ele>1163.81</ele>
        <time>2020-08-26T13:31:19Z</time>
      </trkpt>
      <trkpt lat="44.60553" lon="2.95607">
        <ele>1163.81</ele>
        <time>2020-08-26T13:31:27Z</time>
      </trkpt>
      <trkpt lat="44.60554" lon="2.95595">
        <ele>1162.85</ele>
        <time>2020-08-26T13:31:41Z</time>
      </trkpt>
      <trkpt lat="44.60554" lon="2.95585">
        <ele>1161.41</ele>
        <time>2020-08-26T13:31:52Z</time>
      </trkpt>
      <trkpt lat="44.60556" lon="2.95565">
        <ele>1159.97</ele>
        <time>2020-08-26T13:32:07Z</time>
      </trkpt>
      <trkpt lat="44.60554" lon="2.95546">
        <ele>1159.01</ele>
        <time>2020-08-26T13:32:20Z</time>
      </trkpt>
      <trkpt lat="44.6055" lon="2.95534">
        <ele>1157.08</ele>
        <time>2020-08-26T13:32:29Z</time>
      </trkpt>
      <trkpt lat="44.60536" lon="2.95527">
        <ele>1155.64</ele>
        <time>2020-08-26T13:32:47Z</time>
      </trkpt>
      <trkpt lat="44.60521" lon="2.95526">
        <ele>1153.24</ele>
        <time>2020-08-26T13:33:03Z</time>
      </trkpt>
      <trkpt lat="44.60504" lon="2.95519">
        <ele>1151.8</ele>
        <time>2020-08-26T13:33:20Z</time>
      </trkpt>
      <trkpt lat="44.60484" lon="2.95507">
        <ele>1149.87</ele>
        <time>2020-08-26T13:33:41Z</time>
      </trkpt>
      <trkpt lat="44.60477" lon="2.95504">
        <ele>1149.87</ele>
        <time>2020-08-26T13:33:48Z</time>
      </trkpt>
      <trkpt lat="44.6046" lon="2.95489">
        <ele>1148.91</ele>
        <time>2020-08-26T13:34:09Z</time>
      </trkpt>
      <trkpt lat="44.60457" lon="2.95488">
        <ele>1148.43</ele>
        <time>2020-08-26T13:34:17Z</time>
      </trkpt>
      <trkpt lat="44.60454" lon="2.95481">
        <ele>1147.95</ele>
        <time>2020-08-26T13:34:28Z</time>
      </trkpt>
      <trkpt lat="44.60449" lon="2.95461">
        <ele>1146.51</ele>
        <time>2020-08-26T13:34:44Z</time>
      </trkpt>
      <trkpt lat="44.6044" lon="2.95463">
        <ele>1145.55</ele>
        <time>2020-08-26T13:34:58Z</time>
      </trkpt>
      <trkpt lat="44.60435" lon="2.95468">
        <ele>1145.07</ele>
        <time>2020-08-26T13:35:04Z</time>
      </trkpt>
      <trkpt lat="44.60421" lon="2.95476">
        <ele>1143.63</ele>
        <time>2020-08-26T13:35:21Z</time>
      </trkpt>
      <trkpt lat="44.60406" lon="2.95487">
        <ele>1142.66</ele>
        <time>2020-08-26T13:35:39Z</time>
      </trkpt>
      <trkpt lat="44.60407" lon="2.95488">
        <ele>1142.66</ele>
        <time>2020-08-26T13:35:55Z</time>
      </trkpt>
      <trkpt lat="44.60404" lon="2.95491">
        <ele>1142.18</ele>
        <time>2020-08-26T13:36:14Z</time>
      </trkpt>
      <trkpt lat="44.60398" lon="2.955">
        <ele>1140.26</ele>
        <time>2020-08-26T13:36:30Z</time>
      </trkpt>
      <trkpt lat="44.60401" lon="2.95511">
        <ele>1137.86</ele>
        <time>2020-08-26T13:36:46Z</time>
      </trkpt>
      <trkpt lat="44.60405" lon="2.95524">
        <ele>1135.94</ele>
        <time>2020-08-26T13:37:04Z</time>
      </trkpt>
      <trkpt lat="44.60411" lon="2.95532">
        <ele>1134.49</ele>
        <time>2020-08-26T13:37:17Z</time>
      </trkpt>
      <trkpt lat="44.60417" lon="2.9554">
        <ele>1133.05</ele>
        <time>2020-08-26T13:37:29Z</time>
      </trkpt>
      <trkpt lat="44.60425" lon="2.95552">
        <ele>1131.61</ele>
        <time>2020-08-26T13:37:45Z</time>
      </trkpt>
      <trkpt lat="44.60426" lon="2.95565">
        <ele>1130.65</ele>
        <time>2020-08-26T13:37:58Z</time>
      </trkpt>
      <trkpt lat="44.60429" lon="2.95565">
        <ele>1130.65</ele>
        <time>2020-08-26T13:38:28Z</time>
      </trkpt>
      <trkpt lat="44.60422" lon="2.95569">
        <ele>1130.17</ele>
        <time>2020-08-26T13:38:51Z</time>
      </trkpt>
      <trkpt lat="44.60414" lon="2.95575">
        <ele>1129.21</ele>
        <time>2020-08-26T13:39:16Z</time>
      </trkpt>
      <trkpt lat="44.60404" lon="2.95571">
        <ele>1127.28</ele>
        <time>2020-08-26T13:39:33Z</time>
      </trkpt>
      <trkpt lat="44.60393" lon="2.95564">
        <ele>1124.88</ele>
        <time>2020-08-26T13:39:50Z</time>
      </trkpt>
      <trkpt lat="44.60382" lon="2.95559">
        <ele>1123.44</ele>
        <time>2020-08-26T13:40:04Z</time>
      </trkpt>
      <trkpt lat="44.6037" lon="2.95556">
        <ele>1122</ele>
        <time>2020-08-26T13:40:19Z</time>
      </trkpt>
      <trkpt lat="44.60355" lon="2.95547">
        <ele>1121.03</ele>
        <time>2020-08-26T13:40:36Z</time>
      </trkpt>
      <trkpt lat="44.60345" lon="2.95537">
        <ele>1120.07</ele>
        <time>2020-08-26T13:40:50Z</time>
      </trkpt>
      <trkpt lat="44.60336" lon="2.95523">
        <ele>1119.11</ele>
        <time>2020-08-26T13:41:03Z</time>
      </trkpt>
      <trkpt lat="44.60327" lon="2.95508">
        <ele>1118.63</ele>
        <time>2020-08-26T13:41:18Z</time>
      </trkpt>
      <trkpt lat="44.60324" lon="2.95505">
        <ele>1118.63</ele>
        <time>2020-08-26T13:41:21Z</time>
      </trkpt>
      <trkpt lat="44.60316" lon="2.95477">
        <ele>1117.67</ele>
        <time>2020-08-26T13:41:40Z</time>
      </trkpt>
      <trkpt lat="44.60309" lon="2.95455">
        <ele>1117.67</ele>
        <time>2020-08-26T13:41:56Z</time>
      </trkpt>
      <trkpt lat="44.60297" lon="2.95433">
        <ele>1117.67</ele>
        <time>2020-08-26T13:42:10Z</time>
      </trkpt>
      <trkpt lat="44.60293" lon="2.95425">
        <ele>1117.19</ele>
        <time>2020-08-26T13:42:15Z</time>
      </trkpt>
      <trkpt lat="44.60284" lon="2.95404">
        <ele>1117.19</ele>
        <time>2020-08-26T13:42:33Z</time>
      </trkpt>
      <trkpt lat="44.60284" lon="2.95399">
        <ele>1118.63</ele>
        <time>2020-08-26T13:42:36Z</time>
      </trkpt>
      <trkpt lat="44.60282" lon="2.95389">
        <ele>1119.11</ele>
        <time>2020-08-26T13:42:56Z</time>
      </trkpt>
      <trkpt lat="44.60282" lon="2.95389">
        <ele>1119.11</ele>
        <time>2020-08-26T13:43:37Z</time>
      </trkpt>
      <trkpt lat="44.60286" lon="2.95381">
        <ele>1119.11</ele>
        <time>2020-08-26T13:44:04Z</time>
      </trkpt>
      <trkpt lat="44.60286" lon="2.95364">
        <ele>1120.07</ele>
        <time>2020-08-26T13:44:20Z</time>
      </trkpt>
      <trkpt lat="44.60285" lon="2.95352">
        <ele>1120.55</ele>
        <time>2020-08-26T13:44:29Z</time>
      </trkpt>
      <trkpt lat="44.60281" lon="2.95333">
        <ele>1121.03</ele>
        <time>2020-08-26T13:44:45Z</time>
      </trkpt>
      <trkpt lat="44.60277" lon="2.95314">
        <ele>1119.59</ele>
        <time>2020-08-26T13:45:00Z</time>
      </trkpt>
      <trkpt lat="44.60274" lon="2.95294">
        <ele>1117.67</ele>
        <time>2020-08-26T13:45:18Z</time>
      </trkpt>
      <trkpt lat="44.60271" lon="2.9528">
        <ele>1115.75</ele>
        <time>2020-08-26T13:45:33Z</time>
      </trkpt>
      <trkpt lat="44.60263" lon="2.95274">
        <ele>1113.82</ele>
        <time>2020-08-26T13:45:53Z</time>
      </trkpt>
      <trkpt lat="44.60257" lon="2.95261">
        <ele>1111.42</ele>
        <time>2020-08-26T13:46:08Z</time>
      </trkpt>
      <trkpt lat="44.60246" lon="2.9525">
        <ele>1109.02</ele>
        <time>2020-08-26T13:46:27Z</time>
      </trkpt>
      <trkpt lat="44.60233" lon="2.95243">
        <ele>1106.13</ele>
        <time>2020-08-26T13:46:46Z</time>
      </trkpt>
      <trkpt lat="44.60231" lon="2.95229">
        <ele>1103.73</ele>
        <time>2020-08-26T13:47:02Z</time>
      </trkpt>
      <trkpt lat="44.60236" lon="2.95214">
        <ele>1102.29</ele>
        <time>2020-08-26T13:47:19Z</time>
      </trkpt>
      <trkpt lat="44.60238" lon="2.95217">
        <ele>1102.29</ele>
        <time>2020-08-26T13:47:22Z</time>
      </trkpt>
      <trkpt lat="44.60246" lon="2.95224">
        <ele>1102.29</ele>
        <time>2020-08-26T13:47:37Z</time>
      </trkpt>
      <trkpt lat="44.60247" lon="2.95229">
        <ele>1101.81</ele>
        <time>2020-08-26T13:48:03Z</time>
      </trkpt>
      <trkpt lat="44.60256" lon="2.95227">
        <ele>1101.81</ele>
        <time>2020-08-26T13:48:19Z</time>
      </trkpt>
      <trkpt lat="44.60246" lon="2.95227">
        <ele>1101.81</ele>
        <time>2020-08-26T13:48:35Z</time>
      </trkpt>
      <trkpt lat="44.60237" lon="2.95213">
        <ele>1101.81</ele>
        <time>2020-08-26T13:48:51Z</time>
      </trkpt>
      <trkpt lat="44.60247" lon="2.95197">
        <ele>1099.4</ele>
        <time>2020-08-26T13:49:07Z</time>
      </trkpt>
      <trkpt lat="44.60256" lon="2.95184">
        <ele>1097.96</ele>
        <time>2020-08-26T13:49:27Z</time>
      </trkpt>
      <trkpt lat="44.60241" lon="2.95178">
        <ele>1096.52</ele>
        <time>2020-08-26T13:49:46Z</time>
      </trkpt>
      <trkpt lat="44.60227" lon="2.95193">
        <ele>1095.56</ele>
        <time>2020-08-26T13:50:06Z</time>
      </trkpt>
      <trkpt lat="44.60222" lon="2.95201">
        <ele>1095.56</ele>
        <time>2020-08-26T13:50:13Z</time>
      </trkpt>
      <trkpt lat="44.60208" lon="2.9522">
        <ele>1094.12</ele>
        <time>2020-08-26T13:50:35Z</time>
      </trkpt>
      <trkpt lat="44.60197" lon="2.95232">
        <ele>1093.16</ele>
        <time>2020-08-26T13:50:51Z</time>
      </trkpt>
      <trkpt lat="44.60194" lon="2.95235">
        <ele>1092.2</ele>
        <time>2020-08-26T13:51:09Z</time>
      </trkpt>
      <trkpt lat="44.60194" lon="2.95235">
        <ele>1092.2</ele>
        <time>2020-08-26T13:51:41Z</time>
      </trkpt>
      <trkpt lat="44.60191" lon="2.95235">
        <ele>1092.2</ele>
        <time>2020-08-26T13:52:10Z</time>
      </trkpt>
      <trkpt lat="44.60178" lon="2.95247">
        <ele>1090.27</ele>
        <time>2020-08-26T13:52:31Z</time>
      </trkpt>
      <trkpt lat="44.60172" lon="2.95257">
        <ele>1089.79</ele>
        <time>2020-08-26T13:52:47Z</time>
      </trkpt>
      <trkpt lat="44.60169" lon="2.95254">
        <ele>1089.79</ele>
        <time>2020-08-26T13:53:10Z</time>
      </trkpt>
      <trkpt lat="44.6017" lon="2.95252">
        <ele>1089.79</ele>
        <time>2020-08-26T13:53:28Z</time>
      </trkpt>
      <trkpt lat="44.60172" lon="2.95254">
        <ele>1089.79</ele>
        <time>2020-08-26T13:53:45Z</time>
      </trkpt>
      <trkpt lat="44.60166" lon="2.95253">
        <ele>1089.31</ele>
        <time>2020-08-26T13:54:00Z</time>
      </trkpt>
      <trkpt lat="44.60157" lon="2.9525">
        <ele>1088.83</ele>
        <time>2020-08-26T13:54:18Z</time>
      </trkpt>
      <trkpt lat="44.60157" lon="2.95248">
        <ele>1089.31</ele>
        <time>2020-08-26T13:54:27Z</time>
      </trkpt>
      <trkpt lat="44.60155" lon="2.9525">
        <ele>1088.35</ele>
        <time>2020-08-26T13:54:45Z</time>
      </trkpt>
      <trkpt lat="44.60157" lon="2.95246">
        <ele>1087.87</ele>
        <time>2020-08-26T13:55:01Z</time>
      </trkpt>
      <trkpt lat="44.60155" lon="2.95241">
        <ele>1087.87</ele>
        <time>2020-08-26T13:55:21Z</time>
      </trkpt>
      <trkpt lat="44.60157" lon="2.95242">
        <ele>1087.87</ele>
        <time>2020-08-26T13:55:42Z</time>
      </trkpt>
      <trkpt lat="44.60156" lon="2.95244">
        <ele>1087.87</ele>
        <time>2020-08-26T13:56:07Z</time>
      </trkpt>
      <trkpt lat="44.60155" lon="2.95245">
        <ele>1087.39</ele>
        <time>2020-08-26T13:56:25Z</time>
      </trkpt>
      <trkpt lat="44.60154" lon="2.95244">
        <ele>1087.39</ele>
        <time>2020-08-26T13:56:53Z</time>
      </trkpt>
      <trkpt lat="44.60152" lon="2.95237">
        <ele>1087.39</ele>
        <time>2020-08-26T13:57:10Z</time>
      </trkpt>
      <trkpt lat="44.6015" lon="2.95237">
        <ele>1088.35</ele>
        <time>2020-08-26T13:57:27Z</time>
      </trkpt>
      <trkpt lat="44.6015" lon="2.95239">
        <ele>1088.35</ele>
        <time>2020-08-26T13:57:45Z</time>
      </trkpt>
      <trkpt lat="44.60153" lon="2.95246">
        <ele>1088.35</ele>
        <time>2020-08-26T13:58:07Z</time>
      </trkpt>
      <trkpt lat="44.6016" lon="2.95241">
        <ele>1088.35</ele>
        <time>2020-08-26T13:58:31Z</time>
      </trkpt>
      <trkpt lat="44.6016" lon="2.95241">
        <ele>1088.35</ele>
        <time>2020-08-26T13:58:50Z</time>
      </trkpt>
      <trkpt lat="44.60159" lon="2.95241">
        <ele>1088.35</ele>
        <time>2020-08-26T13:59:20Z</time>
      </trkpt>
      <trkpt lat="44.60156" lon="2.95237">
        <ele>1088.35</ele>
        <time>2020-08-26T13:59:55Z</time>
      </trkpt>
      <trkpt lat="44.60158" lon="2.95244">
        <ele>1087.39</ele>
        <time>2020-08-26T14:00:27Z</time>
      </trkpt>
      <trkpt lat="44.60157" lon="2.95242">
        <ele>1087.39</ele>
        <time>2020-08-26T14:01:02Z</time>
      </trkpt>
      <trkpt lat="44.60157" lon="2.95243">
        <ele>1087.87</ele>
        <time>2020-08-26T14:01:34Z</time>
      </trkpt>
      <trkpt lat="44.60158" lon="2.95244">
        <ele>1087.87</ele>
        <time>2020-08-26T14:01:49Z</time>
      </trkpt>
      <trkpt lat="44.6016" lon="2.95244">
        <ele>1087.87</ele>
        <time>2020-08-26T14:02:20Z</time>
      </trkpt>
      <trkpt lat="44.60163" lon="2.95244">
        <ele>1087.87</ele>
        <time>2020-08-26T14:02:57Z</time>
      </trkpt>
      <trkpt lat="44.60165" lon="2.95244">
        <ele>1087.87</ele>
        <time>2020-08-26T14:03:14Z</time>
      </trkpt>
      <trkpt lat="44.60171" lon="2.95255">
        <ele>1089.79</ele>
        <time>2020-08-26T14:03:27Z</time>
      </trkpt>
      <trkpt lat="44.6017" lon="2.95257">
        <ele>1089.79</ele>
        <time>2020-08-26T14:03:48Z</time>
      </trkpt>
      <trkpt lat="44.60171" lon="2.95256">
        <ele>1089.79</ele>
        <time>2020-08-26T14:04:06Z</time>
      </trkpt>
      <trkpt lat="44.60165" lon="2.95253">
        <ele>1090.27</ele>
        <time>2020-08-26T14:04:33Z</time>
      </trkpt>
      <trkpt lat="44.60159" lon="2.95247">
        <ele>1090.27</ele>
        <time>2020-08-26T14:04:48Z</time>
      </trkpt>
      <trkpt lat="44.60158" lon="2.95246">
        <ele>1088.35</ele>
        <time>2020-08-26T14:05:02Z</time>
      </trkpt>
      <trkpt lat="44.60159" lon="2.95246">
        <ele>1088.35</ele>
        <time>2020-08-26T14:05:25Z</time>
      </trkpt>
      <trkpt lat="44.60159" lon="2.9525">
        <ele>1088.35</ele>
        <time>2020-08-26T14:05:52Z</time>
      </trkpt>
      <trkpt lat="44.6017" lon="2.95251">
        <ele>1088.35</ele>
        <time>2020-08-26T14:06:05Z</time>
      </trkpt>
      <trkpt lat="44.60175" lon="2.95247">
        <ele>1088.35</ele>
        <time>2020-08-26T14:06:28Z</time>
      </trkpt>
      <trkpt lat="44.60164" lon="2.95246">
        <ele>1088.35</ele>
        <time>2020-08-26T14:07:00Z</time>
      </trkpt>
      <trkpt lat="44.60173" lon="2.95245">
        <ele>1088.35</ele>
        <time>2020-08-26T14:07:33Z</time>
      </trkpt>
      <trkpt lat="44.60167" lon="2.95244">
        <ele>1089.79</ele>
        <time>2020-08-26T14:07:49Z</time>
      </trkpt>
      <trkpt lat="44.60162" lon="2.95244">
        <ele>1089.79</ele>
        <time>2020-08-26T14:08:14Z</time>
      </trkpt>
      <trkpt lat="44.60164" lon="2.95244">
        <ele>1090.27</ele>
        <time>2020-08-26T14:08:40Z</time>
      </trkpt>
      <trkpt lat="44.60163" lon="2.95242">
        <ele>1090.27</ele>
        <time>2020-08-26T14:09:12Z</time>
      </trkpt>
      <trkpt lat="44.60164" lon="2.95245">
        <ele>1090.27</ele>
        <time>2020-08-26T14:09:35Z</time>
      </trkpt>
      <trkpt lat="44.60163" lon="2.95244">
        <ele>1090.75</ele>
        <time>2020-08-26T14:09:57Z</time>
      </trkpt>
      <trkpt lat="44.60165" lon="2.95245">
        <ele>1090.75</ele>
        <time>2020-08-26T14:10:18Z</time>
      </trkpt>
      <trkpt lat="44.60159" lon="2.95249">
        <ele>1091.23</ele>
        <time>2020-08-26T14:10:33Z</time>
      </trkpt>
      <trkpt lat="44.60159" lon="2.95245">
        <ele>1091.23</ele>
        <time>2020-08-26T14:10:48Z</time>
      </trkpt>
      <trkpt lat="44.60157" lon="2.95245">
        <ele>1091.23</ele>
        <time>2020-08-26T14:11:08Z</time>
      </trkpt>
      <trkpt lat="44.60158" lon="2.95243">
        <ele>1091.23</ele>
        <time>2020-08-26T14:11:35Z</time>
      </trkpt>
      <trkpt lat="44.60158" lon="2.95245">
        <ele>1089.79</ele>
        <time>2020-08-26T14:11:53Z</time>
      </trkpt>
      <trkpt lat="44.60159" lon="2.95245">
        <ele>1089.79</ele>
        <time>2020-08-26T14:11:54Z</time>
      </trkpt>
      <trkpt lat="44.60159" lon="2.95246">
        <ele>1089.79</ele>
        <time>2020-08-26T14:12:08Z</time>
      </trkpt>
      <trkpt lat="44.60162" lon="2.95243">
        <ele>1089.79</ele>
        <time>2020-08-26T14:12:16Z</time>
      </trkpt>
      <trkpt lat="44.60164" lon="2.95228">
        <ele>1089.31</ele>
        <time>2020-08-26T14:12:30Z</time>
      </trkpt>
      <trkpt lat="44.60166" lon="2.95212">
        <ele>1087.39</ele>
        <time>2020-08-26T14:12:43Z</time>
      </trkpt>
      <trkpt lat="44.60169" lon="2.95207">
        <ele>1086.91</ele>
        <time>2020-08-26T14:12:48Z</time>
      </trkpt>
      <trkpt lat="44.6017" lon="2.952">
        <ele>1086.43</ele>
        <time>2020-08-26T14:12:53Z</time>
      </trkpt>
      <trkpt lat="44.60164" lon="2.9519">
        <ele>1085.47</ele>
        <time>2020-08-26T14:13:04Z</time>
      </trkpt>
      <trkpt lat="44.60148" lon="2.95184">
        <ele>1084.02</ele>
        <time>2020-08-26T14:13:21Z</time>
      </trkpt>
      <trkpt lat="44.60131" lon="2.95173">
        <ele>1082.58</ele>
        <time>2020-08-26T14:13:42Z</time>
      </trkpt>
      <trkpt lat="44.6013" lon="2.9517">
        <ele>1082.1</ele>
        <time>2020-08-26T14:13:44Z</time>
      </trkpt>
      <trkpt lat="44.60131" lon="2.95152">
        <ele>1083.06</ele>
        <time>2020-08-26T14:13:57Z</time>
      </trkpt>
      <trkpt lat="44.60133" lon="2.95146">
        <ele>1083.06</ele>
        <time>2020-08-26T14:14:01Z</time>
      </trkpt>
      <trkpt lat="44.60134" lon="2.95133">
        <ele>1081.62</ele>
        <time>2020-08-26T14:14:11Z</time>
      </trkpt>
      <trkpt lat="44.60133" lon="2.95122">
        <ele>1080.18</ele>
        <time>2020-08-26T14:14:24Z</time>
      </trkpt>
      <trkpt lat="44.60135" lon="2.95123">
        <ele>1080.18</ele>
        <time>2020-08-26T14:14:37Z</time>
      </trkpt>
      <trkpt lat="44.6013" lon="2.95113">
        <ele>1078.74</ele>
        <time>2020-08-26T14:14:52Z</time>
      </trkpt>
      <trkpt lat="44.60121" lon="2.95097">
        <ele>1075.85</ele>
        <time>2020-08-26T14:15:09Z</time>
      </trkpt>
      <trkpt lat="44.60115" lon="2.95085">
        <ele>1072.97</ele>
        <time>2020-08-26T14:15:23Z</time>
      </trkpt>
      <trkpt lat="44.6011" lon="2.95068">
        <ele>1070.57</ele>
        <time>2020-08-26T14:15:39Z</time>
      </trkpt>
      <trkpt lat="44.60109" lon="2.9506">
        <ele>1069.6</ele>
        <time>2020-08-26T14:15:46Z</time>
      </trkpt>
      <trkpt lat="44.60103" lon="2.95038">
        <ele>1068.16</ele>
        <time>2020-08-26T14:16:03Z</time>
      </trkpt>
      <trkpt lat="44.60099" lon="2.9503">
        <ele>1067.2</ele>
        <time>2020-08-26T14:16:14Z</time>
      </trkpt>
      <trkpt lat="44.60085" lon="2.95016">
        <ele>1066.24</ele>
        <time>2020-08-26T14:16:32Z</time>
      </trkpt>
      <trkpt lat="44.60069" lon="2.95002">
        <ele>1064.8</ele>
        <time>2020-08-26T14:16:50Z</time>
      </trkpt>
      <trkpt lat="44.60057" lon="2.94992">
        <ele>1063.84</ele>
        <time>2020-08-26T14:17:06Z</time>
      </trkpt>
      <trkpt lat="44.60044" lon="2.94986">
        <ele>1062.39</ele>
        <time>2020-08-26T14:17:23Z</time>
      </trkpt>
      <trkpt lat="44.60033" lon="2.94978">
        <ele>1059.99</ele>
        <time>2020-08-26T14:17:38Z</time>
      </trkpt>
      <trkpt lat="44.60023" lon="2.94968">
        <ele>1058.55</ele>
        <time>2020-08-26T14:17:52Z</time>
      </trkpt>
      <trkpt lat="44.60012" lon="2.94958">
        <ele>1057.11</ele>
        <time>2020-08-26T14:18:08Z</time>
      </trkpt>
      <trkpt lat="44.60001" lon="2.94947">
        <ele>1056.15</ele>
        <time>2020-08-26T14:18:24Z</time>
      </trkpt>
      <trkpt lat="44.59991" lon="2.9494">
        <ele>1055.18</ele>
        <time>2020-08-26T14:18:38Z</time>
      </trkpt>
      <trkpt lat="44.59981" lon="2.94927">
        <ele>1053.26</ele>
        <time>2020-08-26T14:18:54Z</time>
      </trkpt>
      <trkpt lat="44.5998" lon="2.94915">
        <ele>1053.26</ele>
        <time>2020-08-26T14:19:09Z</time>
      </trkpt>
      <trkpt lat="44.59988" lon="2.94908">
        <ele>1053.26</ele>
        <time>2020-08-26T14:19:24Z</time>
      </trkpt>
      <trkpt lat="44.59987" lon="2.94907">
        <ele>1054.7</ele>
        <time>2020-08-26T14:19:29Z</time>
      </trkpt>
      <trkpt lat="44.59986" lon="2.94908">
        <ele>1054.22</ele>
        <time>2020-08-26T14:19:53Z</time>
      </trkpt>
      <trkpt lat="44.59981" lon="2.94911">
        <ele>1054.22</ele>
        <time>2020-08-26T14:20:08Z</time>
      </trkpt>
      <trkpt lat="44.59983" lon="2.94913">
        <ele>1054.22</ele>
        <time>2020-08-26T14:20:31Z</time>
      </trkpt>
      <trkpt lat="44.59981" lon="2.94911">
        <ele>1054.22</ele>
        <time>2020-08-26T14:21:00Z</time>
      </trkpt>
      <trkpt lat="44.59983" lon="2.94908">
        <ele>1054.22</ele>
        <time>2020-08-26T14:21:38Z</time>
      </trkpt>
      <trkpt lat="44.59983" lon="2.94908">
        <ele>1054.22</ele>
        <time>2020-08-26T14:22:17Z</time>
      </trkpt>
      <trkpt lat="44.59983" lon="2.94907">
        <ele>1054.22</ele>
        <time>2020-08-26T14:22:55Z</time>
      </trkpt>
      <trkpt lat="44.59982" lon="2.94907">
        <ele>1052.78</ele>
        <time>2020-08-26T14:23:19Z</time>
      </trkpt>
      <trkpt lat="44.59987" lon="2.94902">
        <ele>1052.78</ele>
        <time>2020-08-26T14:23:31Z</time>
      </trkpt>
      <trkpt lat="44.59989" lon="2.94884">
        <ele>1052.78</ele>
        <time>2020-08-26T14:23:45Z</time>
      </trkpt>
      <trkpt lat="44.59996" lon="2.94871">
        <ele>1051.34</ele>
        <time>2020-08-26T14:24:01Z</time>
      </trkpt>
      <trkpt lat="44.60006" lon="2.94861">
        <ele>1049.42</ele>
        <time>2020-08-26T14:24:16Z</time>
      </trkpt>
      <trkpt lat="44.60017" lon="2.94854">
        <ele>1047.49</ele>
        <time>2020-08-26T14:24:32Z</time>
      </trkpt>
      <trkpt lat="44.60021" lon="2.94838">
        <ele>1045.09</ele>
        <time>2020-08-26T14:24:49Z</time>
      </trkpt>
      <trkpt lat="44.6003" lon="2.9484">
        <ele>1043.17</ele>
        <time>2020-08-26T14:25:04Z</time>
      </trkpt>
      <trkpt lat="44.60039" lon="2.94839">
        <ele>1041.25</ele>
        <time>2020-08-26T14:25:17Z</time>
      </trkpt>
      <trkpt lat="44.60048" lon="2.94833">
        <ele>1039.32</ele>
        <time>2020-08-26T14:25:32Z</time>
      </trkpt>
      <trkpt lat="44.60056" lon="2.94827">
        <ele>1037.88</ele>
        <time>2020-08-26T14:25:47Z</time>
      </trkpt>
      <trkpt lat="44.60065" lon="2.94825">
        <ele>1036.44</ele>
        <time>2020-08-26T14:25:59Z</time>
      </trkpt>
      <trkpt lat="44.60073" lon="2.94823">
        <ele>1035</ele>
        <time>2020-08-26T14:26:12Z</time>
      </trkpt>
      <trkpt lat="44.6008" lon="2.94819">
        <ele>1034.04</ele>
        <time>2020-08-26T14:26:24Z</time>
      </trkpt>
      <trkpt lat="44.60092" lon="2.94823">
        <ele>1031.63</ele>
        <time>2020-08-26T14:26:40Z</time>
      </trkpt>
      <trkpt lat="44.60103" lon="2.94821">
        <ele>1029.23</ele>
        <time>2020-08-26T14:26:54Z</time>
      </trkpt>
      <trkpt lat="44.60114" lon="2.94818">
        <ele>1027.79</ele>
        <time>2020-08-26T14:27:07Z</time>
      </trkpt>
      <trkpt lat="44.60129" lon="2.9481">
        <ele>1025.38</ele>
        <time>2020-08-26T14:27:21Z</time>
      </trkpt>
      <trkpt lat="44.60141" lon="2.94805">
        <ele>1023.94</ele>
        <time>2020-08-26T14:27:36Z</time>
      </trkpt>
      <trkpt lat="44.60149" lon="2.94803">
        <ele>1021.06</ele>
        <time>2020-08-26T14:27:51Z</time>
      </trkpt>
      <trkpt lat="44.60157" lon="2.94795">
        <ele>1019.62</ele>
        <time>2020-08-26T14:28:09Z</time>
      </trkpt>
      <trkpt lat="44.60155" lon="2.94787">
        <ele>1017.69</ele>
        <time>2020-08-26T14:28:24Z</time>
      </trkpt>
      <trkpt lat="44.60152" lon="2.94779">
        <ele>1017.21</ele>
        <time>2020-08-26T14:28:39Z</time>
      </trkpt>
      <trkpt lat="44.60154" lon="2.94769">
        <ele>1015.77</ele>
        <time>2020-08-26T14:28:51Z</time>
      </trkpt>
      <trkpt lat="44.60157" lon="2.9476">
        <ele>1014.81</ele>
        <time>2020-08-26T14:29:08Z</time>
      </trkpt>
      <trkpt lat="44.6016" lon="2.9476">
        <ele>1014.81</ele>
        <time>2020-08-26T14:29:23Z</time>
      </trkpt>
      <trkpt lat="44.6016" lon="2.94768">
        <ele>1013.85</ele>
        <time>2020-08-26T14:29:44Z</time>
      </trkpt>
      <trkpt lat="44.60159" lon="2.94767">
        <ele>1013.85</ele>
        <time>2020-08-26T14:30:12Z</time>
      </trkpt>
      <trkpt lat="44.60156" lon="2.94769">
        <ele>1013.37</ele>
        <time>2020-08-26T14:30:43Z</time>
      </trkpt>
      <trkpt lat="44.60159" lon="2.94771">
        <ele>1013.37</ele>
        <time>2020-08-26T14:31:10Z</time>
      </trkpt>
      <trkpt lat="44.60154" lon="2.94773">
        <ele>1013.37</ele>
        <time>2020-08-26T14:31:54Z</time>
      </trkpt>
      <trkpt lat="44.60154" lon="2.94774">
        <ele>1013.85</ele>
        <time>2020-08-26T14:32:35Z</time>
      </trkpt>
      <trkpt lat="44.60153" lon="2.94771">
        <ele>1013.85</ele>
        <time>2020-08-26T14:33:13Z</time>
      </trkpt>
      <trkpt lat="44.60151" lon="2.94772">
        <ele>1013.85</ele>
        <time>2020-08-26T14:33:45Z</time>
      </trkpt>
      <trkpt lat="44.60152" lon="2.94773">
        <ele>1015.29</ele>
        <time>2020-08-26T14:33:48Z</time>
      </trkpt>
      <trkpt lat="44.60158" lon="2.94762">
        <ele>1015.29</ele>
        <time>2020-08-26T14:34:07Z</time>
      </trkpt>
      <trkpt lat="44.60156" lon="2.94767">
        <ele>1015.77</ele>
        <time>2020-08-26T14:34:34Z</time>
      </trkpt>
      <trkpt lat="44.60158" lon="2.94764">
        <ele>1016.25</ele>
        <time>2020-08-26T14:35:00Z</time>
      </trkpt>
      <trkpt lat="44.60157" lon="2.94765">
        <ele>1016.25</ele>
        <time>2020-08-26T14:35:12Z</time>
      </trkpt>
      <trkpt lat="44.60154" lon="2.9476">
        <ele>1016.25</ele>
        <time>2020-08-26T14:35:34Z</time>
      </trkpt>
      <trkpt lat="44.60151" lon="2.94757">
        <ele>1016.25</ele>
        <time>2020-08-26T14:36:02Z</time>
      </trkpt>
      <trkpt lat="44.60144" lon="2.94753">
        <ele>1016.25</ele>
        <time>2020-08-26T14:36:15Z</time>
      </trkpt>
      <trkpt lat="44.60132" lon="2.94743">
        <ele>1016.25</ele>
        <time>2020-08-26T14:36:31Z</time>
      </trkpt>
      <trkpt lat="44.60126" lon="2.94734">
        <ele>1014.33</ele>
        <time>2020-08-26T14:36:46Z</time>
      </trkpt>
      <trkpt lat="44.60119" lon="2.94728">
        <ele>1013.85</ele>
        <time>2020-08-26T14:37:00Z</time>
      </trkpt>
      <trkpt lat="44.60114" lon="2.94721">
        <ele>1013.37</ele>
        <time>2020-08-26T14:37:09Z</time>
      </trkpt>
      <trkpt lat="44.60105" lon="2.94708">
        <ele>1013.37</ele>
        <time>2020-08-26T14:37:24Z</time>
      </trkpt>
      <trkpt lat="44.60094" lon="2.94691">
        <ele>1011.93</ele>
        <time>2020-08-26T14:37:40Z</time>
      </trkpt>
      <trkpt lat="44.60085" lon="2.94678">
        <ele>1011.93</ele>
        <time>2020-08-26T14:37:55Z</time>
      </trkpt>
      <trkpt lat="44.60077" lon="2.94663">
        <ele>1010.96</ele>
        <time>2020-08-26T14:38:10Z</time>
      </trkpt>
      <trkpt lat="44.60069" lon="2.94655">
        <ele>1010</ele>
        <time>2020-08-26T14:38:21Z</time>
      </trkpt>
      <trkpt lat="44.6006" lon="2.94648">
        <ele>1008.56</ele>
        <time>2020-08-26T14:38:36Z</time>
      </trkpt>
      <trkpt lat="44.60053" lon="2.94639">
        <ele>1007.12</ele>
        <time>2020-08-26T14:38:48Z</time>
      </trkpt>
      <trkpt lat="44.60046" lon="2.94629">
        <ele>1006.64</ele>
        <time>2020-08-26T14:39:00Z</time>
      </trkpt>
      <trkpt lat="44.60037" lon="2.94617">
        <ele>1005.2</ele>
        <time>2020-08-26T14:39:14Z</time>
      </trkpt>
      <trkpt lat="44.60022" lon="2.94599">
        <ele>1004.23</ele>
        <time>2020-08-26T14:39:30Z</time>
      </trkpt>
      <trkpt lat="44.60014" lon="2.94586">
        <ele>1003.75</ele>
        <time>2020-08-26T14:39:43Z</time>
      </trkpt>
      <trkpt lat="44.60004" lon="2.94572">
        <ele>1002.79</ele>
        <time>2020-08-26T14:39:57Z</time>
      </trkpt>
      <trkpt lat="44.59995" lon="2.94555">
        <ele>1002.31</ele>
        <time>2020-08-26T14:40:13Z</time>
      </trkpt>
      <trkpt lat="44.59986" lon="2.94543">
        <ele>1001.83</ele>
        <time>2020-08-26T14:40:26Z</time>
      </trkpt>
      <trkpt lat="44.59974" lon="2.94529">
        <ele>1001.35</ele>
        <time>2020-08-26T14:40:40Z</time>
      </trkpt>
      <trkpt lat="44.59963" lon="2.94515">
        <ele>1000.39</ele>
        <time>2020-08-26T14:40:55Z</time>
      </trkpt>
      <trkpt lat="44.59952" lon="2.94502">
        <ele>998.47</ele>
        <time>2020-08-26T14:41:10Z</time>
      </trkpt>
      <trkpt lat="44.59943" lon="2.9449">
        <ele>997.02</ele>
        <time>2020-08-26T14:41:25Z</time>
      </trkpt>
      <trkpt lat="44.59929" lon="2.94475">
        <ele>995.58</ele>
        <time>2020-08-26T14:41:41Z</time>
      </trkpt>
      <trkpt lat="44.5992" lon="2.94463">
        <ele>994.14</ele>
        <time>2020-08-26T14:41:56Z</time>
      </trkpt>
      <trkpt lat="44.59908" lon="2.94454">
        <ele>992.22</ele>
        <time>2020-08-26T14:42:10Z</time>
      </trkpt>
      <trkpt lat="44.59907" lon="2.94456">
        <ele>992.22</ele>
        <time>2020-08-26T14:42:36Z</time>
      </trkpt>
      <trkpt lat="44.59896" lon="2.94446">
        <ele>990.78</ele>
        <time>2020-08-26T14:43:04Z</time>
      </trkpt>
      <trkpt lat="44.59888" lon="2.94437">
        <ele>989.81</ele>
        <time>2020-08-26T14:43:16Z</time>
      </trkpt>
      <trkpt lat="44.59877" lon="2.94421">
        <ele>988.37</ele>
        <time>2020-08-26T14:43:33Z</time>
      </trkpt>
      <trkpt lat="44.59868" lon="2.9441">
        <ele>987.41</ele>
        <time>2020-08-26T14:43:48Z</time>
      </trkpt>
      <trkpt lat="44.59859" lon="2.94396">
        <ele>985.97</ele>
        <time>2020-08-26T14:44:04Z</time>
      </trkpt>
      <trkpt lat="44.59852" lon="2.94382">
        <ele>984.05</ele>
        <time>2020-08-26T14:44:20Z</time>
      </trkpt>
      <trkpt lat="44.59843" lon="2.94366">
        <ele>982.6</ele>
        <time>2020-08-26T14:44:40Z</time>
      </trkpt>
      <trkpt lat="44.59832" lon="2.94349">
        <ele>981.16</ele>
        <time>2020-08-26T14:44:54Z</time>
      </trkpt>
      <trkpt lat="44.59821" lon="2.94331">
        <ele>980.2</ele>
        <time>2020-08-26T14:45:11Z</time>
      </trkpt>
      <trkpt lat="44.59817" lon="2.94323">
        <ele>980.2</ele>
        <time>2020-08-26T14:45:18Z</time>
      </trkpt>
      <trkpt lat="44.59808" lon="2.943">
        <ele>979.72</ele>
        <time>2020-08-26T14:45:35Z</time>
      </trkpt>
      <trkpt lat="44.59802" lon="2.94278">
        <ele>979.72</ele>
        <time>2020-08-26T14:45:51Z</time>
      </trkpt>
      <trkpt lat="44.59799" lon="2.94254">
        <ele>979.24</ele>
        <time>2020-08-26T14:46:06Z</time>
      </trkpt>
      <trkpt lat="44.598" lon="2.94239">
        <ele>979.24</ele>
        <time>2020-08-26T14:46:18Z</time>
      </trkpt>
      <trkpt lat="44.59799" lon="2.94236">
        <ele>978.76</ele>
        <time>2020-08-26T14:46:36Z</time>
      </trkpt>
      <trkpt lat="44.59794" lon="2.94232">
        <ele>978.76</ele>
        <time>2020-08-26T14:47:04Z</time>
      </trkpt>
      <trkpt lat="44.59796" lon="2.94239">
        <ele>978.76</ele>
        <time>2020-08-26T14:47:29Z</time>
      </trkpt>
      <trkpt lat="44.59796" lon="2.94237">
        <ele>978.76</ele>
        <time>2020-08-26T14:47:58Z</time>
      </trkpt>
      <trkpt lat="44.59801" lon="2.94242">
        <ele>980.2</ele>
        <time>2020-08-26T14:48:29Z</time>
      </trkpt>
      <trkpt lat="44.59802" lon="2.9424">
        <ele>980.2</ele>
        <time>2020-08-26T14:49:06Z</time>
      </trkpt>
      <trkpt lat="44.59799" lon="2.94236">
        <ele>980.2</ele>
        <time>2020-08-26T14:49:36Z</time>
      </trkpt>
      <trkpt lat="44.59797" lon="2.94221">
        <ele>980.2</ele>
        <time>2020-08-26T14:49:50Z</time>
      </trkpt>
      <trkpt lat="44.59791" lon="2.94202">
        <ele>980.2</ele>
        <time>2020-08-26T14:50:05Z</time>
      </trkpt>
      <trkpt lat="44.5979" lon="2.94202">
        <ele>980.2</ele>
        <time>2020-08-26T14:50:06Z</time>
      </trkpt>
      <trkpt lat="44.59784" lon="2.94186">
        <ele>978.28</ele>
        <time>2020-08-26T14:50:21Z</time>
      </trkpt>
      <trkpt lat="44.59783" lon="2.94186">
        <ele>978.28</ele>
        <time>2020-08-26T14:50:36Z</time>
      </trkpt>
      <trkpt lat="44.59783" lon="2.94178">
        <ele>978.28</ele>
        <time>2020-08-26T14:50:51Z</time>
      </trkpt>
      <trkpt lat="44.59778" lon="2.94156">
        <ele>978.28</ele>
        <time>2020-08-26T14:51:08Z</time>
      </trkpt>
      <trkpt lat="44.59774" lon="2.9414">
        <ele>977.8</ele>
        <time>2020-08-26T14:51:22Z</time>
      </trkpt>
      <trkpt lat="44.59769" lon="2.94131">
        <ele>976.84</ele>
        <time>2020-08-26T14:51:36Z</time>
      </trkpt>
      <trkpt lat="44.59765" lon="2.94111">
        <ele>974.91</ele>
        <time>2020-08-26T14:51:51Z</time>
      </trkpt>
      <trkpt lat="44.5976" lon="2.94099">
        <ele>972.51</ele>
        <time>2020-08-26T14:52:05Z</time>
      </trkpt>
      <trkpt lat="44.59751" lon="2.94089">
        <ele>970.11</ele>
        <time>2020-08-26T14:52:22Z</time>
      </trkpt>
      <trkpt lat="44.59744" lon="2.94082">
        <ele>968.18</ele>
        <time>2020-08-26T14:52:36Z</time>
      </trkpt>
      <trkpt lat="44.59737" lon="2.94074">
        <ele>966.26</ele>
        <time>2020-08-26T14:52:48Z</time>
      </trkpt>
      <trkpt lat="44.59734" lon="2.94063">
        <ele>964.34</ele>
        <time>2020-08-26T14:53:05Z</time>
      </trkpt>
      <trkpt lat="44.5973" lon="2.94053">
        <ele>962.9</ele>
        <time>2020-08-26T14:53:17Z</time>
      </trkpt>
      <trkpt lat="44.59724" lon="2.94038">
        <ele>960.98</ele>
        <time>2020-08-26T14:53:33Z</time>
      </trkpt>
      <trkpt lat="44.59716" lon="2.94023">
        <ele>959.05</ele>
        <time>2020-08-26T14:53:49Z</time>
      </trkpt>
      <trkpt lat="44.59711" lon="2.94015">
        <ele>957.61</ele>
        <time>2020-08-26T14:54:01Z</time>
      </trkpt>
      <trkpt lat="44.59712" lon="2.94011">
        <ele>957.61</ele>
        <time>2020-08-26T14:54:25Z</time>
      </trkpt>
      <trkpt lat="44.59711" lon="2.94013">
        <ele>957.13</ele>
        <time>2020-08-26T14:54:55Z</time>
      </trkpt>
      <trkpt lat="44.59718" lon="2.94013">
        <ele>957.13</ele>
        <time>2020-08-26T14:55:32Z</time>
      </trkpt>
      <trkpt lat="44.59712" lon="2.94014">
        <ele>956.65</ele>
        <time>2020-08-26T14:56:10Z</time>
      </trkpt>
      <trkpt lat="44.59707" lon="2.94009">
        <ele>956.17</ele>
        <time>2020-08-26T14:56:31Z</time>
      </trkpt>
      <trkpt lat="44.597" lon="2.94">
        <ele>954.25</ele>
        <time>2020-08-26T14:56:46Z</time>
      </trkpt>
      <trkpt lat="44.59694" lon="2.93994">
        <ele>951.84</ele>
        <time>2020-08-26T14:57:02Z</time>
      </trkpt>
      <trkpt lat="44.59688" lon="2.94">
        <ele>950.4</ele>
        <time>2020-08-26T14:57:15Z</time>
      </trkpt>
      <trkpt lat="44.59684" lon="2.94">
        <ele>948.96</ele>
        <time>2020-08-26T14:57:29Z</time>
      </trkpt>
      <trkpt lat="44.59682" lon="2.93995">
        <ele>948.48</ele>
        <time>2020-08-26T14:57:53Z</time>
      </trkpt>
      <trkpt lat="44.59677" lon="2.93991">
        <ele>947.52</ele>
        <time>2020-08-26T14:58:19Z</time>
      </trkpt>
      <trkpt lat="44.59672" lon="2.93986">
        <ele>946.07</ele>
        <time>2020-08-26T14:58:38Z</time>
      </trkpt>
      <trkpt lat="44.59667" lon="2.93978">
        <ele>944.15</ele>
        <time>2020-08-26T14:58:53Z</time>
      </trkpt>
      <trkpt lat="44.59659" lon="2.93969">
        <ele>941.75</ele>
        <time>2020-08-26T14:59:09Z</time>
      </trkpt>
      <trkpt lat="44.59652" lon="2.9396">
        <ele>939.35</ele>
        <time>2020-08-26T14:59:25Z</time>
      </trkpt>
      <trkpt lat="44.59644" lon="2.93952">
        <ele>936.94</ele>
        <time>2020-08-26T14:59:42Z</time>
      </trkpt>
      <trkpt lat="44.59638" lon="2.93945">
        <ele>934.54</ele>
        <time>2020-08-26T14:59:57Z</time>
      </trkpt>
      <trkpt lat="44.59631" lon="2.93938">
        <ele>932.14</ele>
        <time>2020-08-26T15:00:11Z</time>
      </trkpt>
      <trkpt lat="44.59626" lon="2.93928">
        <ele>929.73</ele>
        <time>2020-08-26T15:00:25Z</time>
      </trkpt>
      <trkpt lat="44.59619" lon="2.93919">
        <ele>927.33</ele>
        <time>2020-08-26T15:00:41Z</time>
      </trkpt>
      <trkpt lat="44.59612" lon="2.93911">
        <ele>924.93</ele>
        <time>2020-08-26T15:00:55Z</time>
      </trkpt>
      <trkpt lat="44.59603" lon="2.93904">
        <ele>922.52</ele>
        <time>2020-08-26T15:01:08Z</time>
      </trkpt>
      <trkpt lat="44.59597" lon="2.93898">
        <ele>921.08</ele>
        <time>2020-08-26T15:01:23Z</time>
      </trkpt>
      <trkpt lat="44.59596" lon="2.93901">
        <ele>920.6</ele>
        <time>2020-08-26T15:01:47Z</time>
      </trkpt>
      <trkpt lat="44.59596" lon="2.939">
        <ele>921.08</ele>
        <time>2020-08-26T15:02:13Z</time>
      </trkpt>
      <trkpt lat="44.59597" lon="2.93909">
        <ele>921.08</ele>
        <time>2020-08-26T15:02:51Z</time>
      </trkpt>
      <trkpt lat="44.59594" lon="2.9391">
        <ele>921.08</ele>
        <time>2020-08-26T15:03:25Z</time>
      </trkpt>
      <trkpt lat="44.59591" lon="2.93905">
        <ele>921.08</ele>
        <time>2020-08-26T15:04:00Z</time>
      </trkpt>
      <trkpt lat="44.59595" lon="2.93901">
        <ele>921.08</ele>
        <time>2020-08-26T15:04:30Z</time>
      </trkpt>
      <trkpt lat="44.5959" lon="2.93896">
        <ele>921.08</ele>
        <time>2020-08-26T15:05:01Z</time>
      </trkpt>
      <trkpt lat="44.59594" lon="2.93896">
        <ele>921.56</ele>
        <time>2020-08-26T15:05:30Z</time>
      </trkpt>
      <trkpt lat="44.59592" lon="2.93896">
        <ele>921.08</ele>
        <time>2020-08-26T15:05:51Z</time>
      </trkpt>
      <trkpt lat="44.59588" lon="2.93899">
        <ele>921.08</ele>
        <time>2020-08-26T15:06:19Z</time>
      </trkpt>
      <trkpt lat="44.59589" lon="2.93905">
        <ele>921.08</ele>
        <time>2020-08-26T15:06:43Z</time>
      </trkpt>
      <trkpt lat="44.59586" lon="2.93904">
        <ele>921.08</ele>
        <time>2020-08-26T15:07:24Z</time>
      </trkpt>
      <trkpt lat="44.59585" lon="2.93902">
        <ele>921.08</ele>
        <time>2020-08-26T15:08:03Z</time>
      </trkpt>
      <trkpt lat="44.5958" lon="2.93903">
        <ele>921.08</ele>
        <time>2020-08-26T15:08:48Z</time>
      </trkpt>
      <trkpt lat="44.59589" lon="2.93899">
        <ele>921.08</ele>
        <time>2020-08-26T15:09:20Z</time>
      </trkpt>
      <trkpt lat="44.59589" lon="2.93895">
        <ele>921.08</ele>
        <time>2020-08-26T15:09:55Z</time>
      </trkpt>
      <trkpt lat="44.59591" lon="2.939">
        <ele>920.6</ele>
        <time>2020-08-26T15:10:25Z</time>
      </trkpt>
      <trkpt lat="44.5959" lon="2.93904">
        <ele>920.6</ele>
        <time>2020-08-26T15:10:45Z</time>
      </trkpt>
      <trkpt lat="44.59601" lon="2.93897">
        <ele>920.6</ele>
        <time>2020-08-26T15:11:08Z</time>
      </trkpt>
      <trkpt lat="44.59596" lon="2.93897">
        <ele>920.6</ele>
        <time>2020-08-26T15:11:35Z</time>
      </trkpt>
      <trkpt lat="44.59593" lon="2.93894">
        <ele>920.6</ele>
        <time>2020-08-26T15:12:14Z</time>
      </trkpt>
      <trkpt lat="44.59592" lon="2.93894">
        <ele>920.12</ele>
        <time>2020-08-26T15:12:54Z</time>
      </trkpt>
      <trkpt lat="44.59591" lon="2.93896">
        <ele>920.12</ele>
        <time>2020-08-26T15:13:28Z</time>
      </trkpt>
      <trkpt lat="44.59591" lon="2.93881">
        <ele>920.12</ele>
        <time>2020-08-26T15:13:43Z</time>
      </trkpt>
      <trkpt lat="44.59588" lon="2.93853">
        <ele>918.68</ele>
        <time>2020-08-26T15:14:04Z</time>
      </trkpt>
      <trkpt lat="44.59586" lon="2.93819">
        <ele>917.72</ele>
        <time>2020-08-26T15:14:26Z</time>
      </trkpt>
      <trkpt lat="44.59587" lon="2.93796">
        <ele>916.27</ele>
        <time>2020-08-26T15:14:47Z</time>
      </trkpt>
      <trkpt lat="44.59583" lon="2.93775">
        <ele>913.39</ele>
        <time>2020-08-26T15:15:09Z</time>
      </trkpt>
      <trkpt lat="44.5958" lon="2.93755">
        <ele>910.51</ele>
        <time>2020-08-26T15:15:30Z</time>
      </trkpt>
      <trkpt lat="44.59578" lon="2.93745">
        <ele>908.1</ele>
        <time>2020-08-26T15:15:46Z</time>
      </trkpt>
      <trkpt lat="44.59578" lon="2.93734">
        <ele>907.14</ele>
        <time>2020-08-26T15:16:05Z</time>
      </trkpt>
      <trkpt lat="44.59575" lon="2.93721">
        <ele>905.22</ele>
        <time>2020-08-26T15:16:28Z</time>
      </trkpt>
      <trkpt lat="44.59559" lon="2.93713">
        <ele>902.82</ele>
        <time>2020-08-26T15:16:49Z</time>
      </trkpt>
      <trkpt lat="44.59539" lon="2.93711">
        <ele>900.41</ele>
        <time>2020-08-26T15:17:10Z</time>
      </trkpt>
      <trkpt lat="44.59545" lon="2.93705">
        <ele>899.93</ele>
        <time>2020-08-26T15:17:33Z</time>
      </trkpt>
      <trkpt lat="44.59548" lon="2.93711">
        <ele>899.45</ele>
        <time>2020-08-26T15:18:14Z</time>
      </trkpt>
      <trkpt lat="44.59545" lon="2.93714">
        <ele>898.97</ele>
        <time>2020-08-26T15:18:40Z</time>
      </trkpt>
      <trkpt lat="44.59544" lon="2.93714">
        <ele>898.97</ele>
        <time>2020-08-26T15:19:13Z</time>
      </trkpt>
      <trkpt lat="44.59545" lon="2.93706">
        <ele>897.53</ele>
        <time>2020-08-26T15:19:36Z</time>
      </trkpt>
      <trkpt lat="44.5954" lon="2.93697">
        <ele>896.57</ele>
        <time>2020-08-26T15:20:01Z</time>
      </trkpt>
      <trkpt lat="44.59542" lon="2.93693">
        <ele>894.64</ele>
        <time>2020-08-26T15:20:26Z</time>
      </trkpt>
      <trkpt lat="44.59534" lon="2.93668">
        <ele>893.2</ele>
        <time>2020-08-26T15:20:49Z</time>
      </trkpt>
      <trkpt lat="44.59526" lon="2.93654">
        <ele>892.72</ele>
        <time>2020-08-26T15:21:11Z</time>
      </trkpt>
      <trkpt lat="44.59518" lon="2.93635">
        <ele>892.72</ele>
        <time>2020-08-26T15:21:34Z</time>
      </trkpt>
      <trkpt lat="44.59512" lon="2.93627">
        <ele>891.76</ele>
        <time>2020-08-26T15:21:48Z</time>
      </trkpt>
      <trkpt lat="44.59502" lon="2.9361">
        <ele>891.76</ele>
        <time>2020-08-26T15:22:06Z</time>
      </trkpt>
      <trkpt lat="44.5949" lon="2.93581">
        <ele>890.8</ele>
        <time>2020-08-26T15:22:28Z</time>
      </trkpt>
      <trkpt lat="44.59486" lon="2.93564">
        <ele>889.84</ele>
        <time>2020-08-26T15:22:47Z</time>
      </trkpt>
      <trkpt lat="44.5948" lon="2.93545">
        <ele>887.91</ele>
        <time>2020-08-26T15:23:06Z</time>
      </trkpt>
      <trkpt lat="44.59469" lon="2.93529">
        <ele>887.43</ele>
        <time>2020-08-26T15:23:24Z</time>
      </trkpt>
      <trkpt lat="44.59458" lon="2.93516">
        <ele>885.99</ele>
        <time>2020-08-26T15:23:45Z</time>
      </trkpt>
      <trkpt lat="44.59449" lon="2.93494">
        <ele>884.07</ele>
        <time>2020-08-26T15:24:06Z</time>
      </trkpt>
      <trkpt lat="44.59447" lon="2.93461">
        <ele>883.11</ele>
        <time>2020-08-26T15:24:29Z</time>
      </trkpt>
      <trkpt lat="44.59453" lon="2.93443">
        <ele>882.63</ele>
        <time>2020-08-26T15:24:51Z</time>
      </trkpt>
      <trkpt lat="44.59438" lon="2.93417">
        <ele>881.19</ele>
        <time>2020-08-26T15:25:15Z</time>
      </trkpt>
      <trkpt lat="44.59426" lon="2.93402">
        <ele>879.26</ele>
        <time>2020-08-26T15:25:32Z</time>
      </trkpt>
      <trkpt lat="44.59416" lon="2.9338">
        <ele>878.78</ele>
        <time>2020-08-26T15:25:53Z</time>
      </trkpt>
      <trkpt lat="44.59414" lon="2.93377">
        <ele>878.78</ele>
        <time>2020-08-26T15:26:22Z</time>
      </trkpt>
      <trkpt lat="44.59421" lon="2.93361">
        <ele>880.71</ele>
        <time>2020-08-26T15:26:41Z</time>
      </trkpt>
      <trkpt lat="44.59423" lon="2.93346">
        <ele>883.11</ele>
        <time>2020-08-26T15:27:00Z</time>
      </trkpt>
      <trkpt lat="44.59422" lon="2.93329">
        <ele>885.03</ele>
        <time>2020-08-26T15:27:20Z</time>
      </trkpt>
      <trkpt lat="44.59422" lon="2.93317">
        <ele>886.47</ele>
        <time>2020-08-26T15:27:34Z</time>
      </trkpt>
      <trkpt lat="44.59422" lon="2.93312">
        <ele>886.95</ele>
        <time>2020-08-26T15:27:48Z</time>
      </trkpt>
      <trkpt lat="44.59424" lon="2.93314">
        <ele>886.95</ele>
        <time>2020-08-26T15:28:03Z</time>
      </trkpt>
      <trkpt lat="44.59422" lon="2.93314">
        <ele>886.95</ele>
        <time>2020-08-26T15:28:31Z</time>
      </trkpt>
      <trkpt lat="44.5942" lon="2.93318">
        <ele>886.95</ele>
        <time>2020-08-26T15:29:03Z</time>
      </trkpt>
      <trkpt lat="44.59419" lon="2.93318">
        <ele>886.95</ele>
        <time>2020-08-26T15:29:42Z</time>
      </trkpt>
      <trkpt lat="44.5942" lon="2.93317">
        <ele>886.95</ele>
        <time>2020-08-26T15:30:09Z</time>
      </trkpt>
      <trkpt lat="44.59419" lon="2.93302">
        <ele>887.43</ele>
        <time>2020-08-26T15:30:28Z</time>
      </trkpt>
      <trkpt lat="44.59414" lon="2.93287">
        <ele>885.51</ele>
        <time>2020-08-26T15:30:42Z</time>
      </trkpt>
      <trkpt lat="44.59407" lon="2.93264">
        <ele>884.07</ele>
        <time>2020-08-26T15:30:59Z</time>
      </trkpt>
      <trkpt lat="44.59403" lon="2.93244">
        <ele>882.63</ele>
        <time>2020-08-26T15:31:16Z</time>
      </trkpt>
      <trkpt lat="44.59398" lon="2.9322">
        <ele>880.71</ele>
        <time>2020-08-26T15:31:34Z</time>
      </trkpt>
      <trkpt lat="44.59391" lon="2.93188">
        <ele>878.78</ele>
        <time>2020-08-26T15:31:54Z</time>
      </trkpt>
      <trkpt lat="44.59383" lon="2.93159">
        <ele>877.34</ele>
        <time>2020-08-26T15:32:13Z</time>
      </trkpt>
      <trkpt lat="44.59377" lon="2.93143">
        <ele>876.38</ele>
        <time>2020-08-26T15:32:29Z</time>
      </trkpt>
      <trkpt lat="44.59371" lon="2.93125">
        <ele>873.98</ele>
        <time>2020-08-26T15:32:47Z</time>
      </trkpt>
      <trkpt lat="44.59362" lon="2.93106">
        <ele>872.53</ele>
        <time>2020-08-26T15:33:07Z</time>
      </trkpt>
      <trkpt lat="44.5935" lon="2.9308">
        <ele>870.61</ele>
        <time>2020-08-26T15:33:29Z</time>
      </trkpt>
      <trkpt lat="44.59344" lon="2.93056">
        <ele>869.17</ele>
        <time>2020-08-26T15:33:51Z</time>
      </trkpt>
      <trkpt lat="44.59338" lon="2.93018">
        <ele>866.77</ele>
        <time>2020-08-26T15:34:15Z</time>
      </trkpt>
      <trkpt lat="44.59338" lon="2.92995">
        <ele>863.88</ele>
        <time>2020-08-26T15:34:36Z</time>
      </trkpt>
      <trkpt lat="44.59334" lon="2.92966">
        <ele>862.44</ele>
        <time>2020-08-26T15:34:56Z</time>
      </trkpt>
      <trkpt lat="44.5933" lon="2.9294">
        <ele>860.52</ele>
        <time>2020-08-26T15:35:17Z</time>
      </trkpt>
      <trkpt lat="44.59326" lon="2.92915">
        <ele>858.59</ele>
        <time>2020-08-26T15:35:33Z</time>
      </trkpt>
      <trkpt lat="44.59326" lon="2.92913">
        <ele>858.59</ele>
        <time>2020-08-26T15:35:34Z</time>
      </trkpt>
      <trkpt lat="44.59324" lon="2.92887">
        <ele>857.15</ele>
        <time>2020-08-26T15:35:52Z</time>
      </trkpt>
      <trkpt lat="44.59324" lon="2.92849">
        <ele>855.71</ele>
        <time>2020-08-26T15:36:14Z</time>
      </trkpt>
      <trkpt lat="44.59322" lon="2.92819">
        <ele>853.31</ele>
        <time>2020-08-26T15:36:36Z</time>
      </trkpt>
      <trkpt lat="44.59318" lon="2.92802">
        <ele>852.83</ele>
        <time>2020-08-26T15:36:56Z</time>
      </trkpt>
      <trkpt lat="44.59319" lon="2.92804">
        <ele>852.35</ele>
        <time>2020-08-26T15:37:23Z</time>
      </trkpt>
      <trkpt lat="44.59316" lon="2.92803">
        <ele>852.35</ele>
        <time>2020-08-26T15:37:55Z</time>
      </trkpt>
      <trkpt lat="44.59313" lon="2.92798">
        <ele>851.87</ele>
        <time>2020-08-26T15:38:01Z</time>
      </trkpt>
      <trkpt lat="44.593" lon="2.92772">
        <ele>849.94</ele>
        <time>2020-08-26T15:38:23Z</time>
      </trkpt>
      <trkpt lat="44.59294" lon="2.92751">
        <ele>848.5</ele>
        <time>2020-08-26T15:38:43Z</time>
      </trkpt>
      <trkpt lat="44.59286" lon="2.9272">
        <ele>846.1</ele>
        <time>2020-08-26T15:39:05Z</time>
      </trkpt>
      <trkpt lat="44.59279" lon="2.92688">
        <ele>843.69</ele>
        <time>2020-08-26T15:39:29Z</time>
      </trkpt>
      <trkpt lat="44.59273" lon="2.92664">
        <ele>841.77</ele>
        <time>2020-08-26T15:39:48Z</time>
      </trkpt>
      <trkpt lat="44.59265" lon="2.92629">
        <ele>839.85</ele>
        <time>2020-08-26T15:40:11Z</time>
      </trkpt>
      <trkpt lat="44.5926" lon="2.92599">
        <ele>837.93</ele>
        <time>2020-08-26T15:40:33Z</time>
      </trkpt>
      <trkpt lat="44.59255" lon="2.92581">
        <ele>837.45</ele>
        <time>2020-08-26T15:40:47Z</time>
      </trkpt>
      <trkpt lat="44.5925" lon="2.92546">
        <ele>835.04</ele>
        <time>2020-08-26T15:41:10Z</time>
      </trkpt>
      <trkpt lat="44.59247" lon="2.92525">
        <ele>833.12</ele>
        <time>2020-08-26T15:41:30Z</time>
      </trkpt>
      <trkpt lat="44.59239" lon="2.92498">
        <ele>830.72</ele>
        <time>2020-08-26T15:41:52Z</time>
      </trkpt>
      <trkpt lat="44.59224" lon="2.92469">
        <ele>829.27</ele>
        <time>2020-08-26T15:42:17Z</time>
      </trkpt>
      <trkpt lat="44.59209" lon="2.92449">
        <ele>827.35</ele>
        <time>2020-08-26T15:42:36Z</time>
      </trkpt>
      <trkpt lat="44.59188" lon="2.92433">
        <ele>825.43</ele>
        <time>2020-08-26T15:42:58Z</time>
      </trkpt>
      <trkpt lat="44.59173" lon="2.92414">
        <ele>823.99</ele>
        <time>2020-08-26T15:43:21Z</time>
      </trkpt>
      <trkpt lat="44.59159" lon="2.92399">
        <ele>821.58</ele>
        <time>2020-08-26T15:43:44Z</time>
      </trkpt>
      <trkpt lat="44.59154" lon="2.92397">
        <ele>821.1</ele>
        <time>2020-08-26T15:43:50Z</time>
      </trkpt>
      <trkpt lat="44.59133" lon="2.92383">
        <ele>819.66</ele>
        <time>2020-08-26T15:44:13Z</time>
      </trkpt>
      <trkpt lat="44.59125" lon="2.92362">
        <ele>820.62</ele>
        <time>2020-08-26T15:44:30Z</time>
      </trkpt>
      <trkpt lat="44.59121" lon="2.92361">
        <ele>820.62</ele>
        <time>2020-08-26T15:44:48Z</time>
      </trkpt>
      <trkpt lat="44.59118" lon="2.92361">
        <ele>820.62</ele>
        <time>2020-08-26T15:45:06Z</time>
      </trkpt>
      <trkpt lat="44.59119" lon="2.92362">
        <ele>821.1</ele>
        <time>2020-08-26T15:45:37Z</time>
      </trkpt>
      <trkpt lat="44.59127" lon="2.92361">
        <ele>821.1</ele>
        <time>2020-08-26T15:46:05Z</time>
      </trkpt>
      <trkpt lat="44.5912" lon="2.92359">
        <ele>820.62</ele>
        <time>2020-08-26T15:46:24Z</time>
      </trkpt>
      <trkpt lat="44.59119" lon="2.9235">
        <ele>820.62</ele>
        <time>2020-08-26T15:46:40Z</time>
      </trkpt>
      <trkpt lat="44.59116" lon="2.92335">
        <ele>820.62</ele>
        <time>2020-08-26T15:46:59Z</time>
      </trkpt>
      <trkpt lat="44.59117" lon="2.9232">
        <ele>821.58</ele>
        <time>2020-08-26T15:47:21Z</time>
      </trkpt>
      <trkpt lat="44.59117" lon="2.92298">
        <ele>822.06</ele>
        <time>2020-08-26T15:47:44Z</time>
      </trkpt>
      <trkpt lat="44.59117" lon="2.92275">
        <ele>821.58</ele>
        <time>2020-08-26T15:48:04Z</time>
      </trkpt>
      <trkpt lat="44.59112" lon="2.92264">
        <ele>821.58</ele>
        <time>2020-08-26T15:48:26Z</time>
      </trkpt>
      <trkpt lat="44.59112" lon="2.92262">
        <ele>821.58</ele>
        <time>2020-08-26T15:48:40Z</time>
      </trkpt>
      <trkpt lat="44.59123" lon="2.92265">
        <ele>821.58</ele>
        <time>2020-08-26T15:52:11Z</time>
      </trkpt>
      <trkpt lat="44.59126" lon="2.92255">
        <ele>820.14</ele>
        <time>2020-08-26T15:52:25Z</time>
      </trkpt>
      <trkpt lat="44.59125" lon="2.92254">
        <ele>821.58</ele>
        <time>2020-08-26T15:52:47Z</time>
      </trkpt>
      <trkpt lat="44.59125" lon="2.92253">
        <ele>821.58</ele>
        <time>2020-08-26T15:52:50Z</time>
      </trkpt>
    </trkseg>
  </trk>
</gpx>